<?xml version='1.0' encoding='UTF-8'?><gpx version="1.1" creator="JPX - https://github.com/jenetics/jpx" xmlns="http://www.topografix.com/GPX/1/1"><trk><trkseg><trkpt lat="41.14119771744949" lon="16.774049379267105"><ele>30.0</ele><time>2026-03-27T22:03:13Z</time></trkpt><trkpt lat="41.14129005237053" lon="16.774084819981272"><ele>30.0</ele><time>2026-03-27T22:03:16Z</time></trkpt><trkpt lat="41.14138130530119" lon="16.7741007422804"><ele>30.0</ele><time>2026-03-27T22:03:19Z</time></trkpt><trkpt lat="41.1414502983493" lon="16.774102844273287"><ele>30.0</ele><time>2026-03-27T22:03:21Z</time></trkpt><trkpt lat="41.14152059332883" lon="16.77411641216698"><ele>30.0</ele><time>2026-03-27T22:03:23Z</time></trkpt><trkpt lat="41.141593155561544" lon="16.77412776786112"><ele>30.0</ele><time>2026-03-27T22:03:25Z</time></trkpt><trkpt lat="41.141662829809434" lon="16.77414157179695"><ele>30.2</ele><time>2026-03-27T22:03:27Z</time></trkpt><trkpt lat="41.14178936239397" lon="16.77412843758038"><ele>30.4</ele><time>2026-03-27T22:03:30Z</time></trkpt><trkpt lat="41.14186901556864" lon="16.77411426133283"><ele>30.6</ele><time>2026-03-27T22:03:32Z</time></trkpt><trkpt lat="41.14195350496033" lon="16.774075188067787"><ele>30.8</ele><time>2026-03-27T22:03:34Z</time></trkpt><trkpt lat="41.14203495853942" lon="16.774030830964577"><ele>31.0</ele><time>2026-03-27T22:03:36Z</time></trkpt><trkpt lat="41.14212218465337" lon="16.77398211993709"><ele>31.0</ele><time>2026-03-27T22:03:38Z</time></trkpt><trkpt lat="41.14218029832011" lon="16.773895809356894"><ele>31.0</ele><time>2026-03-27T22:03:41Z</time></trkpt><trkpt lat="41.1421684488836" lon="16.77380948532453"><ele>31.0</ele><time>2026-03-27T22:03:49Z</time></trkpt><trkpt lat="41.142150008245224" lon="16.773644324843318"><ele>31.0</ele><time>2026-03-27T22:04:06Z</time></trkpt><trkpt lat="41.14205991848678" lon="16.773317633901488"><ele>31.0</ele><time>2026-03-27T22:04:43Z</time></trkpt><trkpt lat="41.142008836056846" lon="16.773156859043862"><ele>31.0</ele><time>2026-03-27T22:04:44Z</time></trkpt><trkpt lat="41.14195191517573" lon="16.772984557331863"><ele>31.0</ele><time>2026-03-27T22:04:45Z</time></trkpt><trkpt lat="41.14190808716332" lon="16.772781054932434"><ele>31.0</ele><time>2026-03-27T22:04:46Z</time></trkpt><trkpt lat="41.1418590850135" lon="16.772536384377457"><ele>32.0</ele><time>2026-03-27T22:04:47Z</time></trkpt><trkpt lat="41.141784292089554" lon="16.772251413028314"><ele>33.0</ele><time>2026-03-27T22:04:48Z</time></trkpt><trkpt lat="41.14169263471792" lon="16.77197175365019"><ele>33.0</ele><time>2026-03-27T22:04:49Z</time></trkpt><trkpt lat="41.14160625455219" lon="16.77165170687843"><ele>33.0</ele><time>2026-03-27T22:04:50Z</time></trkpt><trkpt lat="41.14150831373616" lon="16.771305738144797"><ele>33.0</ele><time>2026-03-27T22:04:51Z</time></trkpt><trkpt lat="41.141428384472285" lon="16.770963992835263"><ele>33.0</ele><time>2026-03-27T22:04:52Z</time></trkpt><trkpt lat="41.14131100531037" lon="16.770563238782263"><ele>33.5</ele><time>2026-03-27T22:04:53Z</time></trkpt><trkpt lat="41.14116978968916" lon="16.770099804939687"><ele>34.0</ele><time>2026-03-27T22:04:54Z</time></trkpt><trkpt lat="41.14102276459452" lon="16.769611592478338"><ele>33.0</ele><time>2026-03-27T22:04:55Z</time></trkpt><trkpt lat="41.14087816188224" lon="16.769112583712573"><ele>32.0</ele><time>2026-03-27T22:04:56Z</time></trkpt><trkpt lat="41.14072942873424" lon="16.76859836488908"><ele>36.0</ele><time>2026-03-27T22:04:57Z</time></trkpt><trkpt lat="41.14056141954308" lon="16.768042988784828"><ele>38.0</ele><time>2026-03-27T22:04:58Z</time></trkpt><trkpt lat="41.14040875898306" lon="16.76746697609168"><ele>38.0</ele><time>2026-03-27T22:04:59Z</time></trkpt><trkpt lat="41.140240905962784" lon="16.76687657052836"><ele>36.0</ele><time>2026-03-27T22:05:00Z</time></trkpt><trkpt lat="41.14006473480157" lon="16.766252055292167"><ele>38.0</ele><time>2026-03-27T22:05:01Z</time></trkpt><trkpt lat="41.139881623806346" lon="16.765610262365247"><ele>39.0</ele><time>2026-03-27T22:05:02Z</time></trkpt><trkpt lat="41.13968769119134" lon="16.764960198943097"><ele>36.0</ele><time>2026-03-27T22:05:03Z</time></trkpt><trkpt lat="41.13950683354905" lon="16.764271842520117"><ele>36.0</ele><time>2026-03-27T22:05:04Z</time></trkpt><trkpt lat="41.13932126943936" lon="16.763576275887843"><ele>38.0</ele><time>2026-03-27T22:05:05Z</time></trkpt><trkpt lat="41.13912061533535" lon="16.762863380648895"><ele>40.0</ele><time>2026-03-27T22:05:06Z</time></trkpt><trkpt lat="41.13891169749647" lon="16.762130989620495"><ele>38.0</ele><time>2026-03-27T22:05:07Z</time></trkpt><trkpt lat="41.13869055729963" lon="16.7613799897932"><ele>40.0</ele><time>2026-03-27T22:05:08Z</time></trkpt><trkpt lat="41.13846610297232" lon="16.760593996080456"><ele>39.0</ele><time>2026-03-27T22:05:09Z</time></trkpt><trkpt lat="41.13825944224187" lon="16.759780502564443"><ele>40.0</ele><time>2026-03-27T22:05:10Z</time></trkpt><trkpt lat="41.138054885665646" lon="16.758948309928478"><ele>41.0</ele><time>2026-03-27T22:05:11Z</time></trkpt><trkpt lat="41.13782522317865" lon="16.75810251736192"><ele>43.0</ele><time>2026-03-27T22:05:12Z</time></trkpt><trkpt lat="41.13760505296593" lon="16.75724713500344"><ele>44.0</ele><time>2026-03-27T22:05:13Z</time></trkpt><trkpt lat="41.137376669215804" lon="16.75638994525507"><ele>46.0</ele><time>2026-03-27T22:05:14Z</time></trkpt><trkpt lat="41.13712039622272" lon="16.755520012753944"><ele>43.0</ele><time>2026-03-27T22:05:15Z</time></trkpt><trkpt lat="41.13686554956929" lon="16.754650667725226"><ele>43.0</ele><time>2026-03-27T22:05:16Z</time></trkpt><trkpt lat="41.136598870536744" lon="16.753788248209535"><ele>47.0</ele><time>2026-03-27T22:05:17Z</time></trkpt><trkpt lat="41.136363277152476" lon="16.752915471634893"><ele>45.0</ele><time>2026-03-27T22:05:18Z</time></trkpt><trkpt lat="41.136145357676135" lon="16.752031140381387"><ele>49.0</ele><time>2026-03-27T22:05:19Z</time></trkpt><trkpt lat="41.135926016501266" lon="16.75113751985213"><ele>50.0</ele><time>2026-03-27T22:05:20Z</time></trkpt><trkpt lat="41.135726276319886" lon="16.750240123065005"><ele>49.0</ele><time>2026-03-27T22:05:21Z</time></trkpt><trkpt lat="41.13550080585812" lon="16.749369818047825"><ele>50.0</ele><time>2026-03-27T22:05:22Z</time></trkpt><trkpt lat="41.135274449307644" lon="16.748502639694784"><ele>50.0</ele><time>2026-03-27T22:05:23Z</time></trkpt><trkpt lat="41.135047966209115" lon="16.7476369505091"><ele>52.0</ele><time>2026-03-27T22:05:24Z</time></trkpt><trkpt lat="41.134806274102935" lon="16.746791176104985"><ele>51.0</ele><time>2026-03-27T22:05:25Z</time></trkpt><trkpt lat="41.134556556714415" lon="16.745961098253915"><ele>52.0</ele><time>2026-03-27T22:05:26Z</time></trkpt><trkpt lat="41.13432003468438" lon="16.745113868948234"><ele>53.0</ele><time>2026-03-27T22:05:27Z</time></trkpt><trkpt lat="41.13453707819976" lon="16.743864909764927"><ele>53.0</ele><time>2026-03-27T22:05:28Z</time></trkpt><trkpt lat="41.13433668721435" lon="16.743020747161868"><ele>55.0</ele><time>2026-03-27T22:05:29Z</time></trkpt><trkpt lat="41.1341448043044" lon="16.7421670458048"><ele>58.0</ele><time>2026-03-27T22:05:30Z</time></trkpt><trkpt lat="41.13397514262828" lon="16.741272606267582"><ele>58.0</ele><time>2026-03-27T22:05:31Z</time></trkpt><trkpt lat="41.13381394009552" lon="16.740369553479947"><ele>58.0</ele><time>2026-03-27T22:05:32Z</time></trkpt><trkpt lat="41.133689990209604" lon="16.739509524364298"><ele>58.0</ele><time>2026-03-27T22:05:33Z</time></trkpt><trkpt lat="41.133548494691034" lon="16.738643574300664"><ele>59.0</ele><time>2026-03-27T22:05:34Z</time></trkpt><trkpt lat="41.133365217306256" lon="16.737744964465673"><ele>63.0</ele><time>2026-03-27T22:05:35Z</time></trkpt><trkpt lat="41.13317689439398" lon="16.736838946383426"><ele>64.0</ele><time>2026-03-27T22:05:36Z</time></trkpt><trkpt lat="41.13297986827615" lon="16.735964815336995"><ele>66.0</ele><time>2026-03-27T22:05:37Z</time></trkpt><trkpt lat="41.13279938941586" lon="16.735130531253265"><ele>64.0</ele><time>2026-03-27T22:05:38Z</time></trkpt><trkpt lat="41.1326110064865" lon="16.734274008914458"><ele>65.0</ele><time>2026-03-27T22:05:39Z</time></trkpt><trkpt lat="41.13225139949166" lon="16.733462645160646"><ele>65.0</ele><time>2026-03-27T22:05:40Z</time></trkpt><trkpt lat="41.131915744875506" lon="16.7326662807469"><ele>65.0</ele><time>2026-03-27T22:05:41Z</time></trkpt><trkpt lat="41.13166027245065" lon="16.73177395580323"><ele>67.0</ele><time>2026-03-27T22:05:42Z</time></trkpt><trkpt lat="41.13139014486815" lon="16.730936242003384"><ele>66.0</ele><time>2026-03-27T22:05:43Z</time></trkpt><trkpt lat="41.131128717860484" lon="16.73010652896536"><ele>67.0</ele><time>2026-03-27T22:05:44Z</time></trkpt><trkpt lat="41.13089389468222" lon="16.729232992585036"><ele>67.0</ele><time>2026-03-27T22:05:45Z</time></trkpt><trkpt lat="41.13066210228799" lon="16.728387535204117"><ele>66.0</ele><time>2026-03-27T22:05:46Z</time></trkpt><trkpt lat="41.13042264867325" lon="16.7275339275737"><ele>67.0</ele><time>2026-03-27T22:05:47Z</time></trkpt><trkpt lat="41.13016516862141" lon="16.72668972439315"><ele>67.0</ele><time>2026-03-27T22:05:48Z</time></trkpt><trkpt lat="41.12993210422632" lon="16.725823254999643"><ele>68.0</ele><time>2026-03-27T22:05:49Z</time></trkpt><trkpt lat="41.1297035737593" lon="16.724943642673107"><ele>66.0</ele><time>2026-03-27T22:05:50Z</time></trkpt><trkpt lat="41.12948553595863" lon="16.7240562287768"><ele>67.0</ele><time>2026-03-27T22:05:51Z</time></trkpt><trkpt lat="41.12860579012844" lon="16.72424829596758"><ele>67.0</ele><time>2026-03-27T22:05:52Z</time></trkpt><trkpt lat="41.12832981765626" lon="16.723419312131547"><ele>69.0</ele><time>2026-03-27T22:05:53Z</time></trkpt><trkpt lat="41.12805578714955" lon="16.72258929975957"><ele>70.0</ele><time>2026-03-27T22:05:54Z</time></trkpt><trkpt lat="41.12780208428008" lon="16.72173495471911"><ele>70.0</ele><time>2026-03-27T22:05:55Z</time></trkpt><trkpt lat="41.12752716113416" lon="16.72088989100548"><ele>74.0</ele><time>2026-03-27T22:05:56Z</time></trkpt><trkpt lat="41.127268087992896" lon="16.72002272535937"><ele>71.0</ele><time>2026-03-27T22:05:57Z</time></trkpt><trkpt lat="41.12670567803092" lon="16.71828432317064"><ele>74.0</ele><time>2026-03-27T22:05:59Z</time></trkpt><trkpt lat="41.126427196216305" lon="16.717412573179477"><ele>73.0</ele><time>2026-03-27T22:06:00Z</time></trkpt><trkpt lat="41.1261430469487" lon="16.716539656587933"><ele>72.0</ele><time>2026-03-27T22:06:01Z</time></trkpt><trkpt lat="41.125865719595026" lon="16.71564294525275"><ele>75.0</ele><time>2026-03-27T22:06:02Z</time></trkpt><trkpt lat="41.1255993937365" lon="16.714757809155774"><ele>78.0</ele><time>2026-03-27T22:06:03Z</time></trkpt><trkpt lat="41.12533261705316" lon="16.71386115069824"><ele>76.0</ele><time>2026-03-27T22:06:04Z</time></trkpt><trkpt lat="41.125045819661935" lon="16.712978823406303"><ele>77.0</ele><time>2026-03-27T22:06:05Z</time></trkpt><trkpt lat="41.124758983326245" lon="16.712084046709652"><ele>77.0</ele><time>2026-03-27T22:06:06Z</time></trkpt><trkpt lat="41.1244589034268" lon="16.711196355919338"><ele>77.0</ele><time>2026-03-27T22:06:07Z</time></trkpt><trkpt lat="41.12417967115792" lon="16.710298505707133"><ele>80.0</ele><time>2026-03-27T22:06:08Z</time></trkpt><trkpt lat="41.123912717449166" lon="16.709376814730984"><ele>81.0</ele><time>2026-03-27T22:06:09Z</time></trkpt><trkpt lat="41.1236376891351" lon="16.70847171940451"><ele>84.0</ele><time>2026-03-27T22:06:10Z</time></trkpt><trkpt lat="41.12335155086705" lon="16.707567103584232"><ele>86.0</ele><time>2026-03-27T22:06:11Z</time></trkpt><trkpt lat="41.123740407181415" lon="16.7059374149495"><ele>88.0</ele><time>2026-03-27T22:06:12Z</time></trkpt><trkpt lat="41.12350358628349" lon="16.704992039098702"><ele>90.0</ele><time>2026-03-27T22:06:13Z</time></trkpt><trkpt lat="41.123035202891806" lon="16.70427036251797"><ele>92.0</ele><time>2026-03-27T22:06:14Z</time></trkpt><trkpt lat="41.12275746728069" lon="16.70334022425302"><ele>91.0</ele><time>2026-03-27T22:06:15Z</time></trkpt><trkpt lat="41.12246886844683" lon="16.70240597208673"><ele>93.0</ele><time>2026-03-27T22:06:15.999Z</time></trkpt><trkpt lat="41.122196868323485" lon="16.701462409462028"><ele>93.0</ele><time>2026-03-27T22:06:16.999Z</time></trkpt><trkpt lat="41.12191253523291" lon="16.700498455651417"><ele>92.0</ele><time>2026-03-27T22:06:17.999Z</time></trkpt><trkpt lat="41.1216342572805" lon="16.69955509889553"><ele>96.0</ele><time>2026-03-27T22:06:18.999Z</time></trkpt><trkpt lat="41.12136813938349" lon="16.69859973486226"><ele>98.0</ele><time>2026-03-27T22:06:19.999Z</time></trkpt><trkpt lat="41.121106510003024" lon="16.69764189157477"><ele>97.0</ele><time>2026-03-27T22:06:20.999Z</time></trkpt><trkpt lat="41.1208332756827" lon="16.696680565683337"><ele>100.0</ele><time>2026-03-27T22:06:21.999Z</time></trkpt><trkpt lat="41.120569267575995" lon="16.69571611167031"><ele>101.0</ele><time>2026-03-27T22:06:22.999Z</time></trkpt><trkpt lat="41.12030140166865" lon="16.694749807983754"><ele>101.0</ele><time>2026-03-27T22:06:23.999Z</time></trkpt><trkpt lat="41.1200338157124" lon="16.693791971667096"><ele>102.0</ele><time>2026-03-27T22:06:24.999Z</time></trkpt><trkpt lat="41.11975998977154" lon="16.69284263747423"><ele>106.0</ele><time>2026-03-27T22:06:25.999Z</time></trkpt><trkpt lat="41.1194916251533" lon="16.691873247334787"><ele>108.0</ele><time>2026-03-27T22:06:26.999Z</time></trkpt><trkpt lat="41.11922996287827" lon="16.690906031043255"><ele>111.0</ele><time>2026-03-27T22:06:27.999Z</time></trkpt><trkpt lat="41.11897063230302" lon="16.68992339784105"><ele>109.0</ele><time>2026-03-27T22:06:28.999Z</time></trkpt><trkpt lat="41.11871155734712" lon="16.688955152314897"><ele>111.0</ele><time>2026-03-27T22:06:29.999Z</time></trkpt><trkpt lat="41.1184605842509" lon="16.687979303799825"><ele>112.0</ele><time>2026-03-27T22:06:30.999Z</time></trkpt><trkpt lat="41.11819833070811" lon="16.687003354368542"><ele>112.0</ele><time>2026-03-27T22:06:32Z</time></trkpt><trkpt lat="41.11712230103312" lon="16.687148586427053"><ele>111.0</ele><time>2026-03-27T22:06:33Z</time></trkpt><trkpt lat="41.116856128254994" lon="16.686193288921555"><ele>113.0</ele><time>2026-03-27T22:06:34Z</time></trkpt><trkpt lat="41.116568520491306" lon="16.685257226059154"><ele>111.0</ele><time>2026-03-27T22:06:35Z</time></trkpt><trkpt lat="41.11628165988788" lon="16.684309344765477"><ele>111.0</ele><time>2026-03-27T22:06:36Z</time></trkpt><trkpt lat="41.115999086992765" lon="16.68335767649807"><ele>114.0</ele><time>2026-03-27T22:06:37Z</time></trkpt><trkpt lat="41.11572190874719" lon="16.682412028609722"><ele>115.0</ele><time>2026-03-27T22:06:38Z</time></trkpt><trkpt lat="41.11544394764702" lon="16.681451644901145"><ele>115.0</ele><time>2026-03-27T22:06:39Z</time></trkpt><trkpt lat="41.115175726460286" lon="16.68048807637244"><ele>116.0</ele><time>2026-03-27T22:06:40Z</time></trkpt><trkpt lat="41.11489565492153" lon="16.679537210945156"><ele>116.0</ele><time>2026-03-27T22:06:41Z</time></trkpt><trkpt lat="41.11460395586623" lon="16.678593230831407"><ele>117.0</ele><time>2026-03-27T22:06:42Z</time></trkpt><trkpt lat="41.11433638404288" lon="16.677636900939977"><ele>119.0</ele><time>2026-03-27T22:06:43Z</time></trkpt><trkpt lat="41.1140538069495" lon="16.676676570398428"><ele>119.0</ele><time>2026-03-27T22:06:44Z</time></trkpt><trkpt lat="41.11376793756308" lon="16.675730773968088"><ele>120.0</ele><time>2026-03-27T22:06:45Z</time></trkpt><trkpt lat="41.11348839877898" lon="16.67478687507311"><ele>121.0</ele><time>2026-03-27T22:06:46Z</time></trkpt><trkpt lat="41.11322033483491" lon="16.67381952986806"><ele>121.0</ele><time>2026-03-27T22:06:47Z</time></trkpt><trkpt lat="41.112946641323056" lon="16.672846839132482"><ele>122.0</ele><time>2026-03-27T22:06:48Z</time></trkpt><trkpt lat="41.11267350555693" lon="16.671880105188084"><ele>122.0</ele><time>2026-03-27T22:06:49Z</time></trkpt><trkpt lat="41.11241082738324" lon="16.670913412034317"><ele>125.0</ele><time>2026-03-27T22:06:50Z</time></trkpt><trkpt lat="41.11214000045549" lon="16.669950949445333"><ele>125.0</ele><time>2026-03-27T22:06:51Z</time></trkpt><trkpt lat="41.11185167229579" lon="16.668988006006682"><ele>126.0</ele><time>2026-03-27T22:06:52Z</time></trkpt><trkpt lat="41.11156047341497" lon="16.668032778670668"><ele>126.0</ele><time>2026-03-27T22:06:53Z</time></trkpt><trkpt lat="41.111716617658516" lon="16.666443790383923"><ele>127.0</ele><time>2026-03-27T22:06:54Z</time></trkpt><trkpt lat="41.11144870797032" lon="16.665439152757994"><ele>129.0</ele><time>2026-03-27T22:06:55Z</time></trkpt><trkpt lat="41.11118780304459" lon="16.664414164893355"><ele>128.0</ele><time>2026-03-27T22:06:56Z</time></trkpt><trkpt lat="41.11093229905399" lon="16.66337797193215"><ele>128.0</ele><time>2026-03-27T22:06:57Z</time></trkpt><trkpt lat="41.11066703299237" lon="16.662340757970703"><ele>129.0</ele><time>2026-03-27T22:06:58Z</time></trkpt><trkpt lat="41.11039274998876" lon="16.66129688769239"><ele>127.0</ele><time>2026-03-27T22:06:59Z</time></trkpt><trkpt lat="41.11012791546265" lon="16.660238942998525"><ele>125.0</ele><time>2026-03-27T22:07:00Z</time></trkpt><trkpt lat="41.109859489949315" lon="16.65918590764454"><ele>126.0</ele><time>2026-03-27T22:07:01Z</time></trkpt><trkpt lat="41.10958032876843" lon="16.658132820075444"><ele>126.0</ele><time>2026-03-27T22:07:02Z</time></trkpt><trkpt lat="41.10927677757543" lon="16.657093638141983"><ele>120.0</ele><time>2026-03-27T22:07:03Z</time></trkpt><trkpt lat="41.10898677008595" lon="16.656033288896186"><ele>120.0</ele><time>2026-03-27T22:07:04Z</time></trkpt><trkpt lat="41.10871049528538" lon="16.65495736017816"><ele>121.0</ele><time>2026-03-27T22:07:05Z</time></trkpt><trkpt lat="41.108428662261694" lon="16.6538785324735"><ele>123.0</ele><time>2026-03-27T22:07:06Z</time></trkpt><trkpt lat="41.1081523189701" lon="16.652779538247753"><ele>124.0</ele><time>2026-03-27T22:07:07Z</time></trkpt><trkpt lat="41.10787076601052" lon="16.651680734023284"><ele>124.0</ele><time>2026-03-27T22:07:08Z</time></trkpt><trkpt lat="41.10757502749325" lon="16.650581158783606"><ele>126.0</ele><time>2026-03-27T22:07:09Z</time></trkpt><trkpt lat="41.10731780867038" lon="16.64944636648616"><ele>129.0</ele><time>2026-03-27T22:07:10Z</time></trkpt><trkpt lat="41.107037695219155" lon="16.648325693704177"><ele>132.0</ele><time>2026-03-27T22:07:11Z</time></trkpt><trkpt lat="41.10673347162846" lon="16.64721209542093"><ele>135.0</ele><time>2026-03-27T22:07:12Z</time></trkpt><trkpt lat="41.10643922114795" lon="16.646086147941435"><ele>136.0</ele><time>2026-03-27T22:07:13Z</time></trkpt><trkpt lat="41.106153397009194" lon="16.644943009150477"><ele>137.0</ele><time>2026-03-27T22:07:14Z</time></trkpt><trkpt lat="41.10585826167088" lon="16.643776050658463"><ele>139.0</ele><time>2026-03-27T22:07:15Z</time></trkpt><trkpt lat="41.10556119019324" lon="16.642609752352893"><ele>141.0</ele><time>2026-03-27T22:07:16Z</time></trkpt><trkpt lat="41.104750981617244" lon="16.642419655850688"><ele>142.0</ele><time>2026-03-27T22:07:17Z</time></trkpt><trkpt lat="41.10444518913393" lon="16.64126670442001"><ele>142.0</ele><time>2026-03-27T22:07:18Z</time></trkpt><trkpt lat="41.104142770392166" lon="16.640100164380648"><ele>142.0</ele><time>2026-03-27T22:07:19Z</time></trkpt><trkpt lat="41.10384819862449" lon="16.638924379461674"><ele>145.0</ele><time>2026-03-27T22:07:20Z</time></trkpt><trkpt lat="41.10355110217632" lon="16.63772238782278"><ele>146.0</ele><time>2026-03-27T22:07:21Z</time></trkpt><trkpt lat="41.10325318444716" lon="16.636531880143774"><ele>147.0</ele><time>2026-03-27T22:07:22Z</time></trkpt><trkpt lat="41.10294797596183" lon="16.635326409729103"><ele>150.0</ele><time>2026-03-27T22:07:23Z</time></trkpt><trkpt lat="41.10263673017412" lon="16.63409964010545"><ele>151.0</ele><time>2026-03-27T22:07:24Z</time></trkpt><trkpt lat="41.10232721429116" lon="16.63287210001798"><ele>152.0</ele><time>2026-03-27T22:07:25Z</time></trkpt><trkpt lat="41.102023573208236" lon="16.631639688190113"><ele>152.0</ele><time>2026-03-27T22:07:26Z</time></trkpt><trkpt lat="41.101717464176254" lon="16.630386203623683"><ele>156.0</ele><time>2026-03-27T22:07:27Z</time></trkpt><trkpt lat="41.101400772054" lon="16.629140551147206"><ele>156.0</ele><time>2026-03-27T22:07:28Z</time></trkpt><trkpt lat="41.10108933614843" lon="16.6278791178305"><ele>153.0</ele><time>2026-03-27T22:07:29Z</time></trkpt><trkpt lat="41.10076809655474" lon="16.626624169847535"><ele>157.0</ele><time>2026-03-27T22:07:30Z</time></trkpt><trkpt lat="41.1004327208881" lon="16.625353623934664"><ele>159.0</ele><time>2026-03-27T22:07:31Z</time></trkpt><trkpt lat="41.10009475959834" lon="16.624060906594817"><ele>151.0</ele><time>2026-03-27T22:07:32Z</time></trkpt><trkpt lat="41.099748295200676" lon="16.62278420823281"><ele>145.0</ele><time>2026-03-27T22:07:33Z</time></trkpt><trkpt lat="41.099408846514095" lon="16.621507326248874"><ele>159.0</ele><time>2026-03-27T22:07:34Z</time></trkpt><trkpt lat="41.099056881030585" lon="16.620222050700654"><ele>153.0</ele><time>2026-03-27T22:07:35Z</time></trkpt><trkpt lat="41.09868096814778" lon="16.61892488347477"><ele>149.0</ele><time>2026-03-27T22:07:36Z</time></trkpt><trkpt lat="41.09847007638762" lon="16.617455052358924"><ele>162.0</ele><time>2026-03-27T22:07:37Z</time></trkpt><trkpt lat="41.098152190970566" lon="16.6161210077949"><ele>164.0</ele><time>2026-03-27T22:07:38Z</time></trkpt><trkpt lat="41.09782872156683" lon="16.614791016549173"><ele>167.0</ele><time>2026-03-27T22:07:39Z</time></trkpt><trkpt lat="41.09750792073718" lon="16.613466097076106"><ele>170.0</ele><time>2026-03-27T22:07:40Z</time></trkpt><trkpt lat="41.097160116742664" lon="16.61213061391302"><ele>173.0</ele><time>2026-03-27T22:07:41Z</time></trkpt><trkpt lat="41.09682146083847" lon="16.61079006881144"><ele>175.0</ele><time>2026-03-27T22:07:42Z</time></trkpt><trkpt lat="41.09647629255783" lon="16.609440386556837"><ele>175.0</ele><time>2026-03-27T22:07:43Z</time></trkpt><trkpt lat="41.096143871242546" lon="16.608091856628455"><ele>175.0</ele><time>2026-03-27T22:07:44Z</time></trkpt><trkpt lat="41.09578947814555" lon="16.606743541924068"><ele>177.0</ele><time>2026-03-27T22:07:45Z</time></trkpt><trkpt lat="41.09545943194438" lon="16.605384484444528"><ele>178.0</ele><time>2026-03-27T22:07:46Z</time></trkpt><trkpt lat="41.09513519102135" lon="16.604002168853594"><ele>178.0</ele><time>2026-03-27T22:07:47Z</time></trkpt><trkpt lat="41.094860309403096" lon="16.602628882698976"><ele>178.0</ele><time>2026-03-27T22:07:48Z</time></trkpt><trkpt lat="41.09457724012951" lon="16.601222302024695"><ele>178.0</ele><time>2026-03-27T22:07:49Z</time></trkpt><trkpt lat="41.09429663679026" lon="16.599800920170747"><ele>181.0</ele><time>2026-03-27T22:07:50Z</time></trkpt><trkpt lat="41.094018084858064" lon="16.598392564679656"><ele>179.0</ele><time>2026-03-27T22:07:51Z</time></trkpt><trkpt lat="41.093680706092414" lon="16.596996600884918"><ele>179.0</ele><time>2026-03-27T22:07:52Z</time></trkpt><trkpt lat="41.09335649673121" lon="16.595597803798555"><ele>181.0</ele><time>2026-03-27T22:07:53Z</time></trkpt><trkpt lat="41.09304188367337" lon="16.594218585706052"><ele>184.0</ele><time>2026-03-27T22:07:54Z</time></trkpt><trkpt lat="41.09271349401195" lon="16.592839237886672"><ele>185.0</ele><time>2026-03-27T22:07:55Z</time></trkpt><trkpt lat="41.092360884802034" lon="16.591460497555385"><ele>187.0</ele><time>2026-03-27T22:07:56Z</time></trkpt><trkpt lat="41.09201679243721" lon="16.590076101943623"><ele>188.0</ele><time>2026-03-27T22:07:57Z</time></trkpt><trkpt lat="41.09158456391679" lon="16.588787581763587"><ele>192.0</ele><time>2026-03-27T22:07:58Z</time></trkpt><trkpt lat="41.0912409075295" lon="16.587391128554902"><ele>194.0</ele><time>2026-03-27T22:07:59Z</time></trkpt><trkpt lat="41.090885922277536" lon="16.585995742647466"><ele>197.0</ele><time>2026-03-27T22:08:00Z</time></trkpt><trkpt lat="41.09043644472078" lon="16.584728522685978"><ele>198.0</ele><time>2026-03-27T22:08:01Z</time></trkpt><trkpt lat="41.09011013738609" lon="16.58338780556433"><ele>200.0</ele><time>2026-03-27T22:08:02Z</time></trkpt><trkpt lat="41.089805759434064" lon="16.582058224589613"><ele>198.0</ele><time>2026-03-27T22:08:03Z</time></trkpt><trkpt lat="41.08950793750588" lon="16.580710546613208"><ele>200.0</ele><time>2026-03-27T22:08:04Z</time></trkpt><trkpt lat="41.08923455498032" lon="16.579336423659395"><ele>202.0</ele><time>2026-03-27T22:08:05Z</time></trkpt><trkpt lat="41.08895897852771" lon="16.577945333224076"><ele>203.0</ele><time>2026-03-27T22:08:06Z</time></trkpt><trkpt lat="41.08863983708353" lon="16.57659328884169"><ele>205.0</ele><time>2026-03-27T22:08:07Z</time></trkpt><trkpt lat="41.088310097840775" lon="16.575224240675553"><ele>207.0</ele><time>2026-03-27T22:08:08Z</time></trkpt><trkpt lat="41.08840103486317" lon="16.573735974186974"><ele>211.0</ele><time>2026-03-27T22:08:09Z</time></trkpt><trkpt lat="41.08776914679621" lon="16.5732056491054"><ele>211.0</ele><time>2026-03-27T22:08:10Z</time></trkpt><trkpt lat="41.08764654581274" lon="16.571830088948435"><ele>211.0</ele><time>2026-03-27T22:08:11Z</time></trkpt><trkpt lat="41.0876914579579" lon="16.570397966082194"><ele>208.0</ele><time>2026-03-27T22:08:12Z</time></trkpt><trkpt lat="41.08773137138021" lon="16.568948015784716"><ele>210.0</ele><time>2026-03-27T22:08:13Z</time></trkpt><trkpt lat="41.087834841889" lon="16.56750086602347"><ele>211.0</ele><time>2026-03-27T22:08:14Z</time></trkpt><trkpt lat="41.08797304556483" lon="16.56607893722533"><ele>212.0</ele><time>2026-03-27T22:08:15Z</time></trkpt><trkpt lat="41.08817530202886" lon="16.564675596254975"><ele>212.0</ele><time>2026-03-27T22:08:16Z</time></trkpt><trkpt lat="41.08837036529535" lon="16.56330211715081"><ele>212.0</ele><time>2026-03-27T22:08:17Z</time></trkpt><trkpt lat="41.0886186171372" lon="16.56192703577362"><ele>212.0</ele><time>2026-03-27T22:08:18Z</time></trkpt><trkpt lat="41.08885395645837" lon="16.56054667511135"><ele>214.0</ele><time>2026-03-27T22:08:19Z</time></trkpt><trkpt lat="41.08910279743175" lon="16.55918241597332"><ele>216.0</ele><time>2026-03-27T22:08:20Z</time></trkpt><trkpt lat="41.089379633126164" lon="16.557823238156583"><ele>217.0</ele><time>2026-03-27T22:08:21Z</time></trkpt><trkpt lat="41.08967260980808" lon="16.556473698443828"><ele>214.0</ele><time>2026-03-27T22:08:21.999Z</time></trkpt><trkpt lat="41.0899644907999" lon="16.55512939191706"><ele>215.0</ele><time>2026-03-27T22:08:22.999Z</time></trkpt><trkpt lat="41.09034733151318" lon="16.553762716302103"><ele>215.0</ele><time>2026-03-27T22:08:23.999Z</time></trkpt><trkpt lat="41.09071821410319" lon="16.552395440839003"><ele>215.0</ele><time>2026-03-27T22:08:24.999Z</time></trkpt><trkpt lat="41.09113434724481" lon="16.55109746287411"><ele>214.0</ele><time>2026-03-27T22:08:25.999Z</time></trkpt><trkpt lat="41.091543776850145" lon="16.549806135028597"><ele>216.0</ele><time>2026-03-27T22:08:26.999Z</time></trkpt><trkpt lat="41.09208255719993" lon="16.548548881698842"><ele>216.0</ele><time>2026-03-27T22:08:27.999Z</time></trkpt><trkpt lat="41.09261538824535" lon="16.54731191666922"><ele>216.0</ele><time>2026-03-27T22:08:28.999Z</time></trkpt><trkpt lat="41.093148634267784" lon="16.546040824168163"><ele>218.0</ele><time>2026-03-27T22:08:29.999Z</time></trkpt><trkpt lat="41.09374005537299" lon="16.54481652456516"><ele>214.0</ele><time>2026-03-27T22:08:30.999Z</time></trkpt><trkpt lat="41.09370734087318" lon="16.543301698596725"><ele>217.0</ele><time>2026-03-27T22:08:31.999Z</time></trkpt><trkpt lat="41.094252705050685" lon="16.54207233601575"><ele>213.0</ele><time>2026-03-27T22:08:32.999Z</time></trkpt><trkpt lat="41.09480468845864" lon="16.540897285075907"><ele>213.0</ele><time>2026-03-27T22:08:33.999Z</time></trkpt><trkpt lat="41.095517070973564" lon="16.5398532058107"><ele>215.0</ele><time>2026-03-27T22:08:34.999Z</time></trkpt><trkpt lat="41.09634676679593" lon="16.538857795001583"><ele>217.0</ele><time>2026-03-27T22:08:35.999Z</time></trkpt><trkpt lat="41.097134386428074" lon="16.53776364328226"><ele>217.0</ele><time>2026-03-27T22:08:36.999Z</time></trkpt><trkpt lat="41.09788058924642" lon="16.536667971745548"><ele>217.0</ele><time>2026-03-27T22:08:37.999Z</time></trkpt><trkpt lat="41.09861988628255" lon="16.535586961136488"><ele>218.0</ele><time>2026-03-27T22:08:38.999Z</time></trkpt><trkpt lat="41.09941425994561" lon="16.534704348249342"><ele>220.0</ele><time>2026-03-27T22:08:39.999Z</time></trkpt><trkpt lat="41.10019776155471" lon="16.53378784813682"><ele>221.0</ele><time>2026-03-27T22:08:40.999Z</time></trkpt><trkpt lat="41.100966285063706" lon="16.532926862388226"><ele>221.0</ele><time>2026-03-27T22:08:41.999Z</time></trkpt><trkpt lat="41.10172021471229" lon="16.532097963796364"><ele>220.0</ele><time>2026-03-27T22:08:42.999Z</time></trkpt><trkpt lat="41.102418795417194" lon="16.531169679640467"><ele>220.0</ele><time>2026-03-27T22:08:43.999Z</time></trkpt><trkpt lat="41.10322753795937" lon="16.530290311720677"><ele>218.0</ele><time>2026-03-27T22:08:45Z</time></trkpt><trkpt lat="41.105015079703726" lon="16.530265231210013"><ele>216.0</ele><time>2026-03-27T22:08:46Z</time></trkpt><trkpt lat="41.10613323477601" lon="16.529841073777014"><ele>213.0</ele><time>2026-03-27T22:08:47Z</time></trkpt><trkpt lat="41.107413781290106" lon="16.529566334279032"><ele>213.0</ele><time>2026-03-27T22:08:48Z</time></trkpt><trkpt lat="41.10863853402734" lon="16.52917743875236"><ele>211.0</ele><time>2026-03-27T22:08:49Z</time></trkpt><trkpt lat="41.1099092540213" lon="16.52883584630417"><ele>209.0</ele><time>2026-03-27T22:08:50Z</time></trkpt><trkpt lat="41.11115723760036" lon="16.528559151369763"><ele>207.0</ele><time>2026-03-27T22:08:51Z</time></trkpt><trkpt lat="41.11236251175877" lon="16.52834443111846"><ele>205.0</ele><time>2026-03-27T22:08:52Z</time></trkpt><trkpt lat="41.113724176143535" lon="16.528269257355383"><ele>201.0</ele><time>2026-03-27T22:08:53Z</time></trkpt><trkpt lat="41.114999679791566" lon="16.528011068597635"><ele>201.0</ele><time>2026-03-27T22:08:54Z</time></trkpt><trkpt lat="41.11624282263973" lon="16.52788525950102"><ele>201.0</ele><time>2026-03-27T22:08:55Z</time></trkpt><trkpt lat="41.11744417710175" lon="16.527754744814466"><ele>202.0</ele><time>2026-03-27T22:08:56Z</time></trkpt><trkpt lat="41.11868414402068" lon="16.52771753405693"><ele>203.0</ele><time>2026-03-27T22:08:57Z</time></trkpt><trkpt lat="41.11871240216551" lon="16.526258664654698"><ele>202.0</ele><time>2026-03-27T22:08:58Z</time></trkpt><trkpt lat="41.11977872746195" lon="16.526116073961962"><ele>202.0</ele><time>2026-03-27T22:08:59Z</time></trkpt><trkpt lat="41.12089591477998" lon="16.526134069692766"><ele>199.0</ele><time>2026-03-27T22:09:00Z</time></trkpt><trkpt lat="41.121993336079484" lon="16.526179939828683"><ele>199.0</ele><time>2026-03-27T22:09:01Z</time></trkpt><trkpt lat="41.123069806453564" lon="16.52625280483625"><ele>197.0</ele><time>2026-03-27T22:09:02Z</time></trkpt><trkpt lat="41.12414519448664" lon="16.526411914533504"><ele>194.0</ele><time>2026-03-27T22:09:03Z</time></trkpt><trkpt lat="41.125227046444444" lon="16.526674499025077"><ele>195.0</ele><time>2026-03-27T22:09:04Z</time></trkpt><trkpt lat="41.126311122548394" lon="16.526954875632423"><ele>194.0</ele><time>2026-03-27T22:09:05Z</time></trkpt><trkpt lat="41.12739809127954" lon="16.52726151020017"><ele>191.0</ele><time>2026-03-27T22:09:06Z</time></trkpt><trkpt lat="41.128408011555095" lon="16.527673802379088"><ele>189.0</ele><time>2026-03-27T22:09:07Z</time></trkpt><trkpt lat="41.12941073841998" lon="16.528107155601443"><ele>187.0</ele><time>2026-03-27T22:09:08Z</time></trkpt><trkpt lat="41.13041240971862" lon="16.52855124198884"><ele>184.0</ele><time>2026-03-27T22:09:09Z</time></trkpt><trkpt lat="41.13141272433925" lon="16.52900168727378"><ele>182.0</ele><time>2026-03-27T22:09:10Z</time></trkpt><trkpt lat="41.13241465583065" lon="16.529482290635116"><ele>179.0</ele><time>2026-03-27T22:09:11Z</time></trkpt><trkpt lat="41.13340328644118" lon="16.529991813746054"><ele>179.0</ele><time>2026-03-27T22:09:12Z</time></trkpt><trkpt lat="41.13438499711939" lon="16.530498291297675"><ele>179.0</ele><time>2026-03-27T22:09:13Z</time></trkpt><trkpt lat="41.13534809572912" lon="16.531055172000077"><ele>177.0</ele><time>2026-03-27T22:09:14Z</time></trkpt><trkpt lat="41.136302001440384" lon="16.531657129719168"><ele>176.0</ele><time>2026-03-27T22:09:15Z</time></trkpt><trkpt lat="41.13726322114899" lon="16.532306359221213"><ele>175.0</ele><time>2026-03-27T22:09:16Z</time></trkpt><trkpt lat="41.138244473023974" lon="16.532961032754205"><ele>175.0</ele><time>2026-03-27T22:09:17Z</time></trkpt><trkpt lat="41.13920647259306" lon="16.533626708946944"><ele>174.0</ele><time>2026-03-27T22:09:18Z</time></trkpt><trkpt lat="41.140113257982655" lon="16.534392891825533"><ele>173.0</ele><time>2026-03-27T22:09:19Z</time></trkpt><trkpt lat="41.141027304083515" lon="16.535119143212754"><ele>170.0</ele><time>2026-03-27T22:09:20Z</time></trkpt><trkpt lat="41.141908552871946" lon="16.535846966758722"><ele>169.0</ele><time>2026-03-27T22:09:21Z</time></trkpt><trkpt lat="41.14276109248751" lon="16.53665172027409"><ele>168.0</ele><time>2026-03-27T22:09:22Z</time></trkpt><trkpt lat="41.143650302039035" lon="16.537397551203266"><ele>166.0</ele><time>2026-03-27T22:09:23Z</time></trkpt><trkpt lat="41.14448651735242" lon="16.538624124241736"><ele>164.0</ele><time>2026-03-27T22:09:24Z</time></trkpt><trkpt lat="41.14537651504653" lon="16.539478044248334"><ele>160.0</ele><time>2026-03-27T22:09:25Z</time></trkpt><trkpt lat="41.14624425627139" lon="16.540242550361477"><ele>156.0</ele><time>2026-03-27T22:09:26Z</time></trkpt><trkpt lat="41.14712980374029" lon="16.540994139939354"><ele>151.0</ele><time>2026-03-27T22:09:27Z</time></trkpt><trkpt lat="41.148026327244835" lon="16.541741940134553"><ele>147.0</ele><time>2026-03-27T22:09:28Z</time></trkpt><trkpt lat="41.148892114767094" lon="16.542497135283924"><ele>143.0</ele><time>2026-03-27T22:09:29Z</time></trkpt><trkpt lat="41.14976520838512" lon="16.543242178154273"><ele>141.0</ele><time>2026-03-27T22:09:30Z</time></trkpt><trkpt lat="41.15066253698431" lon="16.543989916433915"><ele>134.0</ele><time>2026-03-27T22:09:31Z</time></trkpt><trkpt lat="41.15158116211904" lon="16.544755450463402"><ele>134.0</ele><time>2026-03-27T22:09:32Z</time></trkpt><trkpt lat="41.1524848089383" lon="16.545493870845178"><ele>130.0</ele><time>2026-03-27T22:09:33Z</time></trkpt><trkpt lat="41.15339277434762" lon="16.54620994957235"><ele>127.0</ele><time>2026-03-27T22:09:34Z</time></trkpt><trkpt lat="41.15430190002418" lon="16.546976501837104"><ele>124.0</ele><time>2026-03-27T22:09:35Z</time></trkpt><trkpt lat="41.155229368977565" lon="16.547677654715045"><ele>119.0</ele><time>2026-03-27T22:09:36Z</time></trkpt><trkpt lat="41.15611778350035" lon="16.548491507382355"><ele>117.0</ele><time>2026-03-27T22:09:37Z</time></trkpt><trkpt lat="41.15703211716082" lon="16.54929639390415"><ele>114.0</ele><time>2026-03-27T22:09:38Z</time></trkpt><trkpt lat="41.1579597410918" lon="16.5500334580035"><ele>110.0</ele><time>2026-03-27T22:09:39Z</time></trkpt><trkpt lat="41.15882630018961" lon="16.550724442852953"><ele>111.0</ele><time>2026-03-27T22:09:40Z</time></trkpt><trkpt lat="41.15970600962219" lon="16.551408821329524"><ele>107.0</ele><time>2026-03-27T22:09:41Z</time></trkpt><trkpt lat="41.16061187778963" lon="16.55211125190148"><ele>102.0</ele><time>2026-03-27T22:09:42Z</time></trkpt><trkpt lat="41.16153829575102" lon="16.5528216697665"><ele>99.0</ele><time>2026-03-27T22:09:43Z</time></trkpt><trkpt lat="41.16242610773648" lon="16.553612204089287"><ele>97.0</ele><time>2026-03-27T22:09:44Z</time></trkpt><trkpt lat="41.163338460670374" lon="16.554379620192"><ele>97.0</ele><time>2026-03-27T22:09:45Z</time></trkpt><trkpt lat="41.164270736735396" lon="16.555126552278754"><ele>96.0</ele><time>2026-03-27T22:09:46Z</time></trkpt><trkpt lat="41.16520562925433" lon="16.55588519533506"><ele>92.0</ele><time>2026-03-27T22:09:47Z</time></trkpt><trkpt lat="41.16742020635958" lon="16.556488602340874"><ele>88.0</ele><time>2026-03-27T22:09:49Z</time></trkpt><trkpt lat="41.16834205143947" lon="16.55720277327262"><ele>86.0</ele><time>2026-03-27T22:09:50Z</time></trkpt><trkpt lat="41.169262607534755" lon="16.55789767515445"><ele>87.0</ele><time>2026-03-27T22:09:51Z</time></trkpt><trkpt lat="41.17017110432312" lon="16.558579395637924"><ele>86.0</ele><time>2026-03-27T22:09:52Z</time></trkpt><trkpt lat="41.171101180829204" lon="16.559312770845942"><ele>87.0</ele><time>2026-03-27T22:09:53Z</time></trkpt><trkpt lat="41.17206261197894" lon="16.560186761807863"><ele>85.0</ele><time>2026-03-27T22:09:54Z</time></trkpt><trkpt lat="41.17301278253235" lon="16.56100592645606"><ele>78.0</ele><time>2026-03-27T22:09:55Z</time></trkpt><trkpt lat="41.17487286864025" lon="16.562502022037457"><ele>76.0</ele><time>2026-03-27T22:09:57Z</time></trkpt><trkpt lat="41.175850247346055" lon="16.56322870755544"><ele>76.0</ele><time>2026-03-27T22:09:58Z</time></trkpt><trkpt lat="41.176817520752536" lon="16.563978277541327"><ele>75.0</ele><time>2026-03-27T22:09:59Z</time></trkpt><trkpt lat="41.17778573609463" lon="16.564704491859462"><ele>73.0</ele><time>2026-03-27T22:10:00Z</time></trkpt><trkpt lat="41.178730925358664" lon="16.565416139139437"><ele>71.0</ele><time>2026-03-27T22:10:01Z</time></trkpt><trkpt lat="41.17969562869868" lon="16.566129761143433"><ele>70.0</ele><time>2026-03-27T22:10:02Z</time></trkpt><trkpt lat="41.1806554172707" lon="16.566853716288836"><ele>65.0</ele><time>2026-03-27T22:10:03Z</time></trkpt><trkpt lat="41.181629896948905" lon="16.567580182069538"><ele>63.0</ele><time>2026-03-27T22:10:04Z</time></trkpt><trkpt lat="41.182592479117844" lon="16.568270751408207"><ele>62.0</ele><time>2026-03-27T22:10:05Z</time></trkpt><trkpt lat="41.1835724447739" lon="16.5690333907038"><ele>60.0</ele><time>2026-03-27T22:10:06Z</time></trkpt><trkpt lat="41.18453593773884" lon="16.569780805040764"><ele>57.0</ele><time>2026-03-27T22:10:07Z</time></trkpt><trkpt lat="41.18549521687545" lon="16.570545034613765"><ele>55.0</ele><time>2026-03-27T22:10:08Z</time></trkpt><trkpt lat="41.18648363529425" lon="16.571292689336534"><ele>52.0</ele><time>2026-03-27T22:10:09Z</time></trkpt><trkpt lat="41.18746811212238" lon="16.572036304355663"><ele>51.0</ele><time>2026-03-27T22:10:10Z</time></trkpt><trkpt lat="41.18842873643515" lon="16.5727877722725"><ele>50.0</ele><time>2026-03-27T22:10:11Z</time></trkpt><trkpt lat="41.18940765058144" lon="16.57352693613688"><ele>47.0</ele><time>2026-03-27T22:10:12Z</time></trkpt><trkpt lat="41.19045440266056" lon="16.575081082687127"><ele>43.0</ele><time>2026-03-27T22:10:13Z</time></trkpt><trkpt lat="41.19144283476487" lon="16.575893664800923"><ele>44.0</ele><time>2026-03-27T22:10:14Z</time></trkpt><trkpt lat="41.19242870327303" lon="16.576703016654893"><ele>42.0</ele><time>2026-03-27T22:10:15Z</time></trkpt><trkpt lat="41.1934037127977" lon="16.577506892950442"><ele>36.0</ele><time>2026-03-27T22:10:16Z</time></trkpt><trkpt lat="41.194380738159055" lon="16.578305055137392"><ele>31.0</ele><time>2026-03-27T22:10:17Z</time></trkpt><trkpt lat="41.19530758355356" lon="16.57900935995022"><ele>31.0</ele><time>2026-03-27T22:10:18Z</time></trkpt><trkpt lat="41.19625203632411" lon="16.579709103413744"><ele>28.0</ele><time>2026-03-27T22:10:19Z</time></trkpt><trkpt lat="41.19723495251525" lon="16.580499618720676"><ele>23.0</ele><time>2026-03-27T22:10:20Z</time></trkpt><trkpt lat="41.19821524767736" lon="16.58129374331815"><ele>22.0</ele><time>2026-03-27T22:10:21Z</time></trkpt><trkpt lat="41.19919806474471" lon="16.582093897116916"><ele>21.0</ele><time>2026-03-27T22:10:22Z</time></trkpt><trkpt lat="41.20017953725821" lon="16.58288254128092"><ele>16.0</ele><time>2026-03-27T22:10:23Z</time></trkpt><trkpt lat="41.20117482464103" lon="16.583680461971902"><ele>14.0</ele><time>2026-03-27T22:10:24Z</time></trkpt><trkpt lat="41.20213852573407" lon="16.584428746613472"><ele>13.0</ele><time>2026-03-27T22:10:25Z</time></trkpt><trkpt lat="41.20309607158789" lon="16.585211136244048"><ele>7.0</ele><time>2026-03-27T22:10:26Z</time></trkpt><trkpt lat="41.20403828575044" lon="16.585994460462118"><ele>6.0</ele><time>2026-03-27T22:10:27Z</time></trkpt><trkpt lat="41.20496976430986" lon="16.586837206753184"><ele>2.0</ele><time>2026-03-27T22:10:27.999Z</time></trkpt><trkpt lat="41.20586851024741" lon="16.58776058529441"><ele>0.0</ele><time>2026-03-27T22:10:28.999Z</time></trkpt><trkpt lat="41.20673008509249" lon="16.5886395159048"><ele>0.0</ele><time>2026-03-27T22:10:30Z</time></trkpt><trkpt lat="41.207579908581465" lon="16.58952217835919"><ele>0.0</ele><time>2026-03-27T22:10:31Z</time></trkpt><trkpt lat="41.20841843529478" lon="16.590508399154498"><ele>0.0</ele><time>2026-03-27T22:10:32Z</time></trkpt><trkpt lat="41.20922182338597" lon="16.591515717978975"><ele>0.0</ele><time>2026-03-27T22:10:33Z</time></trkpt><trkpt lat="41.21002268231548" lon="16.592537932366533"><ele>0.0</ele><time>2026-03-27T22:10:34Z</time></trkpt><trkpt lat="41.21082016075242" lon="16.593649890965604"><ele>0.0</ele><time>2026-03-27T22:10:35Z</time></trkpt><trkpt lat="41.21160314535106" lon="16.594804667201352"><ele>0.0</ele><time>2026-03-27T22:10:36Z</time></trkpt><trkpt lat="41.21234094269484" lon="16.59603001960941"><ele>0.0</ele><time>2026-03-27T22:10:37Z</time></trkpt><trkpt lat="41.21306750721081" lon="16.597278712035166"><ele>0.0</ele><time>2026-03-27T22:10:38Z</time></trkpt><trkpt lat="41.21375078741459" lon="16.598528399523996"><ele>0.0</ele><time>2026-03-27T22:10:39Z</time></trkpt><trkpt lat="41.214403155680785" lon="16.599725010067672"><ele>0.0</ele><time>2026-03-27T22:10:40Z</time></trkpt><trkpt lat="41.21498385824217" lon="16.601020517617226"><ele>0.0</ele><time>2026-03-27T22:10:41Z</time></trkpt><trkpt lat="41.215765015127914" lon="16.602289016691632"><ele>0.0</ele><time>2026-03-27T22:10:42Z</time></trkpt><trkpt lat="41.21628206413911" lon="16.60368575984361"><ele>0.0</ele><time>2026-03-27T22:10:43Z</time></trkpt><trkpt lat="41.21683343914841" lon="16.605073685179697"><ele>0.0</ele><time>2026-03-27T22:10:44Z</time></trkpt><trkpt lat="41.21738333694754" lon="16.606510861148266"><ele>0.0</ele><time>2026-03-27T22:10:45Z</time></trkpt><trkpt lat="41.21797451991358" lon="16.607922200053686"><ele>0.0</ele><time>2026-03-27T22:10:46Z</time></trkpt><trkpt lat="41.21852521055783" lon="16.609391834083947"><ele>0.0</ele><time>2026-03-27T22:10:47Z</time></trkpt><trkpt lat="41.21905351957421" lon="16.61086157664081"><ele>0.0</ele><time>2026-03-27T22:10:48Z</time></trkpt><trkpt lat="41.219457153643404" lon="16.61237541666054"><ele>0.0</ele><time>2026-03-27T22:10:49Z</time></trkpt><trkpt lat="41.21991314840787" lon="16.613868276538177"><ele>0.0</ele><time>2026-03-27T22:10:50Z</time></trkpt><trkpt lat="41.220441510688154" lon="16.61534712169551"><ele>0.0</ele><time>2026-03-27T22:10:51Z</time></trkpt><trkpt lat="41.22094063231373" lon="16.616848268799163"><ele>0.0</ele><time>2026-03-27T22:10:52Z</time></trkpt><trkpt lat="41.22143487561722" lon="16.618355467380916"><ele>0.0</ele><time>2026-03-27T22:10:53Z</time></trkpt><trkpt lat="41.2219366407058" lon="16.619888047398376"><ele>0.0</ele><time>2026-03-27T22:10:54Z</time></trkpt><trkpt lat="41.22243407793379" lon="16.621434753565946"><ele>0.0</ele><time>2026-03-27T22:10:55Z</time></trkpt><trkpt lat="41.22292897881774" lon="16.6229951929522"><ele>0.0</ele><time>2026-03-27T22:10:56Z</time></trkpt><trkpt lat="41.22345037068161" lon="16.624555397889345"><ele>0.0</ele><time>2026-03-27T22:10:57Z</time></trkpt><trkpt lat="41.22394406719442" lon="16.62611802514267"><ele>0.0</ele><time>2026-03-27T22:10:58Z</time></trkpt><trkpt lat="41.224439870406925" lon="16.62767874298325"><ele>0.0</ele><time>2026-03-27T22:10:59Z</time></trkpt><trkpt lat="41.22493438676233" lon="16.629239299234428"><ele>0.0</ele><time>2026-03-27T22:11:00Z</time></trkpt><trkpt lat="41.225431505069054" lon="16.63082286732581"><ele>0.0</ele><time>2026-03-27T22:11:01Z</time></trkpt><trkpt lat="41.22578642881361" lon="16.632475603904695"><ele>0.0</ele><time>2026-03-27T22:11:02Z</time></trkpt><trkpt lat="41.22618397727728" lon="16.63410871029267"><ele>0.0</ele><time>2026-03-27T22:11:03Z</time></trkpt><trkpt lat="41.22664828327907" lon="16.63572704269552"><ele>0.0</ele><time>2026-03-27T22:11:04Z</time></trkpt><trkpt lat="41.22704215574454" lon="16.63736727610922"><ele>0.0</ele><time>2026-03-27T22:11:05Z</time></trkpt><trkpt lat="41.22749175684294" lon="16.63900330986881"><ele>0.0</ele><time>2026-03-27T22:11:06Z</time></trkpt><trkpt lat="41.22796355804831" lon="16.64062208592183"><ele>0.0</ele><time>2026-03-27T22:11:07Z</time></trkpt><trkpt lat="41.228448452536" lon="16.642243334427256"><ele>0.0</ele><time>2026-03-27T22:11:08Z</time></trkpt><trkpt lat="41.22893522674064" lon="16.643857090010165"><ele>0.0</ele><time>2026-03-27T22:11:09Z</time></trkpt><trkpt lat="41.229429028573406" lon="16.645501433664094"><ele>0.0</ele><time>2026-03-27T22:11:10Z</time></trkpt><trkpt lat="41.22989236624946" lon="16.647162428456475"><ele>0.0</ele><time>2026-03-27T22:11:11Z</time></trkpt><trkpt lat="41.23039185399294" lon="16.648852136623898"><ele>0.0</ele><time>2026-03-27T22:11:12Z</time></trkpt><trkpt lat="41.23089563863421" lon="16.650519538449064"><ele>0.0</ele><time>2026-03-27T22:11:13Z</time></trkpt><trkpt lat="41.23143433828984" lon="16.652198216493908"><ele>0.0</ele><time>2026-03-27T22:11:14Z</time></trkpt><trkpt lat="41.231965419101876" lon="16.653887685068337"><ele>0.0</ele><time>2026-03-27T22:11:15Z</time></trkpt><trkpt lat="41.23251266490424" lon="16.65557117734531"><ele>0.0</ele><time>2026-03-27T22:11:16Z</time></trkpt><trkpt lat="41.23306315970488" lon="16.657261289801287"><ele>0.0</ele><time>2026-03-27T22:11:17Z</time></trkpt><trkpt lat="41.23358631225759" lon="16.658967374880007"><ele>0.0</ele><time>2026-03-27T22:11:18Z</time></trkpt><trkpt lat="41.234100848245205" lon="16.660670642240166"><ele>0.0</ele><time>2026-03-27T22:11:19Z</time></trkpt><trkpt lat="41.23461862358282" lon="16.66237810851781"><ele>0.0</ele><time>2026-03-27T22:11:20Z</time></trkpt><trkpt lat="41.235134353904414" lon="16.66409527603499"><ele>0.0</ele><time>2026-03-27T22:11:21Z</time></trkpt><trkpt lat="41.23562724224314" lon="16.665803151656007"><ele>0.0</ele><time>2026-03-27T22:11:22Z</time></trkpt><trkpt lat="41.236159329793225" lon="16.66749702983398"><ele>0.0</ele><time>2026-03-27T22:11:23Z</time></trkpt><trkpt lat="41.236692180244674" lon="16.66921075241945"><ele>0.0</ele><time>2026-03-27T22:11:24Z</time></trkpt><trkpt lat="41.23734037565627" lon="16.670932291674152"><ele>0.0</ele><time>2026-03-27T22:11:25Z</time></trkpt><trkpt lat="41.23791944930501" lon="16.672657642647227"><ele>0.0</ele><time>2026-03-27T22:11:26Z</time></trkpt><trkpt lat="41.238531359059905" lon="16.67439651620981"><ele>0.0</ele><time>2026-03-27T22:11:27Z</time></trkpt><trkpt lat="41.23911585995104" lon="16.67613967690279"><ele>0.0</ele><time>2026-03-27T22:11:28Z</time></trkpt><trkpt lat="41.23975160583372" lon="16.67787938747989"><ele>0.0</ele><time>2026-03-27T22:11:29Z</time></trkpt><trkpt lat="41.240376532946605" lon="16.679621890824258"><ele>0.0</ele><time>2026-03-27T22:11:30Z</time></trkpt><trkpt lat="41.240964905897975" lon="16.681363878719846"><ele>0.0</ele><time>2026-03-27T22:11:31Z</time></trkpt><trkpt lat="41.24157460489887" lon="16.683101087539026"><ele>0.0</ele><time>2026-03-27T22:11:32Z</time></trkpt><trkpt lat="41.242148242001605" lon="16.68485160770095"><ele>0.0</ele><time>2026-03-27T22:11:33Z</time></trkpt><trkpt lat="41.24275377286926" lon="16.68660546648201"><ele>0.0</ele><time>2026-03-27T22:11:34Z</time></trkpt><trkpt lat="41.243348296070906" lon="16.688350719499876"><ele>0.0</ele><time>2026-03-27T22:11:35Z</time></trkpt><trkpt lat="41.24395764904017" lon="16.690107450863746"><ele>0.0</ele><time>2026-03-27T22:11:36Z</time></trkpt><trkpt lat="41.244574957098415" lon="16.691885331214348"><ele>0.0</ele><time>2026-03-27T22:11:37Z</time></trkpt><trkpt lat="41.245165044992724" lon="16.69369108730844"><ele>0.0</ele><time>2026-03-27T22:11:38Z</time></trkpt><trkpt lat="41.24582271820555" lon="16.695467796140175"><ele>0.0</ele><time>2026-03-27T22:11:39Z</time></trkpt><trkpt lat="41.246453274821604" lon="16.697277008848527"><ele>0.0</ele><time>2026-03-27T22:11:40Z</time></trkpt><trkpt lat="41.247042547204956" lon="16.699092202969318"><ele>0.0</ele><time>2026-03-27T22:11:41Z</time></trkpt><trkpt lat="41.248708921483065" lon="16.700738127896535"><ele>0.0</ele><time>2026-03-27T22:11:42Z</time></trkpt><trkpt lat="41.24933082911034" lon="16.7025462579862"><ele>0.0</ele><time>2026-03-27T22:11:43Z</time></trkpt><trkpt lat="41.24997019887838" lon="16.70435469946362"><ele>0.0</ele><time>2026-03-27T22:11:44Z</time></trkpt><trkpt lat="41.25060566778643" lon="16.706175721466167"><ele>0.0</ele><time>2026-03-27T22:11:45Z</time></trkpt><trkpt lat="41.25123719021935" lon="16.70799532723413"><ele>0.0</ele><time>2026-03-27T22:11:46Z</time></trkpt><trkpt lat="41.25188447030515" lon="16.709827589426354"><ele>0.0</ele><time>2026-03-27T22:11:47Z</time></trkpt><trkpt lat="41.25252486535601" lon="16.71165487939468"><ele>0.0</ele><time>2026-03-27T22:11:48Z</time></trkpt><trkpt lat="41.25318276087337" lon="16.713480818368478"><ele>0.0</ele><time>2026-03-27T22:11:49Z</time></trkpt><trkpt lat="41.25383881350937" lon="16.715314421549863"><ele>0.0</ele><time>2026-03-27T22:11:50Z</time></trkpt><trkpt lat="41.2544851202803" lon="16.71715499855722"><ele>0.0</ele><time>2026-03-27T22:11:51Z</time></trkpt><trkpt lat="41.255110563970824" lon="16.718994799181818"><ele>0.0</ele><time>2026-03-27T22:11:52Z</time></trkpt><trkpt lat="41.255753775842095" lon="16.72084482235285"><ele>0.0</ele><time>2026-03-27T22:11:53Z</time></trkpt><trkpt lat="41.25638533617839" lon="16.722706261952613"><ele>0.0</ele><time>2026-03-27T22:11:54Z</time></trkpt><trkpt lat="41.257038292246726" lon="16.724550018342818"><ele>0.0</ele><time>2026-03-27T22:11:55Z</time></trkpt><trkpt lat="41.25766415186943" lon="16.72640196319635"><ele>0.0</ele><time>2026-03-27T22:11:56Z</time></trkpt><trkpt lat="41.258351320047396" lon="16.72826193481448"><ele>0.0</ele><time>2026-03-27T22:11:57Z</time></trkpt><trkpt lat="41.25902550323245" lon="16.730140930991663"><ele>0.0</ele><time>2026-03-27T22:11:58Z</time></trkpt><trkpt lat="41.25972221641844" lon="16.731981867065546"><ele>0.0</ele><time>2026-03-27T22:11:59Z</time></trkpt><trkpt lat="41.26041439034303" lon="16.73383454308922"><ele>0.0</ele><time>2026-03-27T22:12:00Z</time></trkpt><trkpt lat="41.261110426145144" lon="16.73568803820363"><ele>0.0</ele><time>2026-03-27T22:12:01Z</time></trkpt><trkpt lat="41.26596998612057" lon="16.75055829747571"><ele>0.0</ele><time>2026-03-27T22:12:09Z</time></trkpt><trkpt lat="41.26661163837153" lon="16.752416947500418"><ele>0.0</ele><time>2026-03-27T22:12:10Z</time></trkpt><trkpt lat="41.26792279309328" lon="16.756095141149626"><ele>0.0</ele><time>2026-03-27T22:12:12Z</time></trkpt><trkpt lat="41.26855359386305" lon="16.75794978722584"><ele>0.0</ele><time>2026-03-27T22:12:13Z</time></trkpt><trkpt lat="41.269230889873555" lon="16.759785434694248"><ele>0.0</ele><time>2026-03-27T22:12:14Z</time></trkpt><trkpt lat="41.26990355224664" lon="16.761631584510887"><ele>0.0</ele><time>2026-03-27T22:12:15Z</time></trkpt><trkpt lat="41.27057253055246" lon="16.763477973768232"><ele>0.0</ele><time>2026-03-27T22:12:16Z</time></trkpt><trkpt lat="41.27123987772369" lon="16.7653244034551"><ele>0.0</ele><time>2026-03-27T22:12:17Z</time></trkpt><trkpt lat="41.27192541897476" lon="16.767170150471944"><ele>0.0</ele><time>2026-03-27T22:12:18Z</time></trkpt><trkpt lat="41.272600427539054" lon="16.769021356939213"><ele>0.0</ele><time>2026-03-27T22:12:19Z</time></trkpt><trkpt lat="41.27329379000379" lon="16.770862420705704"><ele>0.0</ele><time>2026-03-27T22:12:20Z</time></trkpt><trkpt lat="41.27398907461693" lon="16.77269710833607"><ele>0.0</ele><time>2026-03-27T22:12:21Z</time></trkpt><trkpt lat="41.27467163116308" lon="16.774544224358934"><ele>0.0</ele><time>2026-03-27T22:12:22Z</time></trkpt><trkpt lat="41.275351252355115" lon="16.776403633767107"><ele>0.0</ele><time>2026-03-27T22:12:23Z</time></trkpt><trkpt lat="41.27605266705125" lon="16.778248268346488"><ele>0.0</ele><time>2026-03-27T22:12:24.001Z</time></trkpt><trkpt lat="41.27674925503782" lon="16.780111432611527"><ele>0.0</ele><time>2026-03-27T22:12:25.001Z</time></trkpt><trkpt lat="41.277434830518764" lon="16.78197349434606"><ele>0.0</ele><time>2026-03-27T22:12:26.001Z</time></trkpt><trkpt lat="41.27811697916136" lon="16.783845000175177"><ele>0.0</ele><time>2026-03-27T22:12:27.001Z</time></trkpt><trkpt lat="41.278793443819474" lon="16.78571305712811"><ele>0.0</ele><time>2026-03-27T22:12:28.001Z</time></trkpt><trkpt lat="41.2794651740129" lon="16.787571722152137"><ele>0.0</ele><time>2026-03-27T22:12:29.001Z</time></trkpt><trkpt lat="41.28012101662226" lon="16.78944493584128"><ele>0.0</ele><time>2026-03-27T22:12:30.001Z</time></trkpt><trkpt lat="41.280767750183266" lon="16.791314443443945"><ele>0.0</ele><time>2026-03-27T22:12:31.001Z</time></trkpt><trkpt lat="41.28141969870569" lon="16.793180656807152"><ele>0.0</ele><time>2026-03-27T22:12:32.001Z</time></trkpt><trkpt lat="41.28209810927051" lon="16.795040146730962"><ele>0.0</ele><time>2026-03-27T22:12:33.001Z</time></trkpt><trkpt lat="41.282780890175" lon="16.796906168869327"><ele>0.0</ele><time>2026-03-27T22:12:34Z</time></trkpt><trkpt lat="41.28345424162975" lon="16.79876799359154"><ele>0.0</ele><time>2026-03-27T22:12:35Z</time></trkpt><trkpt lat="41.28412735275388" lon="16.800634239562036"><ele>0.0</ele><time>2026-03-27T22:12:36Z</time></trkpt><trkpt lat="41.28479837841759" lon="16.80251359310781"><ele>0.0</ele><time>2026-03-27T22:12:37Z</time></trkpt><trkpt lat="41.28545123859644" lon="16.804399143848517"><ele>0.0</ele><time>2026-03-27T22:12:38Z</time></trkpt><trkpt lat="41.28613256711654" lon="16.806268210351636"><ele>0.0</ele><time>2026-03-27T22:12:39Z</time></trkpt><trkpt lat="41.2868203799834" lon="16.808140446957076"><ele>0.0</ele><time>2026-03-27T22:12:40Z</time></trkpt><trkpt lat="41.28749421365174" lon="16.810028935332845"><ele>0.0</ele><time>2026-03-27T22:12:41Z</time></trkpt><trkpt lat="41.288166365752126" lon="16.811910370408512"><ele>0.0</ele><time>2026-03-27T22:12:42Z</time></trkpt><trkpt lat="41.288871568551244" lon="16.81378686156687"><ele>0.0</ele><time>2026-03-27T22:12:43Z</time></trkpt><trkpt lat="41.28956155772111" lon="16.815673748862146"><ele>0.0</ele><time>2026-03-27T22:12:44Z</time></trkpt><trkpt lat="41.29024051485681" lon="16.817567387576403"><ele>0.0</ele><time>2026-03-27T22:12:45Z</time></trkpt><trkpt lat="41.29090334943326" lon="16.819451668663746"><ele>0.0</ele><time>2026-03-27T22:12:46Z</time></trkpt><trkpt lat="41.291530458217856" lon="16.821355253706344"><ele>0.0</ele><time>2026-03-27T22:12:47Z</time></trkpt><trkpt lat="41.29216728089411" lon="16.82325337984358"><ele>0.0</ele><time>2026-03-27T22:12:48Z</time></trkpt><trkpt lat="41.29281219088379" lon="16.825166861879403"><ele>0.0</ele><time>2026-03-27T22:12:49Z</time></trkpt><trkpt lat="41.29345418500744" lon="16.82707869200202"><ele>0.0</ele><time>2026-03-27T22:12:50Z</time></trkpt><trkpt lat="41.29411072285622" lon="16.828998288150462"><ele>0.0</ele><time>2026-03-27T22:12:51Z</time></trkpt><trkpt lat="41.29478718398695" lon="16.830919562308022"><ele>0.0</ele><time>2026-03-27T22:12:52Z</time></trkpt><trkpt lat="41.29545494177837" lon="16.832834127980234"><ele>0.0</ele><time>2026-03-27T22:12:53Z</time></trkpt><trkpt lat="41.29612684494307" lon="16.834748263111436"><ele>0.0</ele><time>2026-03-27T22:12:54Z</time></trkpt><trkpt lat="41.29680939523212" lon="16.836658069580412"><ele>0.0</ele><time>2026-03-27T22:12:55Z</time></trkpt><trkpt lat="41.29749623269766" lon="16.838561647366788"><ele>0.0</ele><time>2026-03-27T22:12:56Z</time></trkpt><trkpt lat="41.29819240952209" lon="16.840467284449552"><ele>0.0</ele><time>2026-03-27T22:12:57Z</time></trkpt><trkpt lat="41.29886696956137" lon="16.84237661241433"><ele>0.0</ele><time>2026-03-27T22:12:58Z</time></trkpt><trkpt lat="41.2995294206612" lon="16.844286066583788"><ele>0.0</ele><time>2026-03-27T22:12:59Z</time></trkpt><trkpt lat="41.300206074521505" lon="16.84619377712879"><ele>0.0</ele><time>2026-03-27T22:13:00Z</time></trkpt><trkpt lat="41.300848795077655" lon="16.848111754304057"><ele>0.0</ele><time>2026-03-27T22:13:01Z</time></trkpt><trkpt lat="41.3014817876909" lon="16.850026052519976"><ele>0.0</ele><time>2026-03-27T22:13:02Z</time></trkpt><trkpt lat="41.30213715653625" lon="16.851936751871765"><ele>0.0</ele><time>2026-03-27T22:13:03Z</time></trkpt><trkpt lat="41.30278544992684" lon="16.85384355851081"><ele>0.0</ele><time>2026-03-27T22:13:04Z</time></trkpt><trkpt lat="41.30343300837838" lon="16.855753935743234"><ele>0.0</ele><time>2026-03-27T22:13:05Z</time></trkpt><trkpt lat="41.304894323175496" lon="16.857798718751496"><ele>0.0</ele><time>2026-03-27T22:13:06Z</time></trkpt><trkpt lat="41.3055810816935" lon="16.859713797565924"><ele>0.0</ele><time>2026-03-27T22:13:07Z</time></trkpt><trkpt lat="41.30626932020966" lon="16.86162978692863"><ele>0.0</ele><time>2026-03-27T22:13:08Z</time></trkpt><trkpt lat="41.30695027331543" lon="16.86354732779712"><ele>0.0</ele><time>2026-03-27T22:13:09Z</time></trkpt><trkpt lat="41.30762987230117" lon="16.865464077696334"><ele>0.0</ele><time>2026-03-27T22:13:10Z</time></trkpt><trkpt lat="41.308306941456735" lon="16.867382015442722"><ele>0.0</ele><time>2026-03-27T22:13:11Z</time></trkpt><trkpt lat="41.30899297548978" lon="16.869305403040368"><ele>0.0</ele><time>2026-03-27T22:13:12Z</time></trkpt><trkpt lat="41.30967918411398" lon="16.871233835274232"><ele>0.0</ele><time>2026-03-27T22:13:13Z</time></trkpt><trkpt lat="41.31037637995679" lon="16.87315768742865"><ele>0.0</ele><time>2026-03-27T22:13:14Z</time></trkpt><trkpt lat="41.31106259007444" lon="16.875082849427493"><ele>0.0</ele><time>2026-03-27T22:13:15Z</time></trkpt><trkpt lat="41.311751715255376" lon="16.877008291735436"><ele>0.0</ele><time>2026-03-27T22:13:16Z</time></trkpt><trkpt lat="41.31244150706258" lon="16.87893991080281"><ele>0.0</ele><time>2026-03-27T22:13:17.001Z</time></trkpt><trkpt lat="41.31313018097017" lon="16.880873248921894"><ele>0.0</ele><time>2026-03-27T22:13:18.001Z</time></trkpt><trkpt lat="41.31381748143657" lon="16.88280891598943"><ele>0.0</ele><time>2026-03-27T22:13:19.001Z</time></trkpt><trkpt lat="41.31450560391374" lon="16.884741406141423"><ele>0.0</ele><time>2026-03-27T22:13:20.001Z</time></trkpt><trkpt lat="41.31519800328608" lon="16.886676169435315"><ele>0.0</ele><time>2026-03-27T22:13:21.001Z</time></trkpt><trkpt lat="41.315895296461996" lon="16.88861466143603"><ele>0.0</ele><time>2026-03-27T22:13:22.001Z</time></trkpt><trkpt lat="41.31658061935302" lon="16.890562178443712"><ele>0.0</ele><time>2026-03-27T22:13:23.001Z</time></trkpt><trkpt lat="41.31726540704739" lon="16.892498735823477"><ele>0.0</ele><time>2026-03-27T22:13:24.001Z</time></trkpt><trkpt lat="41.31795049053746" lon="16.894442656044625"><ele>0.0</ele><time>2026-03-27T22:13:25.001Z</time></trkpt><trkpt lat="41.318611190435035" lon="16.896382922186813"><ele>0.0</ele><time>2026-03-27T22:13:26.001Z</time></trkpt><trkpt lat="41.31930712044387" lon="16.898326350890127"><ele>0.0</ele><time>2026-03-27T22:13:27.001Z</time></trkpt><trkpt lat="41.32000209853368" lon="16.900269582635712"><ele>0.0</ele><time>2026-03-27T22:13:28.001Z</time></trkpt><trkpt lat="41.32068901183275" lon="16.902216725439644"><ele>0.0</ele><time>2026-03-27T22:13:29.001Z</time></trkpt><trkpt lat="41.321380061610604" lon="16.904166241371144"><ele>0.0</ele><time>2026-03-27T22:13:30.001Z</time></trkpt><trkpt lat="41.32207761312923" lon="16.90611067788148"><ele>0.0</ele><time>2026-03-27T22:13:31.001Z</time></trkpt><trkpt lat="41.32276508519001" lon="16.908059855001312"><ele>0.0</ele><time>2026-03-27T22:13:32.001Z</time></trkpt><trkpt lat="41.323454085304846" lon="16.91001404538804"><ele>0.0</ele><time>2026-03-27T22:13:33.001Z</time></trkpt><trkpt lat="41.32415525997769" lon="16.91196451953654"><ele>0.0</ele><time>2026-03-27T22:13:34.001Z</time></trkpt><trkpt lat="41.32484946811018" lon="16.913916118427665"><ele>0.0</ele><time>2026-03-27T22:13:35.001Z</time></trkpt><trkpt lat="41.325539475346346" lon="16.915873212495562"><ele>0.0</ele><time>2026-03-27T22:13:36.001Z</time></trkpt><trkpt lat="41.32623373746078" lon="16.917830487320803"><ele>0.0</ele><time>2026-03-27T22:13:37.001Z</time></trkpt><trkpt lat="41.326929749381314" lon="16.919793429677174"><ele>0.0</ele><time>2026-03-27T22:13:38.001Z</time></trkpt><trkpt lat="41.327624954842946" lon="16.921758037259632"><ele>0.0</ele><time>2026-03-27T22:13:39.001Z</time></trkpt><trkpt lat="41.328325210633324" lon="16.92372070443597"><ele>0.0</ele><time>2026-03-27T22:13:40.001Z</time></trkpt><trkpt lat="41.32903595447179" lon="16.925684521834285"><ele>0.0</ele><time>2026-03-27T22:13:41.001Z</time></trkpt><trkpt lat="41.32961626420023" lon="16.92764147771127"><ele>0.0</ele><time>2026-03-27T22:13:42.001Z</time></trkpt><trkpt lat="41.330306891326494" lon="16.929611324217312"><ele>0.0</ele><time>2026-03-27T22:13:43.001Z</time></trkpt><trkpt lat="41.330995476357714" lon="16.931588772953653"><ele>0.0</ele><time>2026-03-27T22:13:44.001Z</time></trkpt><trkpt lat="41.33168293600658" lon="16.933563917202903"><ele>0.0</ele><time>2026-03-27T22:13:45.001Z</time></trkpt><trkpt lat="41.332382693055735" lon="16.935543917663388"><ele>0.0</ele><time>2026-03-27T22:13:46.001Z</time></trkpt><trkpt lat="41.33308051389824" lon="16.937525060154233"><ele>0.0</ele><time>2026-03-27T22:13:47.001Z</time></trkpt><trkpt lat="41.333780429175356" lon="16.939507887340575"><ele>0.0</ele><time>2026-03-27T22:13:48.001Z</time></trkpt><trkpt lat="41.33447542130233" lon="16.941491844689082"><ele>0.0</ele><time>2026-03-27T22:13:49.001Z</time></trkpt><trkpt lat="41.33516085870939" lon="16.943476365185102"><ele>0.0</ele><time>2026-03-27T22:13:50.001Z</time></trkpt><trkpt lat="41.3358545994426" lon="16.945460095547546"><ele>0.0</ele><time>2026-03-27T22:13:51.001Z</time></trkpt><trkpt lat="41.336546587514476" lon="16.947455120969355"><ele>0.0</ele><time>2026-03-27T22:13:52.001Z</time></trkpt><trkpt lat="41.3372368439541" lon="16.9494521759714"><ele>0.0</ele><time>2026-03-27T22:13:53.001Z</time></trkpt><trkpt lat="41.337924207271044" lon="16.951437774264008"><ele>0.0</ele><time>2026-03-27T22:13:54.001Z</time></trkpt><trkpt lat="41.33860232857065" lon="16.953424379820945"><ele>0.0</ele><time>2026-03-27T22:13:55.001Z</time></trkpt><trkpt lat="41.33928078320494" lon="16.95541270406595"><ele>0.0</ele><time>2026-03-27T22:13:56.001Z</time></trkpt><trkpt lat="41.340274739038065" lon="16.957421807667263"><ele>0.0</ele><time>2026-03-27T22:13:57.001Z</time></trkpt><trkpt lat="41.34097165572434" lon="16.959408402738404"><ele>0.0</ele><time>2026-03-27T22:13:58.001Z</time></trkpt><trkpt lat="41.34166952957704" lon="16.961400618865316"><ele>0.0</ele><time>2026-03-27T22:13:59.001Z</time></trkpt><trkpt lat="41.342370762685626" lon="16.96339499544083"><ele>0.0</ele><time>2026-03-27T22:14:00.001Z</time></trkpt><trkpt lat="41.34308060217925" lon="16.965393073120236"><ele>0.0</ele><time>2026-03-27T22:14:01.001Z</time></trkpt><trkpt lat="41.343777363318914" lon="16.967383980418226"><ele>0.0</ele><time>2026-03-27T22:14:02.001Z</time></trkpt><trkpt lat="41.344475272342734" lon="16.96937281340761"><ele>0.0</ele><time>2026-03-27T22:14:03.001Z</time></trkpt><trkpt lat="41.34518413684245" lon="16.971350483433685"><ele>0.0</ele><time>2026-03-27T22:14:04.001Z</time></trkpt><trkpt lat="41.34588499641908" lon="16.97333450663198"><ele>0.0</ele><time>2026-03-27T22:14:05.001Z</time></trkpt><trkpt lat="41.34658714266586" lon="16.97532700865877"><ele>0.0</ele><time>2026-03-27T22:14:06.001Z</time></trkpt><trkpt lat="41.34728817604264" lon="16.97731829810388"><ele>0.0</ele><time>2026-03-27T22:14:07.001Z</time></trkpt><trkpt lat="41.34799347679613" lon="16.979304482370637"><ele>0.0</ele><time>2026-03-27T22:14:08.001Z</time></trkpt><trkpt lat="41.34868517280741" lon="16.981295393137895"><ele>0.0</ele><time>2026-03-27T22:14:09.001Z</time></trkpt><trkpt lat="41.349380563208115" lon="16.983287454013265"><ele>0.0</ele><time>2026-03-27T22:14:10.001Z</time></trkpt><trkpt lat="41.35008849929424" lon="16.98527816412251"><ele>0.0</ele><time>2026-03-27T22:14:11.001Z</time></trkpt><trkpt lat="41.35080181865022" lon="16.98726492223014"><ele>0.0</ele><time>2026-03-27T22:14:12.001Z</time></trkpt><trkpt lat="41.35151260535211" lon="16.989260955360585"><ele>0.0</ele><time>2026-03-27T22:14:13.001Z</time></trkpt><trkpt lat="41.3522085753242" lon="16.99126022208124"><ele>0.0</ele><time>2026-03-27T22:14:14.001Z</time></trkpt><trkpt lat="41.3529213948025" lon="16.993254377628865"><ele>0.0</ele><time>2026-03-27T22:14:15.001Z</time></trkpt><trkpt lat="41.35362499214011" lon="16.99524926573152"><ele>0.0</ele><time>2026-03-27T22:14:16.001Z</time></trkpt><trkpt lat="41.35433310897952" lon="16.997245131503114"><ele>0.0</ele><time>2026-03-27T22:14:17.001Z</time></trkpt><trkpt lat="41.35503698927723" lon="16.99924789834806"><ele>0.0</ele><time>2026-03-27T22:14:18.001Z</time></trkpt><trkpt lat="41.35574857645601" lon="17.00124759324221"><ele>0.0</ele><time>2026-03-27T22:14:19.001Z</time></trkpt><trkpt lat="41.35644888565757" lon="17.003250748655248"><ele>0.0</ele><time>2026-03-27T22:14:20.001Z</time></trkpt><trkpt lat="41.35714636920424" lon="17.00524968922267"><ele>0.0</ele><time>2026-03-27T22:14:21.001Z</time></trkpt><trkpt lat="41.357849721631396" lon="17.00724715946183"><ele>0.0</ele><time>2026-03-27T22:14:22.001Z</time></trkpt><trkpt lat="41.358553369151494" lon="17.009251405604957"><ele>0.0</ele><time>2026-03-27T22:14:23.001Z</time></trkpt><trkpt lat="41.35925272415327" lon="17.01125262346931"><ele>0.0</ele><time>2026-03-27T22:14:24.001Z</time></trkpt><trkpt lat="41.35995403563067" lon="17.01324876200453"><ele>0.0</ele><time>2026-03-27T22:14:25.001Z</time></trkpt><trkpt lat="41.36065176422053" lon="17.015244820456846"><ele>0.0</ele><time>2026-03-27T22:14:26.001Z</time></trkpt><trkpt lat="41.36134822756053" lon="17.01723980428347"><ele>0.0</ele><time>2026-03-27T22:14:27.001Z</time></trkpt><trkpt lat="41.36205414374282" lon="17.01923229256164"><ele>0.0</ele><time>2026-03-27T22:14:28.001Z</time></trkpt><trkpt lat="41.36275003957236" lon="17.021229868293904"><ele>0.0</ele><time>2026-03-27T22:14:29.001Z</time></trkpt><trkpt lat="41.36345053591506" lon="17.023223135427536"><ele>0.0</ele><time>2026-03-27T22:14:30.001Z</time></trkpt><trkpt lat="41.36415090606187" lon="17.025219967637092"><ele>0.0</ele><time>2026-03-27T22:14:31.001Z</time></trkpt><trkpt lat="41.364859135923005" lon="17.027208122442136"><ele>0.0</ele><time>2026-03-27T22:14:32.001Z</time></trkpt><trkpt lat="41.36556149800121" lon="17.02919732596891"><ele>0.0</ele><time>2026-03-27T22:14:33.001Z</time></trkpt><trkpt lat="41.36626615606352" lon="17.031183999929386"><ele>0.0</ele><time>2026-03-27T22:14:34.001Z</time></trkpt><trkpt lat="41.366969532152204" lon="17.033175567444083"><ele>0.0</ele><time>2026-03-27T22:14:35.001Z</time></trkpt><trkpt lat="41.367667723047724" lon="17.035164265493613"><ele>0.0</ele><time>2026-03-27T22:14:36.001Z</time></trkpt><trkpt lat="41.36836950705565" lon="17.03715249167512"><ele>0.0</ele><time>2026-03-27T22:14:37.001Z</time></trkpt><trkpt lat="41.36907583271897" lon="17.039134843364927"><ele>0.0</ele><time>2026-03-27T22:14:38.001Z</time></trkpt><trkpt lat="41.36977182315809" lon="17.041126356571922"><ele>0.0</ele><time>2026-03-27T22:14:39.001Z</time></trkpt><trkpt lat="41.37046934982424" lon="17.04312158459285"><ele>0.0</ele><time>2026-03-27T22:14:40Z</time></trkpt><trkpt lat="41.37117124867324" lon="17.04511965700194"><ele>0.0</ele><time>2026-03-27T22:14:41Z</time></trkpt><trkpt lat="41.3718728549067" lon="17.04710476144455"><ele>0.0</ele><time>2026-03-27T22:14:42Z</time></trkpt><trkpt lat="41.372582019805414" lon="17.049099012690608"><ele>0.0</ele><time>2026-03-27T22:14:43Z</time></trkpt><trkpt lat="41.37328829030861" lon="17.05108534467113"><ele>0.0</ele><time>2026-03-27T22:14:44Z</time></trkpt><trkpt lat="41.373983161637625" lon="17.05306868250297"><ele>0.0</ele><time>2026-03-27T22:14:45Z</time></trkpt><trkpt lat="41.37468508951125" lon="17.055064625335042"><ele>0.0</ele><time>2026-03-27T22:14:46Z</time></trkpt><trkpt lat="41.3753874803375" lon="17.057052262533183"><ele>0.0</ele><time>2026-03-27T22:14:47Z</time></trkpt><trkpt lat="41.37607932139212" lon="17.059046554105752"><ele>0.0</ele><time>2026-03-27T22:14:48Z</time></trkpt><trkpt lat="41.37677947599195" lon="17.061040701151818"><ele>0.0</ele><time>2026-03-27T22:14:49Z</time></trkpt><trkpt lat="41.3774862767571" lon="17.063034521702022"><ele>0.0</ele><time>2026-03-27T22:14:50Z</time></trkpt><trkpt lat="41.37819246621387" lon="17.06502418410877"><ele>0.0</ele><time>2026-03-27T22:14:51Z</time></trkpt><trkpt lat="41.37889795528775" lon="17.067015140282702"><ele>0.0</ele><time>2026-03-27T22:14:52Z</time></trkpt><trkpt lat="41.37959240812415" lon="17.069019292439165"><ele>0.0</ele><time>2026-03-27T22:14:53Z</time></trkpt><trkpt lat="41.380283987887346" lon="17.07101384974914"><ele>0.0</ele><time>2026-03-27T22:14:54Z</time></trkpt><trkpt lat="41.38098303043163" lon="17.073010872050254"><ele>0.0</ele><time>2026-03-27T22:14:55Z</time></trkpt><trkpt lat="41.38168452494704" lon="17.075007321158623"><ele>0.0</ele><time>2026-03-27T22:14:56.001Z</time></trkpt><trkpt lat="41.38238510673735" lon="17.077003257014933"><ele>0.0</ele><time>2026-03-27T22:14:57.001Z</time></trkpt><trkpt lat="41.38308682420222" lon="17.078994028785758"><ele>0.0</ele><time>2026-03-27T22:14:58.001Z</time></trkpt><trkpt lat="41.38379594521754" lon="17.080993531092357"><ele>0.0</ele><time>2026-03-27T22:14:59.001Z</time></trkpt><trkpt lat="41.38450864079151" lon="17.082991907454467"><ele>0.0</ele><time>2026-03-27T22:15:00.001Z</time></trkpt><trkpt lat="41.38521174831041" lon="17.084989906687"><ele>0.0</ele><time>2026-03-27T22:15:01.001Z</time></trkpt><trkpt lat="41.385918713237494" lon="17.08699238614716"><ele>0.0</ele><time>2026-03-27T22:15:02.001Z</time></trkpt><trkpt lat="41.3866228967428" lon="17.08899497465637"><ele>0.0</ele><time>2026-03-27T22:15:03.001Z</time></trkpt><trkpt lat="41.38733955955461" lon="17.090990808940276"><ele>0.0</ele><time>2026-03-27T22:15:04.001Z</time></trkpt><trkpt lat="41.38804945918295" lon="17.0929973964199"><ele>0.0</ele><time>2026-03-27T22:15:05.001Z</time></trkpt><trkpt lat="41.388760666995324" lon="17.094998909718505"><ele>0.0</ele><time>2026-03-27T22:15:06.001Z</time></trkpt><trkpt lat="41.38946684916366" lon="17.0970137446757"><ele>0.0</ele><time>2026-03-27T22:15:07.001Z</time></trkpt><trkpt lat="41.39017933166125" lon="17.09902302552573"><ele>0.0</ele><time>2026-03-27T22:15:08.001Z</time></trkpt><trkpt lat="41.39088658152682" lon="17.101033349286183"><ele>0.0</ele><time>2026-03-27T22:15:09.001Z</time></trkpt><trkpt lat="41.39159658608168" lon="17.10304579812664"><ele>0.0</ele><time>2026-03-27T22:15:10.001Z</time></trkpt><trkpt lat="41.39231052892377" lon="17.10506235497095"><ele>0.0</ele><time>2026-03-27T22:15:11.001Z</time></trkpt><trkpt lat="41.39302477104224" lon="17.107078350715124"><ele>0.0</ele><time>2026-03-27T22:15:12.001Z</time></trkpt><trkpt lat="41.39373724893979" lon="17.109098855026136"><ele>0.0</ele><time>2026-03-27T22:15:13.001Z</time></trkpt><trkpt lat="41.3944476293018" lon="17.11112119389889"><ele>0.0</ele><time>2026-03-27T22:15:14.001Z</time></trkpt><trkpt lat="41.395156300830635" lon="17.113145814509497"><ele>0.0</ele><time>2026-03-27T22:15:15.001Z</time></trkpt><trkpt lat="41.3958700778089" lon="17.11517028408915"><ele>0.0</ele><time>2026-03-27T22:15:16.001Z</time></trkpt><trkpt lat="41.39658737124035" lon="17.11719452892905"><ele>0.0</ele><time>2026-03-27T22:15:17.001Z</time></trkpt><trkpt lat="41.39730200216224" lon="17.11922143509539"><ele>0.0</ele><time>2026-03-27T22:15:18.001Z</time></trkpt><trkpt lat="41.398016807700635" lon="17.121249464167615"><ele>0.0</ele><time>2026-03-27T22:15:19.001Z</time></trkpt><trkpt lat="41.398730268729544" lon="17.123282397646793"><ele>0.0</ele><time>2026-03-27T22:15:20.001Z</time></trkpt><trkpt lat="41.399448305525596" lon="17.125312021129265"><ele>0.0</ele><time>2026-03-27T22:15:21.001Z</time></trkpt><trkpt lat="41.40006848807546" lon="17.12730078163638"><ele>0.0</ele><time>2026-03-27T22:15:22.001Z</time></trkpt><trkpt lat="41.400782270138045" lon="17.129332330056283"><ele>0.0</ele><time>2026-03-27T22:15:23.001Z</time></trkpt><trkpt lat="41.40146876323257" lon="17.131361826353935"><ele>0.0</ele><time>2026-03-27T22:15:24.001Z</time></trkpt><trkpt lat="41.40215573199692" lon="17.13340183339035"><ele>0.0</ele><time>2026-03-27T22:15:25.001Z</time></trkpt><trkpt lat="41.40283967882623" lon="17.13545154741721"><ele>0.0</ele><time>2026-03-27T22:15:26.001Z</time></trkpt><trkpt lat="41.40351163071758" lon="17.137517315115407"><ele>0.0</ele><time>2026-03-27T22:15:27.001Z</time></trkpt><trkpt lat="41.404166552210995" lon="17.139585784555642"><ele>0.0</ele><time>2026-03-27T22:15:28.001Z</time></trkpt><trkpt lat="41.4048083200765" lon="17.14167235759843"><ele>0.0</ele><time>2026-03-27T22:15:29.001Z</time></trkpt><trkpt lat="41.40544050260275" lon="17.14376532869403"><ele>0.0</ele><time>2026-03-27T22:15:30.001Z</time></trkpt><trkpt lat="41.40604760896701" lon="17.145871009644704"><ele>0.0</ele><time>2026-03-27T22:15:31.001Z</time></trkpt><trkpt lat="41.40663566577989" lon="17.14798754500706"><ele>0.0</ele><time>2026-03-27T22:15:32.001Z</time></trkpt><trkpt lat="41.407217503016746" lon="17.150109690739377"><ele>0.0</ele><time>2026-03-27T22:15:33.001Z</time></trkpt><trkpt lat="41.40778232758764" lon="17.152243505588"><ele>0.0</ele><time>2026-03-27T22:15:34.001Z</time></trkpt><trkpt lat="41.408331880981024" lon="17.154388323166547"><ele>0.0</ele><time>2026-03-27T22:15:35.001Z</time></trkpt><trkpt lat="41.408860645688215" lon="17.156535810309638"><ele>0.0</ele><time>2026-03-27T22:15:36.001Z</time></trkpt><trkpt lat="41.409369764616976" lon="17.15870315922975"><ele>0.0</ele><time>2026-03-27T22:15:37.001Z</time></trkpt><trkpt lat="41.409850320875904" lon="17.160876990797167"><ele>0.0</ele><time>2026-03-27T22:15:38.001Z</time></trkpt><trkpt lat="41.410325298410044" lon="17.163058169881975"><ele>0.0</ele><time>2026-03-27T22:15:39.001Z</time></trkpt><trkpt lat="41.41077353183072" lon="17.165248593320303"><ele>0.0</ele><time>2026-03-27T22:15:40.001Z</time></trkpt><trkpt lat="41.41120156968077" lon="17.16745145623537"><ele>0.0</ele><time>2026-03-27T22:15:41.001Z</time></trkpt><trkpt lat="41.411620432261266" lon="17.169659858959314"><ele>0.0</ele><time>2026-03-27T22:15:42.001Z</time></trkpt><trkpt lat="41.41200254221437" lon="17.171916283010603"><ele>0.0</ele><time>2026-03-27T22:15:43.001Z</time></trkpt><trkpt lat="41.41239275557464" lon="17.174132095730062"><ele>0.0</ele><time>2026-03-27T22:15:44.001Z</time></trkpt><trkpt lat="41.41277327970502" lon="17.176358179982962"><ele>0.0</ele><time>2026-03-27T22:15:45.001Z</time></trkpt><trkpt lat="41.41316045024148" lon="17.17858625001831"><ele>0.0</ele><time>2026-03-27T22:15:46.001Z</time></trkpt><trkpt lat="41.41355087216345" lon="17.18081612470206"><ele>0.0</ele><time>2026-03-27T22:15:47.001Z</time></trkpt><trkpt lat="41.41394034180504" lon="17.183043109304723"><ele>0.0</ele><time>2026-03-27T22:15:48.001Z</time></trkpt><trkpt lat="41.41432387390063" lon="17.185276626965564"><ele>0.0</ele><time>2026-03-27T22:15:49.001Z</time></trkpt><trkpt lat="41.4146995243021" lon="17.18751054038353"><ele>0.0</ele><time>2026-03-27T22:15:50.001Z</time></trkpt><trkpt lat="41.415077076531226" lon="17.18974670019179"><ele>0.0</ele><time>2026-03-27T22:15:51.001Z</time></trkpt><trkpt lat="41.415455690169935" lon="17.191983349270906"><ele>0.0</ele><time>2026-03-27T22:15:52.001Z</time></trkpt><trkpt lat="41.41583336351044" lon="17.194221763637522"><ele>0.0</ele><time>2026-03-27T22:15:53.001Z</time></trkpt><trkpt lat="41.41621046031465" lon="17.196460207636623"><ele>0.0</ele><time>2026-03-27T22:15:54.001Z</time></trkpt><trkpt lat="41.41659319010087" lon="17.198703819358045"><ele>0.0</ele><time>2026-03-27T22:15:55.001Z</time></trkpt><trkpt lat="41.416971055122254" lon="17.20094791805166"><ele>0.0</ele><time>2026-03-27T22:15:56.001Z</time></trkpt><trkpt lat="41.417358509454296" lon="17.20319473480097"><ele>0.0</ele><time>2026-03-27T22:15:57.001Z</time></trkpt><trkpt lat="41.41774423307925" lon="17.20544125912583"><ele>0.0</ele><time>2026-03-27T22:15:58.001Z</time></trkpt><trkpt lat="41.418119040667136" lon="17.207694745590913"><ele>0.0</ele><time>2026-03-27T22:15:59.001Z</time></trkpt><trkpt lat="41.41849746811687" lon="17.20995250662772"><ele>0.0</ele><time>2026-03-27T22:16:00.001Z</time></trkpt><trkpt lat="41.4188796995952" lon="17.21221041839576"><ele>0.0</ele><time>2026-03-27T22:16:01.001Z</time></trkpt><trkpt lat="41.41926326540785" lon="17.214469102428172"><ele>0.0</ele><time>2026-03-27T22:16:02.002Z</time></trkpt><trkpt lat="41.4196535626451" lon="17.216729957822782"><ele>0.0</ele><time>2026-03-27T22:16:03.001Z</time></trkpt><trkpt lat="41.42003127709515" lon="17.218985858611855"><ele>0.0</ele><time>2026-03-27T22:16:04.001Z</time></trkpt><trkpt lat="41.4204098171454" lon="17.221244026644648"><ele>0.0</ele><time>2026-03-27T22:16:05.001Z</time></trkpt><trkpt lat="41.420809019920604" lon="17.22350603270096"><ele>0.0</ele><time>2026-03-27T22:16:06.001Z</time></trkpt><trkpt lat="41.421207729195345" lon="17.225767115224894"><ele>0.0</ele><time>2026-03-27T22:16:07.001Z</time></trkpt><trkpt lat="41.4215981309444" lon="17.22802942496453"><ele>0.0</ele><time>2026-03-27T22:16:08.001Z</time></trkpt><trkpt lat="41.421991055242025" lon="17.23028776251216"><ele>0.0</ele><time>2026-03-27T22:16:09.001Z</time></trkpt><trkpt lat="41.42239376363978" lon="17.23255131068402"><ele>0.0</ele><time>2026-03-27T22:16:10.001Z</time></trkpt><trkpt lat="41.42278421133892" lon="17.234812765291597"><ele>0.0</ele><time>2026-03-27T22:16:11.001Z</time></trkpt><trkpt lat="41.42317724688595" lon="17.237075236707152"><ele>0.0</ele><time>2026-03-27T22:16:12.001Z</time></trkpt><trkpt lat="41.42357367065638" lon="17.23933613547211"><ele>0.0</ele><time>2026-03-27T22:16:13.001Z</time></trkpt><trkpt lat="41.423949572399536" lon="17.24159977887287"><ele>0.0</ele><time>2026-03-27T22:16:14.001Z</time></trkpt><trkpt lat="41.42433639694255" lon="17.243862393976226"><ele>0.0</ele><time>2026-03-27T22:16:15.001Z</time></trkpt><trkpt lat="41.42471949570289" lon="17.246130075196334"><ele>0.0</ele><time>2026-03-27T22:16:16.001Z</time></trkpt><trkpt lat="41.42510546506555" lon="17.24840466124465"><ele>0.0</ele><time>2026-03-27T22:16:17.001Z</time></trkpt><trkpt lat="41.42548746062737" lon="17.25067780564556"><ele>0.0</ele><time>2026-03-27T22:16:18.001Z</time></trkpt><trkpt lat="41.42587459427221" lon="17.25294789232644"><ele>0.0</ele><time>2026-03-27T22:16:19.001Z</time></trkpt><trkpt lat="41.42626445228549" lon="17.25521652719351"><ele>0.0</ele><time>2026-03-27T22:16:20.001Z</time></trkpt><trkpt lat="41.42666209448214" lon="17.257482582657623"><ele>0.0</ele><time>2026-03-27T22:16:21.001Z</time></trkpt><trkpt lat="41.42705693427079" lon="17.259748178367467"><ele>0.0</ele><time>2026-03-27T22:16:22.001Z</time></trkpt><trkpt lat="41.427454339970325" lon="17.26201557480035"><ele>0.0</ele><time>2026-03-27T22:16:23.001Z</time></trkpt><trkpt lat="41.42785281163806" lon="17.264280949445673"><ele>0.0</ele><time>2026-03-27T22:16:24.001Z</time></trkpt><trkpt lat="41.42824425692155" lon="17.266544393231037"><ele>0.0</ele><time>2026-03-27T22:16:25.001Z</time></trkpt><trkpt lat="41.428639339033744" lon="17.268805842907792"><ele>0.0</ele><time>2026-03-27T22:16:26.001Z</time></trkpt><trkpt lat="41.429031760122655" lon="17.27106518666963"><ele>0.0</ele><time>2026-03-27T22:16:27.001Z</time></trkpt><trkpt lat="41.42942211048667" lon="17.273323440821887"><ele>0.0</ele><time>2026-03-27T22:16:28.001Z</time></trkpt><trkpt lat="41.42980976087514" lon="17.27557967432963"><ele>0.0</ele><time>2026-03-27T22:16:29.001Z</time></trkpt><trkpt lat="41.43020256073283" lon="17.2778386508089"><ele>0.0</ele><time>2026-03-27T22:16:30.002Z</time></trkpt><trkpt lat="41.430585442642794" lon="17.280092444052418"><ele>0.0</ele><time>2026-03-27T22:16:31.001Z</time></trkpt><trkpt lat="41.43097956042225" lon="17.28234236962678"><ele>0.0</ele><time>2026-03-27T22:16:32.001Z</time></trkpt><trkpt lat="41.431375458907276" lon="17.284595485224333"><ele>0.0</ele><time>2026-03-27T22:16:33.001Z</time></trkpt><trkpt lat="41.4317630189708" lon="17.286839151689602"><ele>0.0</ele><time>2026-03-27T22:16:34.001Z</time></trkpt><trkpt lat="41.432173679214294" lon="17.28909250987636"><ele>0.0</ele><time>2026-03-27T22:16:35.001Z</time></trkpt><trkpt lat="41.432579903000466" lon="17.291339275082876"><ele>0.0</ele><time>2026-03-27T22:16:36.001Z</time></trkpt><trkpt lat="41.432972131216054" lon="17.29358055817839"><ele>0.0</ele><time>2026-03-27T22:16:37.001Z</time></trkpt><trkpt lat="41.433377742068586" lon="17.29582771426494"><ele>0.0</ele><time>2026-03-27T22:16:38.001Z</time></trkpt><trkpt lat="41.433757194823805" lon="17.29806803176893"><ele>0.0</ele><time>2026-03-27T22:16:39.001Z</time></trkpt><trkpt lat="41.43414807126018" lon="17.3003129756657"><ele>0.0</ele><time>2026-03-27T22:16:40.001Z</time></trkpt><trkpt lat="41.43454541982187" lon="17.30255950302976"><ele>0.0</ele><time>2026-03-27T22:16:41.001Z</time></trkpt><trkpt lat="41.43493214486365" lon="17.304807874664004"><ele>0.0</ele><time>2026-03-27T22:16:42.001Z</time></trkpt><trkpt lat="41.4353228526068" lon="17.307051069791523"><ele>0.0</ele><time>2026-03-27T22:16:43.001Z</time></trkpt><trkpt lat="41.43572126654175" lon="17.309286891403218"><ele>0.0</ele><time>2026-03-27T22:16:44.001Z</time></trkpt><trkpt lat="41.436124719315494" lon="17.311530013099055"><ele>0.0</ele><time>2026-03-27T22:16:45.001Z</time></trkpt><trkpt lat="41.436525389925535" lon="17.313760378011924"><ele>0.0</ele><time>2026-03-27T22:16:46.001Z</time></trkpt><trkpt lat="41.43691949621071" lon="17.316001250532185"><ele>0.0</ele><time>2026-03-27T22:16:47.001Z</time></trkpt><trkpt lat="41.43731933517501" lon="17.318238981369365"><ele>0.0</ele><time>2026-03-27T22:16:48.001Z</time></trkpt><trkpt lat="41.43771827785577" lon="17.320475481210007"><ele>0.0</ele><time>2026-03-27T22:16:49.001Z</time></trkpt><trkpt lat="41.43812060169316" lon="17.32271020147877"><ele>0.0</ele><time>2026-03-27T22:16:50.001Z</time></trkpt><trkpt lat="41.438517723555925" lon="17.32494254672977"><ele>0.0</ele><time>2026-03-27T22:16:51.001Z</time></trkpt><trkpt lat="41.43891461146152" lon="17.3271806086675"><ele>0.0</ele><time>2026-03-27T22:16:52.001Z</time></trkpt><trkpt lat="41.4393130180859" lon="17.32941404498921"><ele>0.0</ele><time>2026-03-27T22:16:53Z</time></trkpt><trkpt lat="41.4397003971479" lon="17.331645451391235"><ele>0.0</ele><time>2026-03-27T22:16:54Z</time></trkpt><trkpt lat="41.44011641082816" lon="17.3338701669197"><ele>0.0</ele><time>2026-03-27T22:16:55Z</time></trkpt><trkpt lat="41.44052768822211" lon="17.336102811305057"><ele>0.0</ele><time>2026-03-27T22:16:56Z</time></trkpt><trkpt lat="41.440919917658356" lon="17.338335226379566"><ele>0.0</ele><time>2026-03-27T22:16:57Z</time></trkpt><trkpt lat="41.44131884010455" lon="17.340566430247787"><ele>0.0</ele><time>2026-03-27T22:16:58Z</time></trkpt><trkpt lat="41.44171688051216" lon="17.34279472476793"><ele>0.0</ele><time>2026-03-27T22:16:59Z</time></trkpt><trkpt lat="41.4421128889989" lon="17.345016480147503"><ele>0.0</ele><time>2026-03-27T22:17:00Z</time></trkpt><trkpt lat="41.44253059641831" lon="17.347234101872775"><ele>0.0</ele><time>2026-03-27T22:17:01Z</time></trkpt><trkpt lat="41.44294126120002" lon="17.349459369523892"><ele>0.0</ele><time>2026-03-27T22:17:02Z</time></trkpt><trkpt lat="41.443347495587396" lon="17.351686963324585"><ele>0.0</ele><time>2026-03-27T22:17:03Z</time></trkpt><trkpt lat="41.44375201665799" lon="17.35391267407437"><ele>0.0</ele><time>2026-03-27T22:17:04Z</time></trkpt><trkpt lat="41.444152183919336" lon="17.35613961667132"><ele>0.0</ele><time>2026-03-27T22:17:05Z</time></trkpt><trkpt lat="41.4445450170188" lon="17.35837282082047"><ele>0.0</ele><time>2026-03-27T22:17:06Z</time></trkpt><trkpt lat="41.44493942101471" lon="17.360602734908312"><ele>0.0</ele><time>2026-03-27T22:17:07Z</time></trkpt><trkpt lat="41.44534045117954" lon="17.362829629351154"><ele>0.0</ele><time>2026-03-27T22:17:08Z</time></trkpt><trkpt lat="41.445732328520855" lon="17.365053462122436"><ele>0.0</ele><time>2026-03-27T22:17:09Z</time></trkpt><trkpt lat="41.446121906242674" lon="17.3672768010126"><ele>0.0</ele><time>2026-03-27T22:17:10Z</time></trkpt><trkpt lat="41.44652207411813" lon="17.36950109334037"><ele>0.0</ele><time>2026-03-27T22:17:11Z</time></trkpt><trkpt lat="41.44692331026042" lon="17.371733341237093"><ele>0.0</ele><time>2026-03-27T22:17:12Z</time></trkpt><trkpt lat="41.447321160015925" lon="17.37396110944338"><ele>0.0</ele><time>2026-03-27T22:17:13Z</time></trkpt><trkpt lat="41.4477188592167" lon="17.37619198934075"><ele>0.0</ele><time>2026-03-27T22:17:14Z</time></trkpt><trkpt lat="41.448109063864734" lon="17.378426569198"><ele>0.0</ele><time>2026-03-27T22:17:15Z</time></trkpt><trkpt lat="41.4485032059568" lon="17.38065832412402"><ele>0.0</ele><time>2026-03-27T22:17:16Z</time></trkpt><trkpt lat="41.44889964052641" lon="17.382894609971096"><ele>0.0</ele><time>2026-03-27T22:17:17Z</time></trkpt><trkpt lat="41.44929895702387" lon="17.385124566201007"><ele>0.0</ele><time>2026-03-27T22:17:18Z</time></trkpt><trkpt lat="41.449698494381245" lon="17.38735584909382"><ele>0.0</ele><time>2026-03-27T22:17:19Z</time></trkpt><trkpt lat="41.45009518093614" lon="17.38959725149378"><ele>0.0</ele><time>2026-03-27T22:17:20Z</time></trkpt><trkpt lat="41.45049585792109" lon="17.391827685428098"><ele>0.0</ele><time>2026-03-27T22:17:21Z</time></trkpt><trkpt lat="41.45089020642022" lon="17.394067821179906"><ele>0.0</ele><time>2026-03-27T22:17:22Z</time></trkpt><trkpt lat="41.45129297625059" lon="17.396308097893883"><ele>0.0</ele><time>2026-03-27T22:17:23Z</time></trkpt><trkpt lat="41.451689797248484" lon="17.39855174108901"><ele>0.0</ele><time>2026-03-27T22:17:24Z</time></trkpt><trkpt lat="41.4520929405343" lon="17.400793764345906"><ele>0.0</ele><time>2026-03-27T22:17:25Z</time></trkpt><trkpt lat="41.4524928255505" lon="17.403032976935275"><ele>0.0</ele><time>2026-03-27T22:17:26Z</time></trkpt><trkpt lat="41.452884615008465" lon="17.405268959479898"><ele>0.0</ele><time>2026-03-27T22:17:27Z</time></trkpt><trkpt lat="41.453272000599746" lon="17.40751289256765"><ele>0.0</ele><time>2026-03-27T22:17:28Z</time></trkpt><trkpt lat="41.45366815389423" lon="17.409760836079386"><ele>0.0</ele><time>2026-03-27T22:17:29Z</time></trkpt><trkpt lat="41.45406892343769" lon="17.411997160377695"><ele>0.0</ele><time>2026-03-27T22:17:30Z</time></trkpt><trkpt lat="41.454466404518534" lon="17.414242598187325"><ele>0.0</ele><time>2026-03-27T22:17:31Z</time></trkpt><trkpt lat="41.45486598299534" lon="17.41648385109667"><ele>0.0</ele><time>2026-03-27T22:17:32Z</time></trkpt><trkpt lat="41.45527069996556" lon="17.418732075565647"><ele>0.0</ele><time>2026-03-27T22:17:33Z</time></trkpt><trkpt lat="41.45567325615574" lon="17.420980865417533"><ele>0.0</ele><time>2026-03-27T22:17:34Z</time></trkpt><trkpt lat="41.45608080507912" lon="17.423226911234586"><ele>0.0</ele><time>2026-03-27T22:17:35Z</time></trkpt><trkpt lat="41.45648553035023" lon="17.425471976424717"><ele>0.0</ele><time>2026-03-27T22:17:36Z</time></trkpt><trkpt lat="41.45689717106947" lon="17.427718814201587"><ele>0.0</ele><time>2026-03-27T22:17:37.001Z</time></trkpt><trkpt lat="41.457304447499055" lon="17.42996884504986"><ele>0.0</ele><time>2026-03-27T22:17:38.001Z</time></trkpt><trkpt lat="41.45771003544243" lon="17.43221942542164"><ele>0.0</ele><time>2026-03-27T22:17:39.001Z</time></trkpt><trkpt lat="41.45812029183924" lon="17.434470785596726"><ele>0.0</ele><time>2026-03-27T22:17:40.001Z</time></trkpt><trkpt lat="41.458527297926096" lon="17.436720620968487"><ele>0.0</ele><time>2026-03-27T22:17:41.001Z</time></trkpt><trkpt lat="41.45893154596521" lon="17.43897720426307"><ele>0.0</ele><time>2026-03-27T22:17:42.001Z</time></trkpt><trkpt lat="41.45932988517212" lon="17.44123662334853"><ele>0.0</ele><time>2026-03-27T22:17:43.001Z</time></trkpt><trkpt lat="41.45973429278834" lon="17.443493322045654"><ele>0.0</ele><time>2026-03-27T22:17:44.001Z</time></trkpt><trkpt lat="41.46014040251446" lon="17.445746183544593"><ele>0.0</ele><time>2026-03-27T22:17:45.001Z</time></trkpt><trkpt lat="41.46054575841939" lon="17.448003026263077"><ele>0.0</ele><time>2026-03-27T22:17:46.001Z</time></trkpt><trkpt lat="41.46095355671429" lon="17.45026133074153"><ele>0.0</ele><time>2026-03-27T22:17:47.001Z</time></trkpt><trkpt lat="41.46135765958564" lon="17.452522976285834"><ele>0.0</ele><time>2026-03-27T22:17:48.001Z</time></trkpt><trkpt lat="41.461760988174284" lon="17.454784566414126"><ele>0.0</ele><time>2026-03-27T22:17:49.001Z</time></trkpt><trkpt lat="41.46216061837839" lon="17.457050784733422"><ele>0.0</ele><time>2026-03-27T22:17:50.001Z</time></trkpt><trkpt lat="41.46256388084781" lon="17.459311650804615"><ele>0.0</ele><time>2026-03-27T22:17:51.001Z</time></trkpt><trkpt lat="41.462965380558565" lon="17.461575622705695"><ele>0.0</ele><time>2026-03-27T22:17:52.001Z</time></trkpt><trkpt lat="41.46337199349852" lon="17.46384036833614"><ele>0.0</ele><time>2026-03-27T22:17:53.001Z</time></trkpt><trkpt lat="41.463774484704714" lon="17.466107008707436"><ele>0.0</ele><time>2026-03-27T22:17:54.001Z</time></trkpt><trkpt lat="41.46417886509035" lon="17.468367885206487"><ele>0.0</ele><time>2026-03-27T22:17:55.001Z</time></trkpt><trkpt lat="41.46458283177507" lon="17.47063208182521"><ele>0.0</ele><time>2026-03-27T22:17:56.001Z</time></trkpt><trkpt lat="41.46498762482312" lon="17.472895244520082"><ele>0.0</ele><time>2026-03-27T22:17:57.001Z</time></trkpt><trkpt lat="41.465388662501276" lon="17.475159813120566"><ele>0.0</ele><time>2026-03-27T22:17:58.001Z</time></trkpt><trkpt lat="41.46579349923886" lon="17.477424610542773"><ele>0.0</ele><time>2026-03-27T22:17:59.001Z</time></trkpt><trkpt lat="41.46619719940223" lon="17.47969273792003"><ele>0.0</ele><time>2026-03-27T22:18:00.001Z</time></trkpt><trkpt lat="41.466602393516894" lon="17.48195599549756"><ele>0.0</ele><time>2026-03-27T22:18:01.001Z</time></trkpt><trkpt lat="41.46701024017405" lon="17.48422151967967"><ele>0.0</ele><time>2026-03-27T22:18:02.001Z</time></trkpt><trkpt lat="41.467419844586246" lon="17.486494637364647"><ele>0.0</ele><time>2026-03-27T22:18:03.001Z</time></trkpt><trkpt lat="41.46782779344561" lon="17.488760797131462"><ele>0.0</ele><time>2026-03-27T22:18:04.001Z</time></trkpt><trkpt lat="41.46823853840288" lon="17.491027349726142"><ele>0.0</ele><time>2026-03-27T22:18:05.001Z</time></trkpt><trkpt lat="41.46864691186443" lon="17.49329494615404"><ele>0.0</ele><time>2026-03-27T22:18:06.001Z</time></trkpt><trkpt lat="41.469053154382934" lon="17.495565910363407"><ele>0.0</ele><time>2026-03-27T22:18:07.001Z</time></trkpt><trkpt lat="41.46945768616064" lon="17.497839931849402"><ele>0.0</ele><time>2026-03-27T22:18:08.001Z</time></trkpt><trkpt lat="41.46986419099365" lon="17.50011076938413"><ele>0.0</ele><time>2026-03-27T22:18:09.001Z</time></trkpt><trkpt lat="41.47025694267192" lon="17.502382222943414"><ele>0.0</ele><time>2026-03-27T22:18:10.001Z</time></trkpt><trkpt lat="41.47065753853626" lon="17.504655448211622"><ele>0.0</ele><time>2026-03-27T22:18:11.001Z</time></trkpt><trkpt lat="41.47105514639362" lon="17.50693082464611"><ele>0.0</ele><time>2026-03-27T22:18:12.001Z</time></trkpt><trkpt lat="41.47144991259854" lon="17.50920092172338"><ele>0.0</ele><time>2026-03-27T22:18:13.001Z</time></trkpt><trkpt lat="41.471853627081735" lon="17.511474966742814"><ele>0.0</ele><time>2026-03-27T22:18:14.001Z</time></trkpt><trkpt lat="41.472261598342634" lon="17.513749836914442"><ele>0.0</ele><time>2026-03-27T22:18:15.001Z</time></trkpt><trkpt lat="41.472663165807845" lon="17.516023616910008"><ele>0.0</ele><time>2026-03-27T22:18:16.001Z</time></trkpt><trkpt lat="41.4730659826971" lon="17.518300455200965"><ele>0.0</ele><time>2026-03-27T22:18:17.001Z</time></trkpt><trkpt lat="41.47347258112521" lon="17.5205787190542"><ele>0.0</ele><time>2026-03-27T22:18:18.001Z</time></trkpt><trkpt lat="41.4738766636449" lon="17.522863203201698"><ele>0.0</ele><time>2026-03-27T22:18:19.001Z</time></trkpt><trkpt lat="41.47428282844467" lon="17.525140681529233"><ele>0.0</ele><time>2026-03-27T22:18:20.001Z</time></trkpt><trkpt lat="41.47468885243426" lon="17.527425707012096"><ele>0.0</ele><time>2026-03-27T22:18:21.001Z</time></trkpt><trkpt lat="41.475089715493695" lon="17.529711504080293"><ele>0.0</ele><time>2026-03-27T22:18:22.001Z</time></trkpt><trkpt lat="41.475493011248595" lon="17.531998884336012"><ele>0.0</ele><time>2026-03-27T22:18:23.001Z</time></trkpt><trkpt lat="41.475898878213414" lon="17.534282834960344"><ele>0.0</ele><time>2026-03-27T22:18:24.001Z</time></trkpt><trkpt lat="41.47630199821752" lon="17.536564414164488"><ele>0.0</ele><time>2026-03-27T22:18:25.001Z</time></trkpt><trkpt lat="41.47671302886465" lon="17.538843683468773"><ele>0.0</ele><time>2026-03-27T22:18:26.001Z</time></trkpt><trkpt lat="41.477120178703466" lon="17.541123304021273"><ele>0.0</ele><time>2026-03-27T22:18:27.001Z</time></trkpt><trkpt lat="41.47752050959118" lon="17.543404726162688"><ele>0.0</ele><time>2026-03-27T22:18:28.001Z</time></trkpt><trkpt lat="41.477918859764245" lon="17.545693126515477"><ele>0.0</ele><time>2026-03-27T22:18:29.001Z</time></trkpt><trkpt lat="41.478327468068386" lon="17.547978446066654"><ele>0.0</ele><time>2026-03-27T22:18:30.001Z</time></trkpt><trkpt lat="41.47873088507722" lon="17.550264743210825"><ele>0.0</ele><time>2026-03-27T22:18:31.001Z</time></trkpt><trkpt lat="41.479134597780536" lon="17.5525564632332"><ele>0.0</ele><time>2026-03-27T22:18:32.001Z</time></trkpt><trkpt lat="41.479533465765094" lon="17.554845772230795"><ele>0.0</ele><time>2026-03-27T22:18:33.001Z</time></trkpt><trkpt lat="41.47993600564634" lon="17.55713385687785"><ele>0.0</ele><time>2026-03-27T22:18:34.001Z</time></trkpt><trkpt lat="41.48033796160619" lon="17.559423748683397"><ele>0.0</ele><time>2026-03-27T22:18:35.001Z</time></trkpt><trkpt lat="41.480735173970245" lon="17.561713743556105"><ele>0.0</ele><time>2026-03-27T22:18:36.001Z</time></trkpt><trkpt lat="41.481148057823276" lon="17.564005624148045"><ele>0.0</ele><time>2026-03-27T22:18:37.001Z</time></trkpt><trkpt lat="41.48155465266208" lon="17.566292121758185"><ele>0.0</ele><time>2026-03-27T22:18:38.001Z</time></trkpt><trkpt lat="41.48194526975851" lon="17.56858106772296"><ele>0.0</ele><time>2026-03-27T22:18:39.001Z</time></trkpt><trkpt lat="41.48234094764871" lon="17.57086209775764"><ele>0.0</ele><time>2026-03-27T22:18:40.001Z</time></trkpt><trkpt lat="41.48273589680187" lon="17.573157621422204"><ele>0.0</ele><time>2026-03-27T22:18:41.001Z</time></trkpt><trkpt lat="41.48316144013185" lon="17.575448431912903"><ele>0.0</ele><time>2026-03-27T22:18:42.001Z</time></trkpt><trkpt lat="41.48356376039165" lon="17.577702423310956"><ele>0.0</ele><time>2026-03-27T22:18:43.001Z</time></trkpt><trkpt lat="41.483958232574004" lon="17.5799806820351"><ele>0.0</ele><time>2026-03-27T22:18:44.001Z</time></trkpt><trkpt lat="41.48435774960595" lon="17.582257347074652"><ele>0.0</ele><time>2026-03-27T22:18:45.001Z</time></trkpt><trkpt lat="41.4847436145108" lon="17.584534025561418"><ele>0.0</ele><time>2026-03-27T22:18:46.001Z</time></trkpt><trkpt lat="41.48513523744866" lon="17.586812903177833"><ele>0.0</ele><time>2026-03-27T22:18:47.001Z</time></trkpt><trkpt lat="41.48556759924103" lon="17.58909468536473"><ele>0.0</ele><time>2026-03-27T22:18:48.001Z</time></trkpt><trkpt lat="41.4859835077514" lon="17.59136864118892"><ele>0.0</ele><time>2026-03-27T22:18:49.001Z</time></trkpt><trkpt lat="41.48637553787473" lon="17.593649364103662"><ele>0.0</ele><time>2026-03-27T22:18:50.001Z</time></trkpt><trkpt lat="41.486763003890104" lon="17.595922334430135"><ele>0.0</ele><time>2026-03-27T22:18:51.001Z</time></trkpt><trkpt lat="41.4871279260894" lon="17.59820747792483"><ele>0.0</ele><time>2026-03-27T22:18:52Z</time></trkpt><trkpt lat="41.487516165287744" lon="17.600498423018344"><ele>0.0</ele><time>2026-03-27T22:18:53Z</time></trkpt><trkpt lat="41.48790918298805" lon="17.60277538488072"><ele>0.0</ele><time>2026-03-27T22:18:54Z</time></trkpt><trkpt lat="41.48829534659496" lon="17.605049376621956"><ele>0.0</ele><time>2026-03-27T22:18:55Z</time></trkpt><trkpt lat="41.488701749982326" lon="17.607311465341795"><ele>0.0</ele><time>2026-03-27T22:18:56Z</time></trkpt><trkpt lat="41.4890829817799" lon="17.609611666199623"><ele>0.0</ele><time>2026-03-27T22:18:57Z</time></trkpt><trkpt lat="41.48945442249939" lon="17.61189792847783"><ele>0.0</ele><time>2026-03-27T22:18:58Z</time></trkpt><trkpt lat="41.48984548119196" lon="17.61418108668162"><ele>0.0</ele><time>2026-03-27T22:18:59Z</time></trkpt><trkpt lat="41.49031740805087" lon="17.616454859114764"><ele>0.0</ele><time>2026-03-27T22:19:00Z</time></trkpt><trkpt lat="41.49078051941107" lon="17.618709679906413"><ele>0.0</ele><time>2026-03-27T22:19:01Z</time></trkpt><trkpt lat="41.49115677467911" lon="17.620965318723226"><ele>0.0</ele><time>2026-03-27T22:19:02Z</time></trkpt><trkpt lat="41.491586134680944" lon="17.62325316170897"><ele>0.0</ele><time>2026-03-27T22:19:03Z</time></trkpt><trkpt lat="41.49200418943308" lon="17.625538040353458"><ele>0.0</ele><time>2026-03-27T22:19:04Z</time></trkpt><trkpt lat="41.49241720298366" lon="17.627828427902013"><ele>0.0</ele><time>2026-03-27T22:19:05Z</time></trkpt><trkpt lat="41.492827836554554" lon="17.630097186745505"><ele>0.0</ele><time>2026-03-27T22:19:06Z</time></trkpt><trkpt lat="41.49325756601534" lon="17.632361447326275"><ele>0.0</ele><time>2026-03-27T22:19:07Z</time></trkpt><trkpt lat="41.493661702381466" lon="17.634620298258664"><ele>0.0</ele><time>2026-03-27T22:19:08Z</time></trkpt><trkpt lat="41.49402599221984" lon="17.636891240794622"><ele>0.0</ele><time>2026-03-27T22:19:09Z</time></trkpt><trkpt lat="41.49442639421839" lon="17.63916454348484"><ele>0.0</ele><time>2026-03-27T22:19:10Z</time></trkpt><trkpt lat="41.494843585076396" lon="17.641443743864787"><ele>0.0</ele><time>2026-03-27T22:19:11Z</time></trkpt><trkpt lat="41.49529780106009" lon="17.64370330455062"><ele>0.0</ele><time>2026-03-27T22:19:12Z</time></trkpt><trkpt lat="41.49571614941274" lon="17.645977980172415"><ele>0.0</ele><time>2026-03-27T22:19:13Z</time></trkpt><trkpt lat="41.49613460086033" lon="17.64824270222636"><ele>0.0</ele><time>2026-03-27T22:19:14Z</time></trkpt><trkpt lat="41.49654576901719" lon="17.65052505481522"><ele>0.0</ele><time>2026-03-27T22:19:15Z</time></trkpt><trkpt lat="41.496925954514865" lon="17.652787571711468"><ele>0.0</ele><time>2026-03-27T22:19:16Z</time></trkpt><trkpt lat="41.49731471379289" lon="17.65504962355843"><ele>0.0</ele><time>2026-03-27T22:19:17Z</time></trkpt><trkpt lat="41.49771871863012" lon="17.657307330502718"><ele>0.0</ele><time>2026-03-27T22:19:18Z</time></trkpt><trkpt lat="41.49814852405557" lon="17.65956256544957"><ele>0.0</ele><time>2026-03-27T22:19:19Z</time></trkpt><trkpt lat="41.49853510884763" lon="17.661838149675212"><ele>0.0</ele><time>2026-03-27T22:19:20Z</time></trkpt><trkpt lat="41.498914560546595" lon="17.66411347646193"><ele>0.0</ele><time>2026-03-27T22:19:21Z</time></trkpt><trkpt lat="41.499295090725845" lon="17.666385250321547"><ele>0.0</ele><time>2026-03-27T22:19:22Z</time></trkpt><trkpt lat="41.499689476535075" lon="17.668652851176596"><ele>0.0</ele><time>2026-03-27T22:19:23Z</time></trkpt><trkpt lat="41.50004486256573" lon="17.670928746017744"><ele>0.0</ele><time>2026-03-27T22:19:24Z</time></trkpt><trkpt lat="41.500391419986336" lon="17.673205252786307"><ele>0.0</ele><time>2026-03-27T22:19:25Z</time></trkpt><trkpt lat="41.50077549922334" lon="17.675453428045625"><ele>0.0</ele><time>2026-03-27T22:19:26Z</time></trkpt><trkpt lat="41.50118045435609" lon="17.677705911669946"><ele>0.0</ele><time>2026-03-27T22:19:27Z</time></trkpt><trkpt lat="41.50156626730847" lon="17.67997317718726"><ele>0.0</ele><time>2026-03-27T22:19:28Z</time></trkpt><trkpt lat="41.50196336112321" lon="17.68223883570411"><ele>0.0</ele><time>2026-03-27T22:19:29Z</time></trkpt><trkpt lat="41.50237882702956" lon="17.684491468891732"><ele>0.0</ele><time>2026-03-27T22:19:30Z</time></trkpt><trkpt lat="41.502784887136826" lon="17.68675313676295"><ele>0.0</ele><time>2026-03-27T22:19:31Z</time></trkpt><trkpt lat="41.50315608416674" lon="17.68902996075207"><ele>0.0</ele><time>2026-03-27T22:19:32Z</time></trkpt><trkpt lat="41.5035498726889" lon="17.691287919145324"><ele>0.0</ele><time>2026-03-27T22:19:33Z</time></trkpt><trkpt lat="41.503949562772426" lon="17.693547813515604"><ele>0.0</ele><time>2026-03-27T22:19:34Z</time></trkpt><trkpt lat="41.50433655615969" lon="17.695812127723244"><ele>0.0</ele><time>2026-03-27T22:19:35Z</time></trkpt><trkpt lat="41.504734911457916" lon="17.69807346290105"><ele>0.0</ele><time>2026-03-27T22:19:36Z</time></trkpt><trkpt lat="41.50507414549701" lon="17.700319821566353"><ele>0.0</ele><time>2026-03-27T22:19:37Z</time></trkpt><trkpt lat="41.50544162830592" lon="17.7025705223545"><ele>0.0</ele><time>2026-03-27T22:19:38Z</time></trkpt><trkpt lat="41.50583677485739" lon="17.704822178657675"><ele>0.0</ele><time>2026-03-27T22:19:39Z</time></trkpt><trkpt lat="41.50622601979645" lon="17.70705524157871"><ele>0.0</ele><time>2026-03-27T22:19:40Z</time></trkpt><trkpt lat="41.506598278983766" lon="17.70931897893611"><ele>0.0</ele><time>2026-03-27T22:19:41Z</time></trkpt><trkpt lat="41.506991035354346" lon="17.711579822404552"><ele>0.0</ele><time>2026-03-27T22:19:42Z</time></trkpt><trkpt lat="41.507388143198476" lon="17.713828383179408"><ele>0.0</ele><time>2026-03-27T22:19:43.001Z</time></trkpt><trkpt lat="41.507791067112336" lon="17.71606435011441"><ele>0.0</ele><time>2026-03-27T22:19:44.001Z</time></trkpt><trkpt lat="41.50819282338795" lon="17.718322253691255"><ele>0.0</ele><time>2026-03-27T22:19:45.001Z</time></trkpt><trkpt lat="41.50858532805416" lon="17.720576162305502"><ele>0.0</ele><time>2026-03-27T22:19:46.001Z</time></trkpt><trkpt lat="41.50898514323571" lon="17.722830857354367"><ele>0.0</ele><time>2026-03-27T22:19:47.001Z</time></trkpt><trkpt lat="41.509382886446865" lon="17.72510180926708"><ele>0.0</ele><time>2026-03-27T22:19:48.001Z</time></trkpt><trkpt lat="41.509767787802794" lon="17.727353481356257"><ele>0.0</ele><time>2026-03-27T22:19:49.001Z</time></trkpt><trkpt lat="41.510146784519755" lon="17.729613485358016"><ele>0.0</ele><time>2026-03-27T22:19:50.001Z</time></trkpt><trkpt lat="41.5105570824004" lon="17.73186560541"><ele>0.0</ele><time>2026-03-27T22:19:51.001Z</time></trkpt><trkpt lat="41.51096231948639" lon="17.734111033381655"><ele>0.0</ele><time>2026-03-27T22:19:52.001Z</time></trkpt><trkpt lat="41.511363888405626" lon="17.73636016336199"><ele>0.0</ele><time>2026-03-27T22:19:53.001Z</time></trkpt><trkpt lat="41.51176375822225" lon="17.738604682165985"><ele>0.0</ele><time>2026-03-27T22:19:54.001Z</time></trkpt><trkpt lat="41.512116985035824" lon="17.740850957250096"><ele>0.0</ele><time>2026-03-27T22:19:55.001Z</time></trkpt><trkpt lat="41.51250096783092" lon="17.74309513847173"><ele>0.0</ele><time>2026-03-27T22:19:56.001Z</time></trkpt><trkpt lat="41.51288531435265" lon="17.745340573502165"><ele>0.0</ele><time>2026-03-27T22:19:57.001Z</time></trkpt><trkpt lat="41.513270225222705" lon="17.747583245055452"><ele>0.0</ele><time>2026-03-27T22:19:58.001Z</time></trkpt><trkpt lat="41.51367689585139" lon="17.749830835888286"><ele>0.0</ele><time>2026-03-27T22:19:59.001Z</time></trkpt><trkpt lat="41.5140802318889" lon="17.75202958010279"><ele>0.0</ele><time>2026-03-27T22:20:00.001Z</time></trkpt><trkpt lat="41.51447332164028" lon="17.754321537422797"><ele>0.0</ele><time>2026-03-27T22:20:01.001Z</time></trkpt><trkpt lat="41.514890436756104" lon="17.75654966074769"><ele>0.0</ele><time>2026-03-27T22:20:02.001Z</time></trkpt><trkpt lat="41.515266523374315" lon="17.75879542049012"><ele>0.0</ele><time>2026-03-27T22:20:03.001Z</time></trkpt><trkpt lat="41.51566785543512" lon="17.761050046497918"><ele>0.0</ele><time>2026-03-27T22:20:04.001Z</time></trkpt><trkpt lat="41.51609830871196" lon="17.763287306364848"><ele>0.0</ele><time>2026-03-27T22:20:05.001Z</time></trkpt><trkpt lat="41.516518655671355" lon="17.765524029202744"><ele>0.0</ele><time>2026-03-27T22:20:06.001Z</time></trkpt><trkpt lat="41.51693314954946" lon="17.767777307435622"><ele>0.0</ele><time>2026-03-27T22:20:07.001Z</time></trkpt><trkpt lat="41.51736646449885" lon="17.770026961217233"><ele>0.0</ele><time>2026-03-27T22:20:08.001Z</time></trkpt><trkpt lat="41.51777675748558" lon="17.772291399909193"><ele>0.0</ele><time>2026-03-27T22:20:09.001Z</time></trkpt><trkpt lat="41.51816130351991" lon="17.77453856906858"><ele>0.0</ele><time>2026-03-27T22:20:10.001Z</time></trkpt><trkpt lat="41.5185507885866" lon="17.776796524038346"><ele>0.0</ele><time>2026-03-27T22:20:11.001Z</time></trkpt><trkpt lat="41.51893857188452" lon="17.7790497731461"><ele>0.0</ele><time>2026-03-27T22:20:12.001Z</time></trkpt><trkpt lat="41.519274118233184" lon="17.781295544122866"><ele>0.0</ele><time>2026-03-27T22:20:13.001Z</time></trkpt><trkpt lat="41.51963658888421" lon="17.783540774170344"><ele>0.0</ele><time>2026-03-27T22:20:14.001Z</time></trkpt><trkpt lat="41.52000390264449" lon="17.78578205192749"><ele>0.0</ele><time>2026-03-27T22:20:15.001Z</time></trkpt><trkpt lat="41.52037391347939" lon="17.788030837905033"><ele>0.0</ele><time>2026-03-27T22:20:16.001Z</time></trkpt><trkpt lat="41.52074505974333" lon="17.790256051935142"><ele>0.0</ele><time>2026-03-27T22:20:17.001Z</time></trkpt><trkpt lat="41.5211125108043" lon="17.792497898506262"><ele>0.0</ele><time>2026-03-27T22:20:18.001Z</time></trkpt><trkpt lat="41.52150014900568" lon="17.794741780344264"><ele>0.0</ele><time>2026-03-27T22:20:19.001Z</time></trkpt><trkpt lat="41.52187314132176" lon="17.79699424825403"><ele>0.0</ele><time>2026-03-27T22:20:20.001Z</time></trkpt><trkpt lat="41.52226334384668" lon="17.79926463465383"><ele>0.0</ele><time>2026-03-27T22:20:21.001Z</time></trkpt><trkpt lat="41.52266326063948" lon="17.801521384027605"><ele>0.0</ele><time>2026-03-27T22:20:22.001Z</time></trkpt><trkpt lat="41.52306864859752" lon="17.80376851042651"><ele>0.0</ele><time>2026-03-27T22:20:23.001Z</time></trkpt><trkpt lat="41.52345747112682" lon="17.806002943514155"><ele>0.0</ele><time>2026-03-27T22:20:24.001Z</time></trkpt><trkpt lat="41.523864983785536" lon="17.808243863889743"><ele>0.0</ele><time>2026-03-27T22:20:25.001Z</time></trkpt><trkpt lat="41.5242646792675" lon="17.810482360186942"><ele>0.0</ele><time>2026-03-27T22:20:26.001Z</time></trkpt><trkpt lat="41.5246564705716" lon="17.812721287166372"><ele>0.0</ele><time>2026-03-27T22:20:27.001Z</time></trkpt><trkpt lat="41.52504629577776" lon="17.814961912814088"><ele>0.0</ele><time>2026-03-27T22:20:28.001Z</time></trkpt><trkpt lat="41.52546210862371" lon="17.81720010265333"><ele>0.0</ele><time>2026-03-27T22:20:29.001Z</time></trkpt><trkpt lat="41.525890197030634" lon="17.8194355561132"><ele>0.0</ele><time>2026-03-27T22:20:30.001Z</time></trkpt><trkpt lat="41.526302820372145" lon="17.821677276425913"><ele>0.0</ele><time>2026-03-27T22:20:31.001Z</time></trkpt><trkpt lat="41.52667617389034" lon="17.82392523526202"><ele>0.0</ele><time>2026-03-27T22:20:32.001Z</time></trkpt><trkpt lat="41.52709202808016" lon="17.82617115014624"><ele>0.0</ele><time>2026-03-27T22:20:33.001Z</time></trkpt><trkpt lat="41.52751113964582" lon="17.82840360727965"><ele>0.0</ele><time>2026-03-27T22:20:34.001Z</time></trkpt><trkpt lat="41.5278977730575" lon="17.830631051192135"><ele>0.0</ele><time>2026-03-27T22:20:35.001Z</time></trkpt><trkpt lat="41.528286494455884" lon="17.832857678561744"><ele>0.0</ele><time>2026-03-27T22:20:36.001Z</time></trkpt><trkpt lat="41.52867286638829" lon="17.835091352562962"><ele>0.0</ele><time>2026-03-27T22:20:37.001Z</time></trkpt><trkpt lat="41.529059434986735" lon="17.837327416115112"><ele>0.0</ele><time>2026-03-27T22:20:38.001Z</time></trkpt><trkpt lat="41.52945925662455" lon="17.839562536685172"><ele>0.0</ele><time>2026-03-27T22:20:39.001Z</time></trkpt><trkpt lat="41.52985850441609" lon="17.841788208358338"><ele>0.0</ele><time>2026-03-27T22:20:40.001Z</time></trkpt><trkpt lat="41.530232485175056" lon="17.844027182728915"><ele>0.0</ele><time>2026-03-27T22:20:41.001Z</time></trkpt><trkpt lat="41.53061279094577" lon="17.846265084925385"><ele>0.0</ele><time>2026-03-27T22:20:42.001Z</time></trkpt><trkpt lat="41.53098869344013" lon="17.848505615130716"><ele>0.0</ele><time>2026-03-27T22:20:43.001Z</time></trkpt><trkpt lat="41.53137901816143" lon="17.85074819065056"><ele>0.0</ele><time>2026-03-27T22:20:44.001Z</time></trkpt><trkpt lat="41.531762406176654" lon="17.852992240725573"><ele>0.0</ele><time>2026-03-27T22:20:45.001Z</time></trkpt><trkpt lat="41.53212975799845" lon="17.85526532754578"><ele>0.0</ele><time>2026-03-27T22:20:46.001Z</time></trkpt><trkpt lat="41.53250950094314" lon="17.85751128720197"><ele>0.0</ele><time>2026-03-27T22:20:47.001Z</time></trkpt><trkpt lat="41.532888602978105" lon="17.859756435809295"><ele>0.0</ele><time>2026-03-27T22:20:48.001Z</time></trkpt><trkpt lat="41.5332578495795" lon="17.86202957395003"><ele>0.0</ele><time>2026-03-27T22:20:49.001Z</time></trkpt><trkpt lat="41.53362468080666" lon="17.864278319804704"><ele>0.0</ele><time>2026-03-27T22:20:50.001Z</time></trkpt><trkpt lat="41.533983128378" lon="17.866503823435878"><ele>0.0</ele><time>2026-03-27T22:20:51.001Z</time></trkpt><trkpt lat="41.53432854318687" lon="17.868727199293552"><ele>0.0</ele><time>2026-03-27T22:20:52.001Z</time></trkpt><trkpt lat="41.53470800850611" lon="17.87097182745436"><ele>0.0</ele><time>2026-03-27T22:20:53.001Z</time></trkpt><trkpt lat="41.53509510403496" lon="17.873215469949145"><ele>0.0</ele><time>2026-03-27T22:20:54.001Z</time></trkpt><trkpt lat="41.53551406912075" lon="17.875465398550112"><ele>0.0</ele><time>2026-03-27T22:20:55.001Z</time></trkpt><trkpt lat="41.53590063004021" lon="17.877708923640203"><ele>0.0</ele><time>2026-03-27T22:20:56.001Z</time></trkpt><trkpt lat="41.536278118550534" lon="17.879951460287135"><ele>0.0</ele><time>2026-03-27T22:20:57.001Z</time></trkpt><trkpt lat="41.536679472342136" lon="17.88219751293478"><ele>0.0</ele><time>2026-03-27T22:20:58.001Z</time></trkpt><trkpt lat="41.537096357641666" lon="17.884452247078503"><ele>0.0</ele><time>2026-03-27T22:20:59.001Z</time></trkpt><trkpt lat="41.537487578418826" lon="17.886696008332294"><ele>0.0</ele><time>2026-03-27T22:21:00.001Z</time></trkpt><trkpt lat="41.53787055163165" lon="17.88897116066584"><ele>0.0</ele><time>2026-03-27T22:21:01.001Z</time></trkpt><trkpt lat="41.53825255499845" lon="17.89122943066983"><ele>0.0</ele><time>2026-03-27T22:21:02.001Z</time></trkpt><trkpt lat="41.53863217653463" lon="17.89346742844441"><ele>0.0</ele><time>2026-03-27T22:21:03.001Z</time></trkpt><trkpt lat="41.53899879085573" lon="17.89570467357359"><ele>0.0</ele><time>2026-03-27T22:21:04.001Z</time></trkpt><trkpt lat="41.539373399055926" lon="17.897961074960186"><ele>0.0</ele><time>2026-03-27T22:21:05.001Z</time></trkpt><trkpt lat="41.5397448750276" lon="17.900205953981636"><ele>0.0</ele><time>2026-03-27T22:21:06.001Z</time></trkpt><trkpt lat="41.54011604162089" lon="17.902417569798477"><ele>0.0</ele><time>2026-03-27T22:21:07.001Z</time></trkpt><trkpt lat="41.540501836069915" lon="17.90463405980899"><ele>0.0</ele><time>2026-03-27T22:21:08.001Z</time></trkpt><trkpt lat="41.540878880316406" lon="17.906864252653573"><ele>0.0</ele><time>2026-03-27T22:21:09.001Z</time></trkpt><trkpt lat="41.541290940567215" lon="17.909115413500448"><ele>0.0</ele><time>2026-03-27T22:21:10.001Z</time></trkpt><trkpt lat="41.54168683437334" lon="17.911357775582097"><ele>0.0</ele><time>2026-03-27T22:21:11.001Z</time></trkpt><trkpt lat="41.542091111035035" lon="17.91360628268802"><ele>0.0</ele><time>2026-03-27T22:21:12.001Z</time></trkpt><trkpt lat="41.54248881251763" lon="17.915882893166227"><ele>0.0</ele><time>2026-03-27T22:21:13.001Z</time></trkpt><trkpt lat="41.54290229839856" lon="17.91818165077266"><ele>0.0</ele><time>2026-03-27T22:21:14.001Z</time></trkpt><trkpt lat="41.54330591972353" lon="17.92044711594625"><ele>0.0</ele><time>2026-03-27T22:21:15.001Z</time></trkpt><trkpt lat="41.54369343498011" lon="17.922707576478743"><ele>0.0</ele><time>2026-03-27T22:21:16.001Z</time></trkpt><trkpt lat="41.54411772683995" lon="17.924927217205365"><ele>0.0</ele><time>2026-03-27T22:21:17.001Z</time></trkpt><trkpt lat="41.544565432463315" lon="17.927175619722252"><ele>0.0</ele><time>2026-03-27T22:21:18.001Z</time></trkpt><trkpt lat="41.545005970867436" lon="17.929431273927598"><ele>0.0</ele><time>2026-03-27T22:21:19.001Z</time></trkpt><trkpt lat="41.54540991143552" lon="17.93168595978457"><ele>0.0</ele><time>2026-03-27T22:21:20.001Z</time></trkpt><trkpt lat="41.545818815001404" lon="17.933942411731216"><ele>0.0</ele><time>2026-03-27T22:21:21.001Z</time></trkpt><trkpt lat="41.54620776805866" lon="17.936210176435193"><ele>0.0</ele><time>2026-03-27T22:21:22.001Z</time></trkpt><trkpt lat="41.546599632289954" lon="17.938478556152145"><ele>0.0</ele><time>2026-03-27T22:21:23.001Z</time></trkpt><trkpt lat="41.547019938949" lon="17.94074829372929"><ele>0.0</ele><time>2026-03-27T22:21:24.001Z</time></trkpt><trkpt lat="41.54745169752736" lon="17.94300709291361"><ele>0.0</ele><time>2026-03-27T22:21:25.001Z</time></trkpt><trkpt lat="41.54784487897223" lon="17.94526680283693"><ele>0.0</ele><time>2026-03-27T22:21:26.001Z</time></trkpt><trkpt lat="41.54821778738792" lon="17.94751627111725"><ele>0.0</ele><time>2026-03-27T22:21:27.001Z</time></trkpt><trkpt lat="41.54859096547515" lon="17.94977681871696"><ele>0.0</ele><time>2026-03-27T22:21:28.001Z</time></trkpt><trkpt lat="41.548946595358025" lon="17.952040159845716"><ele>0.0</ele><time>2026-03-27T22:21:29.001Z</time></trkpt><trkpt lat="41.549348771159686" lon="17.954300465750833"><ele>0.0</ele><time>2026-03-27T22:21:30.001Z</time></trkpt><trkpt lat="41.5497288545046" lon="17.956559997198273"><ele>0.0</ele><time>2026-03-27T22:21:31.001Z</time></trkpt><trkpt lat="41.550116085467" lon="17.958828179589712"><ele>0.0</ele><time>2026-03-27T22:21:32.001Z</time></trkpt><trkpt lat="41.5505259613099" lon="17.961087177934758"><ele>0.0</ele><time>2026-03-27T22:21:33.001Z</time></trkpt><trkpt lat="41.550918508996155" lon="17.963343971844203"><ele>0.0</ele><time>2026-03-27T22:21:34.001Z</time></trkpt><trkpt lat="41.55130218259932" lon="17.9656108657583"><ele>0.0</ele><time>2026-03-27T22:21:35.001Z</time></trkpt><trkpt lat="41.55168957220317" lon="17.96787674526671"><ele>0.0</ele><time>2026-03-27T22:21:36.001Z</time></trkpt><trkpt lat="41.552085025018805" lon="17.970142291772202"><ele>0.0</ele><time>2026-03-27T22:21:37.001Z</time></trkpt><trkpt lat="41.55246910474659" lon="17.972407363721363"><ele>0.0</ele><time>2026-03-27T22:21:38.001Z</time></trkpt><trkpt lat="41.552854280774156" lon="17.97466320963269"><ele>0.0</ele><time>2026-03-27T22:21:39.001Z</time></trkpt><trkpt lat="41.553252833345745" lon="17.976921475546384"><ele>0.0</ele><time>2026-03-27T22:21:40.001Z</time></trkpt><trkpt lat="41.55364284829964" lon="17.979189776343286"><ele>0.0</ele><time>2026-03-27T22:21:41.001Z</time></trkpt><trkpt lat="41.55402683252981" lon="17.98146448958835"><ele>0.0</ele><time>2026-03-27T22:21:42.001Z</time></trkpt><trkpt lat="41.55439177325138" lon="17.983733273551593"><ele>0.0</ele><time>2026-03-27T22:21:43.001Z</time></trkpt><trkpt lat="41.55475394795202" lon="17.986009161885935"><ele>0.0</ele><time>2026-03-27T22:21:44.001Z</time></trkpt><trkpt lat="41.55497251548691" lon="17.98823948360404"><ele>0.0</ele><time>2026-03-27T22:21:45.001Z</time></trkpt><trkpt lat="41.55528211014856" lon="17.990464950866908"><ele>0.0</ele><time>2026-03-27T22:21:46.001Z</time></trkpt><trkpt lat="41.555686071768946" lon="17.992728487320612"><ele>0.0</ele><time>2026-03-27T22:21:47.001Z</time></trkpt><trkpt lat="41.556104976093955" lon="17.99499976337448"><ele>0.0</ele><time>2026-03-27T22:21:48.001Z</time></trkpt><trkpt lat="41.55651272975144" lon="17.997275037543364"><ele>0.0</ele><time>2026-03-27T22:21:49.001Z</time></trkpt><trkpt lat="41.55687219007857" lon="17.99953112759286"><ele>0.0</ele><time>2026-03-27T22:21:50.001Z</time></trkpt><trkpt lat="41.557240442893615" lon="18.00178338685836"><ele>0.0</ele><time>2026-03-27T22:21:51.001Z</time></trkpt><trkpt lat="41.55760363711004" lon="18.00403528788799"><ele>0.0</ele><time>2026-03-27T22:21:52.001Z</time></trkpt><trkpt lat="41.557994841145174" lon="18.006258725240546"><ele>0.0</ele><time>2026-03-27T22:21:53.001Z</time></trkpt><trkpt lat="41.55842313510438" lon="18.00849953449854"><ele>0.0</ele><time>2026-03-27T22:21:54.001Z</time></trkpt><trkpt lat="41.558826950135916" lon="18.010749651425293"><ele>0.0</ele><time>2026-03-27T22:21:55.001Z</time></trkpt><trkpt lat="41.55922445774323" lon="18.013004591782348"><ele>0.0</ele><time>2026-03-27T22:21:56.001Z</time></trkpt><trkpt lat="41.55961834608518" lon="18.01526057110683"><ele>0.0</ele><time>2026-03-27T22:21:57.001Z</time></trkpt><trkpt lat="41.56000005384763" lon="18.017522374454405"><ele>0.0</ele><time>2026-03-27T22:21:58.001Z</time></trkpt><trkpt lat="41.56037796506717" lon="18.019783315997945"><ele>0.0</ele><time>2026-03-27T22:21:59.001Z</time></trkpt><trkpt lat="41.560754460728994" lon="18.0220419916849"><ele>0.0</ele><time>2026-03-27T22:22:00.001Z</time></trkpt><trkpt lat="41.56113184527959" lon="18.02430203128236"><ele>0.0</ele><time>2026-03-27T22:22:01.001Z</time></trkpt><trkpt lat="41.5615900774827" lon="18.026585549868"><ele>0.0</ele><time>2026-03-27T22:22:02.001Z</time></trkpt><trkpt lat="41.561986087700326" lon="18.028849952508388"><ele>0.0</ele><time>2026-03-27T22:22:03.001Z</time></trkpt><trkpt lat="41.56244770701039" lon="18.031136304834074"><ele>0.0</ele><time>2026-03-27T22:22:04.001Z</time></trkpt><trkpt lat="41.562886690811396" lon="18.033426472476325"><ele>0.0</ele><time>2026-03-27T22:22:05.001Z</time></trkpt><trkpt lat="41.56323338014323" lon="18.0357212023032"><ele>0.0</ele><time>2026-03-27T22:22:06.001Z</time></trkpt><trkpt lat="41.56355971896627" lon="18.038013228248214"><ele>0.0</ele><time>2026-03-27T22:22:07.001Z</time></trkpt><trkpt lat="41.56385241078564" lon="18.040320266934867"><ele>0.0</ele><time>2026-03-27T22:22:08.001Z</time></trkpt><trkpt lat="41.564143269166976" lon="18.04263533969489"><ele>0.0</ele><time>2026-03-27T22:22:09.001Z</time></trkpt><trkpt lat="41.56439941873499" lon="18.044983676688314"><ele>0.0</ele><time>2026-03-27T22:22:10.001Z</time></trkpt><trkpt lat="41.56461801676368" lon="18.047344418146704"><ele>0.0</ele><time>2026-03-27T22:22:11.001Z</time></trkpt><trkpt lat="41.56484275232353" lon="18.0497073499756"><ele>0.0</ele><time>2026-03-27T22:22:12.001Z</time></trkpt><trkpt lat="41.565036128823046" lon="18.052062999820883"><ele>0.0</ele><time>2026-03-27T22:22:13.001Z</time></trkpt><trkpt lat="41.56509048470355" lon="18.054433778335408"><ele>0.0</ele><time>2026-03-27T22:22:14.001Z</time></trkpt><trkpt lat="41.565163637757216" lon="18.05680616197984"><ele>0.0</ele><time>2026-03-27T22:22:15.001Z</time></trkpt><trkpt lat="41.56527035376891" lon="18.059201953643353"><ele>0.0</ele><time>2026-03-27T22:22:16.001Z</time></trkpt><trkpt lat="41.56547104252518" lon="18.061573504133992"><ele>0.0</ele><time>2026-03-27T22:22:17.001Z</time></trkpt><trkpt lat="41.56568354467916" lon="18.06393886932084"><ele>0.0</ele><time>2026-03-27T22:22:18.001Z</time></trkpt><trkpt lat="41.565916540964324" lon="18.06635268956428"><ele>0.0</ele><time>2026-03-27T22:22:19.001Z</time></trkpt><trkpt lat="41.56615325075353" lon="18.06876240141694"><ele>0.0</ele><time>2026-03-27T22:22:20.001Z</time></trkpt><trkpt lat="41.56638439872002" lon="18.071140085308187"><ele>0.0</ele><time>2026-03-27T22:22:21.001Z</time></trkpt><trkpt lat="41.5664533253461" lon="18.073438268006026"><ele>0.0</ele><time>2026-03-27T22:22:22.001Z</time></trkpt><trkpt lat="41.5665299735557" lon="18.075748716687134"><ele>0.0</ele><time>2026-03-27T22:22:23.001Z</time></trkpt><trkpt lat="41.566600171741385" lon="18.078054139612732"><ele>0.0</ele><time>2026-03-27T22:22:24.001Z</time></trkpt><trkpt lat="41.5666481207422" lon="18.08056612962391"><ele>0.0</ele><time>2026-03-27T22:22:25.001Z</time></trkpt><trkpt lat="41.56678336567044" lon="18.083075811658222"><ele>0.0</ele><time>2026-03-27T22:22:26.001Z</time></trkpt><trkpt lat="41.56691067876486" lon="18.085609345830647"><ele>0.0</ele><time>2026-03-27T22:22:27.001Z</time></trkpt><trkpt lat="41.567065972840794" lon="18.088122908420875"><ele>0.0</ele><time>2026-03-27T22:22:28.001Z</time></trkpt><trkpt lat="41.56723097516368" lon="18.090572129355124"><ele>0.0</ele><time>2026-03-27T22:22:29.001Z</time></trkpt><trkpt lat="41.56740798459541" lon="18.093005372379643"><ele>0.0</ele><time>2026-03-27T22:22:30.001Z</time></trkpt><trkpt lat="41.56760532893123" lon="18.095429735185864"><ele>0.0</ele><time>2026-03-27T22:22:31.001Z</time></trkpt><trkpt lat="41.567948393680624" lon="18.100290215711944"><ele>0.0</ele><time>2026-03-27T22:22:33.001Z</time></trkpt><trkpt lat="41.56809657109019" lon="18.10272830946174"><ele>0.0</ele><time>2026-03-27T22:22:34.001Z</time></trkpt><trkpt lat="41.56826594144102" lon="18.105511685964398"><ele>0.0</ele><time>2026-03-27T22:22:35.145Z</time></trkpt><trkpt lat="41.56842710699792" lon="18.10794061195498"><ele>0.0</ele><time>2026-03-27T22:22:36.144Z</time></trkpt><trkpt lat="41.56670661153764" lon="18.110045863109107"><ele>0.0</ele><time>2026-03-27T22:22:37.147Z</time></trkpt><trkpt lat="41.56664905097717" lon="18.112442718873844"><ele>0.0</ele><time>2026-03-27T22:22:38.142Z</time></trkpt><trkpt lat="41.56662238984139" lon="18.114863666466714"><ele>0.0</ele><time>2026-03-27T22:22:39.145Z</time></trkpt><trkpt lat="41.56661274451669" lon="18.117270418007436"><ele>0.0</ele><time>2026-03-27T22:22:40.144Z</time></trkpt><trkpt lat="41.56661376840185" lon="18.11968159323739"><ele>0.0</ele><time>2026-03-27T22:22:41.144Z</time></trkpt><trkpt lat="41.56661378544511" lon="18.122090843042237"><ele>0.0</ele><time>2026-03-27T22:22:42.145Z</time></trkpt><trkpt lat="41.56727074015697" lon="18.124535713169593"><ele>0.0</ele><time>2026-03-27T22:22:43.145Z</time></trkpt><trkpt lat="41.59959341726177" lon="18.72032865806558"><ele>0.0</ele><time>2026-03-27T22:26:35.001Z</time></trkpt><trkpt lat="41.59977371860888" lon="18.72269715062652"><ele>0.0</ele><time>2026-03-27T22:26:36.001Z</time></trkpt><trkpt lat="41.59898106268951" lon="18.725871767212894"><ele>0.0</ele><time>2026-03-27T22:26:37.001Z</time></trkpt><trkpt lat="41.59904721255197" lon="18.728228587999247"><ele>0.0</ele><time>2026-03-27T22:26:38.001Z</time></trkpt><trkpt lat="41.59914380860001" lon="18.730571569711643"><ele>0.0</ele><time>2026-03-27T22:26:39.001Z</time></trkpt><trkpt lat="41.59927259410907" lon="18.732897851478135"><ele>0.0</ele><time>2026-03-27T22:26:40.001Z</time></trkpt><trkpt lat="41.59944637320058" lon="18.73518134367131"><ele>0.0</ele><time>2026-03-27T22:26:41.001Z</time></trkpt><trkpt lat="41.599621844111915" lon="18.7375119266962"><ele>0.0</ele><time>2026-03-27T22:26:42.001Z</time></trkpt><trkpt lat="41.599779606278595" lon="18.73982282752706"><ele>0.0</ele><time>2026-03-27T22:26:43.001Z</time></trkpt><trkpt lat="41.59991725962746" lon="18.742144232846183"><ele>0.0</ele><time>2026-03-27T22:26:44.001Z</time></trkpt><trkpt lat="41.6000609117883" lon="18.74447619118409"><ele>0.0</ele><time>2026-03-27T22:26:45.001Z</time></trkpt><trkpt lat="41.600167822214345" lon="18.746804279666524"><ele>0.0</ele><time>2026-03-27T22:26:46.001Z</time></trkpt><trkpt lat="41.60024936095684" lon="18.74914797802007"><ele>0.0</ele><time>2026-03-27T22:26:47.001Z</time></trkpt><trkpt lat="41.600360733866744" lon="18.75147993403022"><ele>0.0</ele><time>2026-03-27T22:26:48.001Z</time></trkpt><trkpt lat="41.60054093236977" lon="18.75380809785888"><ele>0.0</ele><time>2026-03-27T22:26:49.001Z</time></trkpt><trkpt lat="41.600710647711786" lon="18.756128017034108"><ele>0.0</ele><time>2026-03-27T22:26:50.001Z</time></trkpt><trkpt lat="41.600839572200535" lon="18.75847485505337"><ele>0.0</ele><time>2026-03-27T22:26:51.001Z</time></trkpt><trkpt lat="41.60095235548256" lon="18.760823905764205"><ele>0.0</ele><time>2026-03-27T22:26:52.001Z</time></trkpt><trkpt lat="41.601071019326014" lon="18.76317155733975"><ele>0.0</ele><time>2026-03-27T22:26:53.001Z</time></trkpt><trkpt lat="41.601200526109196" lon="18.765524169730796"><ele>0.0</ele><time>2026-03-27T22:26:54.001Z</time></trkpt><trkpt lat="41.60133382985514" lon="18.76787129851902"><ele>0.0</ele><time>2026-03-27T22:26:55.001Z</time></trkpt><trkpt lat="41.601471901820275" lon="18.770226707326586"><ele>0.0</ele><time>2026-03-27T22:26:56.001Z</time></trkpt><trkpt lat="41.601832182642866" lon="18.772576214104284"><ele>0.0</ele><time>2026-03-27T22:26:57.001Z</time></trkpt><trkpt lat="41.60197007280465" lon="18.774927097581152"><ele>0.0</ele><time>2026-03-27T22:26:58.001Z</time></trkpt><trkpt lat="41.602092215391025" lon="18.77726814907187"><ele>0.0</ele><time>2026-03-27T22:26:59.001Z</time></trkpt><trkpt lat="41.602210071910235" lon="18.77961228953543"><ele>0.0</ele><time>2026-03-27T22:27:00.001Z</time></trkpt><trkpt lat="41.60233475624267" lon="18.781944875118484"><ele>0.0</ele><time>2026-03-27T22:27:01.001Z</time></trkpt><trkpt lat="41.60247687672014" lon="18.784286806557283"><ele>0.0</ele><time>2026-03-27T22:27:02.001Z</time></trkpt><trkpt lat="41.60264027502027" lon="18.786630690538455"><ele>0.0</ele><time>2026-03-27T22:27:03.001Z</time></trkpt><trkpt lat="41.60278531170444" lon="18.788973088431216"><ele>0.0</ele><time>2026-03-27T22:27:04.001Z</time></trkpt><trkpt lat="41.6029088767579" lon="18.79131509953784"><ele>0.0</ele><time>2026-03-27T22:27:05.001Z</time></trkpt><trkpt lat="41.602947295088185" lon="18.793662228235913"><ele>0.0</ele><time>2026-03-27T22:27:06.001Z</time></trkpt><trkpt lat="41.603026159093766" lon="18.79600374803249"><ele>0.0</ele><time>2026-03-27T22:27:07.001Z</time></trkpt><trkpt lat="41.603115214179695" lon="18.798357206723367"><ele>0.0</ele><time>2026-03-27T22:27:08.001Z</time></trkpt><trkpt lat="41.60324124965972" lon="18.800706003750896"><ele>0.0</ele><time>2026-03-27T22:27:09.001Z</time></trkpt><trkpt lat="41.6033721290478" lon="18.803046740858544"><ele>0.0</ele><time>2026-03-27T22:27:10.001Z</time></trkpt><trkpt lat="41.60350939411242" lon="18.805394855594447"><ele>0.0</ele><time>2026-03-27T22:27:11.001Z</time></trkpt><trkpt lat="41.603631977587" lon="18.807742455881264"><ele>0.0</ele><time>2026-03-27T22:27:12.001Z</time></trkpt><trkpt lat="41.60377434610548" lon="18.81008650969673"><ele>0.0</ele><time>2026-03-27T22:27:13.001Z</time></trkpt><trkpt lat="41.60390536076902" lon="18.81242277651273"><ele>0.0</ele><time>2026-03-27T22:27:14.001Z</time></trkpt><trkpt lat="41.60404718219081" lon="18.814761816585463"><ele>0.0</ele><time>2026-03-27T22:27:15.001Z</time></trkpt><trkpt lat="41.60420170775927" lon="18.81707558873945"><ele>0.0</ele><time>2026-03-27T22:27:16.001Z</time></trkpt><trkpt lat="41.60434542739895" lon="18.81941664623266"><ele>0.0</ele><time>2026-03-27T22:27:17.001Z</time></trkpt><trkpt lat="41.60449998304338" lon="18.821731884485015"><ele>0.0</ele><time>2026-03-27T22:27:18.001Z</time></trkpt><trkpt lat="41.60465160737648" lon="18.824045727493168"><ele>0.0</ele><time>2026-03-27T22:27:19.001Z</time></trkpt><trkpt lat="41.60475782104097" lon="18.82635625573788"><ele>0.0</ele><time>2026-03-27T22:27:20.001Z</time></trkpt><trkpt lat="41.60487226257505" lon="18.82867033087385"><ele>0.0</ele><time>2026-03-27T22:27:21.001Z</time></trkpt><trkpt lat="41.60499441202942" lon="18.831014908563485"><ele>0.0</ele><time>2026-03-27T22:27:22.001Z</time></trkpt><trkpt lat="41.60513351680854" lon="18.83334051810991"><ele>0.0</ele><time>2026-03-27T22:27:23.001Z</time></trkpt><trkpt lat="41.6052837891442" lon="18.83565072652877"><ele>0.0</ele><time>2026-03-27T22:27:24.001Z</time></trkpt><trkpt lat="41.60544133897768" lon="18.837950526176616"><ele>0.0</ele><time>2026-03-27T22:27:25.001Z</time></trkpt><trkpt lat="41.605631636151685" lon="18.84026763768497"><ele>0.0</ele><time>2026-03-27T22:27:26.001Z</time></trkpt><trkpt lat="41.6058982229657" lon="18.84265022269159"><ele>0.0</ele><time>2026-03-27T22:27:27.001Z</time></trkpt><trkpt lat="41.60623627380129" lon="18.844949886038147"><ele>0.0</ele><time>2026-03-27T22:27:28.001Z</time></trkpt><trkpt lat="41.60667943226037" lon="18.847191504884627"><ele>0.0</ele><time>2026-03-27T22:27:29.001Z</time></trkpt><trkpt lat="41.6071473315175" lon="18.849443174863417"><ele>0.0</ele><time>2026-03-27T22:27:30.001Z</time></trkpt><trkpt lat="41.607542148467175" lon="18.851702050875044"><ele>0.0</ele><time>2026-03-27T22:27:31.001Z</time></trkpt><trkpt lat="41.60795828992278" lon="18.853975962830024"><ele>0.0</ele><time>2026-03-27T22:27:32.001Z</time></trkpt><trkpt lat="41.60840251164943" lon="18.85624267611878"><ele>0.0</ele><time>2026-03-27T22:27:33.001Z</time></trkpt><trkpt lat="41.608851913903386" lon="18.85849983071629"><ele>0.0</ele><time>2026-03-27T22:27:34.001Z</time></trkpt><trkpt lat="41.609390764321745" lon="18.860722069297587"><ele>0.0</ele><time>2026-03-27T22:27:35.001Z</time></trkpt><trkpt lat="41.61000025822055" lon="18.862908601546522"><ele>0.0</ele><time>2026-03-27T22:27:36.001Z</time></trkpt><trkpt lat="41.61055607470976" lon="18.865097436363925"><ele>0.0</ele><time>2026-03-27T22:27:37.001Z</time></trkpt><trkpt lat="41.61114144044038" lon="18.86725898338647"><ele>0.0</ele><time>2026-03-27T22:27:38.001Z</time></trkpt><trkpt lat="41.61174460995045" lon="18.8694089524655"><ele>0.0</ele><time>2026-03-27T22:27:39.001Z</time></trkpt><trkpt lat="41.6123232883234" lon="18.871534088854677"><ele>0.0</ele><time>2026-03-27T22:27:40.001Z</time></trkpt><trkpt lat="41.612878982248496" lon="18.873714544698736"><ele>0.0</ele><time>2026-03-27T22:27:41.001Z</time></trkpt><trkpt lat="41.61359031212793" lon="18.8758949472756"><ele>0.0</ele><time>2026-03-27T22:27:42.001Z</time></trkpt><trkpt lat="41.61438475180897" lon="18.87804361366087"><ele>0.0</ele><time>2026-03-27T22:27:43.001Z</time></trkpt><trkpt lat="41.6152603779879" lon="18.88014287454165"><ele>0.0</ele><time>2026-03-27T22:27:44.001Z</time></trkpt><trkpt lat="41.61614518148997" lon="18.88218402412957"><ele>0.0</ele><time>2026-03-27T22:27:45.001Z</time></trkpt><trkpt lat="41.61708431740539" lon="18.884150110885884"><ele>0.0</ele><time>2026-03-27T22:27:46.001Z</time></trkpt><trkpt lat="41.617932495932955" lon="18.886168478429138"><ele>0.0</ele><time>2026-03-27T22:27:47.001Z</time></trkpt><trkpt lat="41.61881990057666" lon="18.888160733058793"><ele>0.0</ele><time>2026-03-27T22:27:48.001Z</time></trkpt><trkpt lat="41.61974044809727" lon="18.890175247932504"><ele>0.0</ele><time>2026-03-27T22:27:49.001Z</time></trkpt><trkpt lat="41.62062578752093" lon="18.892171755645887"><ele>0.0</ele><time>2026-03-27T22:27:50.001Z</time></trkpt><trkpt lat="41.62176418265514" lon="18.893918694711278"><ele>0.0</ele><time>2026-03-27T22:27:51.001Z</time></trkpt><trkpt lat="41.62288534785255" lon="18.89566185376595"><ele>0.0</ele><time>2026-03-27T22:27:52.001Z</time></trkpt><trkpt lat="41.62406357488559" lon="18.89736051871222"><ele>0.0</ele><time>2026-03-27T22:27:53.001Z</time></trkpt><trkpt lat="41.62523336230634" lon="18.899016439797727"><ele>0.0</ele><time>2026-03-27T22:27:54.001Z</time></trkpt><trkpt lat="41.62640506676046" lon="18.900623108889"><ele>0.0</ele><time>2026-03-27T22:27:55.001Z</time></trkpt><trkpt lat="41.627532855224345" lon="18.902263905407754"><ele>0.0</ele><time>2026-03-27T22:27:56.001Z</time></trkpt><trkpt lat="41.62861301847013" lon="18.903966064268626"><ele>0.0</ele><time>2026-03-27T22:27:57.001Z</time></trkpt><trkpt lat="41.62960399941882" lon="18.90576784129167"><ele>0.0</ele><time>2026-03-27T22:27:58.001Z</time></trkpt><trkpt lat="41.63059434796158" lon="18.907550166182787"><ele>0.0</ele><time>2026-03-27T22:27:59.001Z</time></trkpt><trkpt lat="41.631580880950715" lon="18.909346251059215"><ele>0.0</ele><time>2026-03-27T22:28:00.001Z</time></trkpt><trkpt lat="41.63266931479077" lon="18.911118794094715"><ele>0.0</ele><time>2026-03-27T22:28:01.001Z</time></trkpt><trkpt lat="41.633771705545584" lon="18.912844834429364"><ele>0.0</ele><time>2026-03-27T22:28:02.001Z</time></trkpt><trkpt lat="41.634776923610126" lon="18.91458915826404"><ele>0.0</ele><time>2026-03-27T22:28:03.001Z</time></trkpt><trkpt lat="41.6357905639487" lon="18.916352385267754"><ele>0.0</ele><time>2026-03-27T22:28:04.001Z</time></trkpt><trkpt lat="41.63680850229553" lon="18.918115507457326"><ele>0.0</ele><time>2026-03-27T22:28:05.001Z</time></trkpt><trkpt lat="41.63782839854301" lon="18.91987925783637"><ele>0.0</ele><time>2026-03-27T22:28:06.001Z</time></trkpt><trkpt lat="41.63882496942747" lon="18.921627879607964"><ele>0.0</ele><time>2026-03-27T22:28:07.001Z</time></trkpt><trkpt lat="41.639861747357294" lon="18.923400569118677"><ele>0.0</ele><time>2026-03-27T22:28:08.001Z</time></trkpt><trkpt lat="41.640912290148215" lon="18.925192977136938"><ele>0.0</ele><time>2026-03-27T22:28:09.001Z</time></trkpt><trkpt lat="41.64199713872122" lon="18.926971179926838"><ele>0.0</ele><time>2026-03-27T22:28:10.001Z</time></trkpt><trkpt lat="41.64307970595791" lon="18.928741312635875"><ele>0.0</ele><time>2026-03-27T22:28:11.001Z</time></trkpt><trkpt lat="41.643842334902914" lon="18.931075486529203"><ele>0.0</ele><time>2026-03-27T22:28:12.001Z</time></trkpt><trkpt lat="41.64484730193197" lon="18.932884410504446"><ele>0.0</ele><time>2026-03-27T22:28:13.001Z</time></trkpt><trkpt lat="41.64583516868746" lon="18.934688222065414"><ele>0.0</ele><time>2026-03-27T22:28:14Z</time></trkpt><trkpt lat="41.64688395274418" lon="18.93649486517533"><ele>0.0</ele><time>2026-03-27T22:28:15Z</time></trkpt><trkpt lat="41.64794787428118" lon="18.938310661659745"><ele>0.0</ele><time>2026-03-27T22:28:16Z</time></trkpt><trkpt lat="41.64901430795618" lon="18.94012100524645"><ele>0.0</ele><time>2026-03-27T22:28:17Z</time></trkpt><trkpt lat="41.650059970111265" lon="18.941945928585245"><ele>0.0</ele><time>2026-03-27T22:28:18Z</time></trkpt><trkpt lat="41.65110870430934" lon="18.943766150677316"><ele>0.0</ele><time>2026-03-27T22:28:19Z</time></trkpt><trkpt lat="41.65215053561158" lon="18.94559286328139"><ele>0.0</ele><time>2026-03-27T22:28:20Z</time></trkpt><trkpt lat="41.65313828308291" lon="18.94744055612372"><ele>0.0</ele><time>2026-03-27T22:28:21Z</time></trkpt><trkpt lat="41.654121750594705" lon="18.94930439207208"><ele>0.0</ele><time>2026-03-27T22:28:22Z</time></trkpt><trkpt lat="41.655102653071026" lon="18.951163156333084"><ele>0.0</ele><time>2026-03-27T22:28:23Z</time></trkpt><trkpt lat="41.65611935026859" lon="18.952995896627282"><ele>0.0</ele><time>2026-03-27T22:28:24Z</time></trkpt><trkpt lat="41.65712874124184" lon="18.954818697587214"><ele>0.0</ele><time>2026-03-27T22:28:25Z</time></trkpt><trkpt lat="41.658139416932194" lon="18.956615210170433"><ele>0.0</ele><time>2026-03-27T22:28:26Z</time></trkpt><trkpt lat="41.65913779965" lon="18.95843262457134"><ele>0.0</ele><time>2026-03-27T22:28:27Z</time></trkpt><trkpt lat="41.66012348105425" lon="18.960267794957304"><ele>0.0</ele><time>2026-03-27T22:28:28Z</time></trkpt><trkpt lat="41.66101802893448" lon="18.962117558152254"><ele>0.0</ele><time>2026-03-27T22:28:29Z</time></trkpt><trkpt lat="41.661994755316954" lon="18.963912833611552"><ele>0.0</ele><time>2026-03-27T22:28:30Z</time></trkpt><trkpt lat="41.66297890991234" lon="18.96572427514164"><ele>0.0</ele><time>2026-03-27T22:28:31Z</time></trkpt><trkpt lat="41.663973957361534" lon="18.96752412562846"><ele>0.0</ele><time>2026-03-27T22:28:32Z</time></trkpt><trkpt lat="41.66495642329599" lon="18.969311650304657"><ele>0.0</ele><time>2026-03-27T22:28:33Z</time></trkpt><trkpt lat="41.665937018314494" lon="18.9710984223354"><ele>0.0</ele><time>2026-03-27T22:28:34Z</time></trkpt><trkpt lat="41.666789326032294" lon="18.972921934893165"><ele>0.0</ele><time>2026-03-27T22:28:35Z</time></trkpt><trkpt lat="41.667776034719104" lon="18.974687704352217"><ele>0.0</ele><time>2026-03-27T22:28:36Z</time></trkpt><trkpt lat="41.669017508351295" lon="18.976077292480515"><ele>0.0</ele><time>2026-03-27T22:28:37Z</time></trkpt><trkpt lat="41.67001711319618" lon="18.977827064341582"><ele>0.0</ele><time>2026-03-27T22:28:38Z</time></trkpt><trkpt lat="41.671008882285804" lon="18.979574109521078"><ele>0.0</ele><time>2026-03-27T22:28:39Z</time></trkpt><trkpt lat="41.67199686095607" lon="18.981283592020738"><ele>0.0</ele><time>2026-03-27T22:28:40Z</time></trkpt><trkpt lat="41.67295152493552" lon="18.98300670183811"><ele>0.0</ele><time>2026-03-27T22:28:41Z</time></trkpt><trkpt lat="41.67390570711513" lon="18.984735415956752"><ele>0.0</ele><time>2026-03-27T22:28:42Z</time></trkpt><trkpt lat="41.6748669281979" lon="18.98645940484409"><ele>0.0</ele><time>2026-03-27T22:28:43Z</time></trkpt><trkpt lat="41.67582954280679" lon="18.98818023232728"><ele>0.0</ele><time>2026-03-27T22:28:44Z</time></trkpt><trkpt lat="41.676782715833916" lon="18.989881389298787"><ele>0.0</ele><time>2026-03-27T22:28:45Z</time></trkpt><trkpt lat="41.67775240145687" lon="18.991574511259643"><ele>0.0</ele><time>2026-03-27T22:28:46Z</time></trkpt><trkpt lat="41.678702892557546" lon="18.993267286533356"><ele>0.0</ele><time>2026-03-27T22:28:47Z</time></trkpt><trkpt lat="41.67965442896062" lon="18.994967389868112"><ele>0.0</ele><time>2026-03-27T22:28:48Z</time></trkpt><trkpt lat="41.68059761137735" lon="18.996670664228816"><ele>0.0</ele><time>2026-03-27T22:28:49Z</time></trkpt><trkpt lat="41.68153944209404" lon="18.998383007107112"><ele>0.0</ele><time>2026-03-27T22:28:50Z</time></trkpt><trkpt lat="41.682486205709615" lon="19.000084784638304"><ele>0.0</ele><time>2026-03-27T22:28:51Z</time></trkpt><trkpt lat="41.68341452787177" lon="19.001771213427165"><ele>0.0</ele><time>2026-03-27T22:28:52Z</time></trkpt><trkpt lat="41.68437097650992" lon="19.003452297066694"><ele>0.0</ele><time>2026-03-27T22:28:53Z</time></trkpt><trkpt lat="41.68532083787611" lon="19.005128912258506"><ele>0.0</ele><time>2026-03-27T22:28:54Z</time></trkpt><trkpt lat="41.686262425260885" lon="19.00681223642231"><ele>0.0</ele><time>2026-03-27T22:28:55Z</time></trkpt><trkpt lat="41.68719417044266" lon="19.008519852858896"><ele>0.0</ele><time>2026-03-27T22:28:56Z</time></trkpt><trkpt lat="41.688104079738075" lon="19.0102729071965"><ele>0.0</ele><time>2026-03-27T22:28:57Z</time></trkpt><trkpt lat="41.68904046039528" lon="19.011952374051656"><ele>0.0</ele><time>2026-03-27T22:28:58Z</time></trkpt><trkpt lat="41.68996146169329" lon="19.013624521393787"><ele>0.0</ele><time>2026-03-27T22:28:59Z</time></trkpt><trkpt lat="41.690908836781816" lon="19.01527838078859"><ele>0.0</ele><time>2026-03-27T22:29:00Z</time></trkpt><trkpt lat="41.69185494253113" lon="19.016985273851724"><ele>0.0</ele><time>2026-03-27T22:29:01Z</time></trkpt><trkpt lat="41.69276096559444" lon="19.01874431861847"><ele>0.0</ele><time>2026-03-27T22:29:02Z</time></trkpt><trkpt lat="41.69368563852374" lon="19.02045188720108"><ele>0.0</ele><time>2026-03-27T22:29:03Z</time></trkpt><trkpt lat="41.69463715847621" lon="19.02209325187832"><ele>0.0</ele><time>2026-03-27T22:29:04Z</time></trkpt><trkpt lat="41.69556050722394" lon="19.02372456667941"><ele>0.0</ele><time>2026-03-27T22:29:05Z</time></trkpt><trkpt lat="41.69647196724989" lon="19.02539086770622"><ele>0.0</ele><time>2026-03-27T22:29:06Z</time></trkpt><trkpt lat="41.69739396495247" lon="19.027041230683043"><ele>0.0</ele><time>2026-03-27T22:29:07Z</time></trkpt><trkpt lat="41.69831131925748" lon="19.028690693294063"><ele>0.0</ele><time>2026-03-27T22:29:08Z</time></trkpt><trkpt lat="41.69922529228087" lon="19.0303254345631"><ele>0.0</ele><time>2026-03-27T22:29:09Z</time></trkpt><trkpt lat="41.70015236524572" lon="19.031946463745765"><ele>0.0</ele><time>2026-03-27T22:29:10Z</time></trkpt><trkpt lat="41.70107224859591" lon="19.033544749375473"><ele>0.0</ele><time>2026-03-27T22:29:11Z</time></trkpt><trkpt lat="41.70197517602815" lon="19.035149538538107"><ele>0.0</ele><time>2026-03-27T22:29:12Z</time></trkpt><trkpt lat="41.702884488265234" lon="19.036776203752417"><ele>0.0</ele><time>2026-03-27T22:29:13Z</time></trkpt><trkpt lat="41.703776864016774" lon="19.038437675499736"><ele>0.0</ele><time>2026-03-27T22:29:14Z</time></trkpt><trkpt lat="41.70467262675669" lon="19.040079512198655"><ele>0.0</ele><time>2026-03-27T22:29:15Z</time></trkpt><trkpt lat="41.70557560921753" lon="19.04172673284922"><ele>0.0</ele><time>2026-03-27T22:29:16Z</time></trkpt><trkpt lat="41.70645734499604" lon="19.043335609149715"><ele>0.0</ele><time>2026-03-27T22:29:17Z</time></trkpt><trkpt lat="41.70734338513652" lon="19.044956796388657"><ele>0.0</ele><time>2026-03-27T22:29:18Z</time></trkpt><trkpt lat="41.70824895707083" lon="19.046579938388803"><ele>0.0</ele><time>2026-03-27T22:29:19Z</time></trkpt><trkpt lat="41.70915415892709" lon="19.04818181219106"><ele>0.0</ele><time>2026-03-27T22:29:20Z</time></trkpt><trkpt lat="41.71006442666728" lon="19.04977435890801"><ele>0.0</ele><time>2026-03-27T22:29:21Z</time></trkpt><trkpt lat="41.71096694471389" lon="19.051367802914587"><ele>0.0</ele><time>2026-03-27T22:29:22Z</time></trkpt><trkpt lat="41.711871732455684" lon="19.05296316416651"><ele>0.0</ele><time>2026-03-27T22:29:23Z</time></trkpt><trkpt lat="41.71277698554675" lon="19.05453659095283"><ele>0.0</ele><time>2026-03-27T22:29:24Z</time></trkpt><trkpt lat="41.71367877977557" lon="19.056104639917336"><ele>0.0</ele><time>2026-03-27T22:29:25Z</time></trkpt><trkpt lat="41.714570307268694" lon="19.057677425034314"><ele>0.0</ele><time>2026-03-27T22:29:26Z</time></trkpt><trkpt lat="41.71547262777417" lon="19.059252591458957"><ele>0.0</ele><time>2026-03-27T22:29:27Z</time></trkpt><trkpt lat="41.71636408608951" lon="19.06082427740328"><ele>0.0</ele><time>2026-03-27T22:29:28Z</time></trkpt><trkpt lat="41.717185030270585" lon="19.06241565684265"><ele>0.0</ele><time>2026-03-27T22:29:29Z</time></trkpt><trkpt lat="41.71802277573885" lon="19.0639954451427"><ele>0.0</ele><time>2026-03-27T22:29:30Z</time></trkpt><trkpt lat="41.71891469523569" lon="19.065554485065313"><ele>0.0</ele><time>2026-03-27T22:29:31Z</time></trkpt><trkpt lat="41.71975438844193" lon="19.067122882752667"><ele>0.0</ele><time>2026-03-27T22:29:32.001Z</time></trkpt><trkpt lat="41.72057514235525" lon="19.068695111849014"><ele>0.0</ele><time>2026-03-27T22:29:33.001Z</time></trkpt><trkpt lat="41.721450793016686" lon="19.070241069579875"><ele>0.0</ele><time>2026-03-27T22:29:34.001Z</time></trkpt><trkpt lat="41.72231077458558" lon="19.071795442460218"><ele>0.0</ele><time>2026-03-27T22:29:35.001Z</time></trkpt><trkpt lat="41.72316435983986" lon="19.073350040274573"><ele>0.0</ele><time>2026-03-27T22:29:36.001Z</time></trkpt><trkpt lat="41.72400980919875" lon="19.07491364934424"><ele>0.0</ele><time>2026-03-27T22:29:37.001Z</time></trkpt><trkpt lat="41.72483398089999" lon="19.076453281730416"><ele>0.0</ele><time>2026-03-27T22:29:38.001Z</time></trkpt><trkpt lat="41.72565776747916" lon="19.07799372464845"><ele>0.0</ele><time>2026-03-27T22:29:39.001Z</time></trkpt><trkpt lat="41.72650431433144" lon="19.079511346824066"><ele>0.0</ele><time>2026-03-27T22:29:40.001Z</time></trkpt><trkpt lat="41.72733815973264" lon="19.081032121579884"><ele>0.0</ele><time>2026-03-27T22:29:41.001Z</time></trkpt><trkpt lat="41.728165033297905" lon="19.082549009267215"><ele>0.0</ele><time>2026-03-27T22:29:42.001Z</time></trkpt><trkpt lat="41.729010017013955" lon="19.084053744461453"><ele>0.0</ele><time>2026-03-27T22:29:43.001Z</time></trkpt><trkpt lat="41.72986329280085" lon="19.085571400285186"><ele>0.0</ele><time>2026-03-27T22:29:44.001Z</time></trkpt><trkpt lat="41.730719713211194" lon="19.087092322351317"><ele>0.0</ele><time>2026-03-27T22:29:45.001Z</time></trkpt><trkpt lat="41.731558600852495" lon="19.088626856777914"><ele>0.0</ele><time>2026-03-27T22:29:46.001Z</time></trkpt><trkpt lat="41.732381321058554" lon="19.090167974836994"><ele>0.0</ele><time>2026-03-27T22:29:47.001Z</time></trkpt><trkpt lat="41.73321258976013" lon="19.09169687938913"><ele>0.0</ele><time>2026-03-27T22:29:48.001Z</time></trkpt><trkpt lat="41.73404704108319" lon="19.09320952079336"><ele>0.0</ele><time>2026-03-27T22:29:49.001Z</time></trkpt><trkpt lat="41.73486049352764" lon="19.094725164365876"><ele>0.0</ele><time>2026-03-27T22:29:50.001Z</time></trkpt><trkpt lat="41.73570190360647" lon="19.096239018957224"><ele>0.0</ele><time>2026-03-27T22:29:51.001Z</time></trkpt><trkpt lat="41.73654436715098" lon="19.097752790165206"><ele>0.0</ele><time>2026-03-27T22:29:52Z</time></trkpt><trkpt lat="41.73735562012149" lon="19.09927528788239"><ele>0.0</ele><time>2026-03-27T22:29:53Z</time></trkpt><trkpt lat="41.73817196495178" lon="19.100791812068582"><ele>0.0</ele><time>2026-03-27T22:29:54Z</time></trkpt><trkpt lat="41.73900252412569" lon="19.102306391534082"><ele>0.0</ele><time>2026-03-27T22:29:55Z</time></trkpt><trkpt lat="41.7398420014088" lon="19.103813796784312"><ele>0.0</ele><time>2026-03-27T22:29:56Z</time></trkpt><trkpt lat="41.740653909774984" lon="19.10533271441866"><ele>0.0</ele><time>2026-03-27T22:29:57Z</time></trkpt><trkpt lat="41.74148352141218" lon="19.106825911608535"><ele>0.0</ele><time>2026-03-27T22:29:58Z</time></trkpt><trkpt lat="41.74230888707662" lon="19.108321596679588"><ele>0.0</ele><time>2026-03-27T22:29:59Z</time></trkpt><trkpt lat="41.74314163583185" lon="19.109805727653253"><ele>0.0</ele><time>2026-03-27T22:30:00Z</time></trkpt><trkpt lat="41.74398747982608" lon="19.111297398215928"><ele>0.0</ele><time>2026-03-27T22:30:01Z</time></trkpt><trkpt lat="41.744804596066395" lon="19.112788303814543"><ele>0.0</ele><time>2026-03-27T22:30:02Z</time></trkpt><trkpt lat="41.7456428060575" lon="19.114256924198425"><ele>0.0</ele><time>2026-03-27T22:30:03Z</time></trkpt><trkpt lat="41.74649231474458" lon="19.115744924143158"><ele>0.0</ele><time>2026-03-27T22:30:04Z</time></trkpt><trkpt lat="41.74735452737438" lon="19.117233590854163"><ele>0.0</ele><time>2026-03-27T22:30:05Z</time></trkpt><trkpt lat="41.748220483356" lon="19.11869470643999"><ele>0.0</ele><time>2026-03-27T22:30:06Z</time></trkpt><trkpt lat="41.74906873540962" lon="19.120152441020103"><ele>0.0</ele><time>2026-03-27T22:30:07Z</time></trkpt><trkpt lat="41.74991577739608" lon="19.121626013521812"><ele>0.0</ele><time>2026-03-27T22:30:08Z</time></trkpt><trkpt lat="41.75078285303881" lon="19.123081905995512"><ele>0.0</ele><time>2026-03-27T22:30:09Z</time></trkpt><trkpt lat="41.75164001425585" lon="19.124554505915015"><ele>0.0</ele><time>2026-03-27T22:30:10Z</time></trkpt><trkpt lat="41.75245001234467" lon="19.126046713467304"><ele>0.0</ele><time>2026-03-27T22:30:11Z</time></trkpt><trkpt lat="41.75324325987515" lon="19.127520092903616"><ele>0.0</ele><time>2026-03-27T22:30:12Z</time></trkpt><trkpt lat="41.75403492724167" lon="19.129025849023602"><ele>0.0</ele><time>2026-03-27T22:30:13Z</time></trkpt><trkpt lat="41.754868447063785" lon="19.130521108513946"><ele>0.0</ele><time>2026-03-27T22:30:14Z</time></trkpt><trkpt lat="41.75569782699081" lon="19.1320210306393"><ele>0.0</ele><time>2026-03-27T22:30:15Z</time></trkpt><trkpt lat="41.75654541021349" lon="19.133501717882027"><ele>0.0</ele><time>2026-03-27T22:30:16Z</time></trkpt><trkpt lat="41.757372219886314" lon="19.13499676405849"><ele>0.0</ele><time>2026-03-27T22:30:17Z</time></trkpt><trkpt lat="41.758233337481" lon="19.136462655719928"><ele>0.0</ele><time>2026-03-27T22:30:18Z</time></trkpt><trkpt lat="41.75909683341066" lon="19.1379237731755"><ele>0.0</ele><time>2026-03-27T22:30:19Z</time></trkpt><trkpt lat="41.75993972137655" lon="19.139390182942645"><ele>0.0</ele><time>2026-03-27T22:30:20Z</time></trkpt><trkpt lat="41.7607798021842" lon="19.140850040830884"><ele>0.0</ele><time>2026-03-27T22:30:21Z</time></trkpt><trkpt lat="41.761623619796005" lon="19.1423162585881"><ele>0.0</ele><time>2026-03-27T22:30:22Z</time></trkpt><trkpt lat="41.76245262029532" lon="19.143783243394587"><ele>0.0</ele><time>2026-03-27T22:30:23Z</time></trkpt><trkpt lat="41.76330079962947" lon="19.14524375518772"><ele>0.0</ele><time>2026-03-27T22:30:24Z</time></trkpt><trkpt lat="41.764156720336395" lon="19.146691962617137"><ele>0.0</ele><time>2026-03-27T22:30:25Z</time></trkpt><trkpt lat="41.76494967608114" lon="19.14816595727717"><ele>0.0</ele><time>2026-03-27T22:30:26Z</time></trkpt><trkpt lat="41.765734324903526" lon="19.1496539050722"><ele>0.0</ele><time>2026-03-27T22:30:27Z</time></trkpt><trkpt lat="41.766519416661374" lon="19.151132802732423"><ele>0.0</ele><time>2026-03-27T22:30:28Z</time></trkpt><trkpt lat="41.767344242646736" lon="19.15260872991082"><ele>0.0</ele><time>2026-03-27T22:30:29Z</time></trkpt><trkpt lat="41.76818575812671" lon="19.15408034315477"><ele>0.0</ele><time>2026-03-27T22:30:30Z</time></trkpt><trkpt lat="41.76903311926524" lon="19.15553398785036"><ele>0.0</ele><time>2026-03-27T22:30:31Z</time></trkpt><trkpt lat="41.769865009365304" lon="19.15699176466439"><ele>0.0</ele><time>2026-03-27T22:30:32Z</time></trkpt><trkpt lat="41.77067098006783" lon="19.158462786670306"><ele>0.0</ele><time>2026-03-27T22:30:33Z</time></trkpt><trkpt lat="41.77147519322326" lon="19.159933802508878"><ele>0.0</ele><time>2026-03-27T22:30:34Z</time></trkpt><trkpt lat="41.77231960633746" lon="19.161378573482807"><ele>0.0</ele><time>2026-03-27T22:30:35Z</time></trkpt><trkpt lat="41.77311873896837" lon="19.162845836770195"><ele>0.0</ele><time>2026-03-27T22:30:36Z</time></trkpt><trkpt lat="41.77391210995853" lon="19.164319400401336"><ele>0.0</ele><time>2026-03-27T22:30:37Z</time></trkpt><trkpt lat="41.77471979241833" lon="19.165784666686832"><ele>0.0</ele><time>2026-03-27T22:30:38Z</time></trkpt><trkpt lat="41.77552016244828" lon="19.167232973722708"><ele>0.0</ele><time>2026-03-27T22:30:39Z</time></trkpt><trkpt lat="41.77631038433855" lon="19.16869969967808"><ele>0.0</ele><time>2026-03-27T22:30:40Z</time></trkpt><trkpt lat="41.77712561187222" lon="19.170182331796102"><ele>0.0</ele><time>2026-03-27T22:30:41Z</time></trkpt><trkpt lat="41.77792776250028" lon="19.17166269629637"><ele>0.0</ele><time>2026-03-27T22:30:42Z</time></trkpt><trkpt lat="41.77871270668743" lon="19.173144814301175"><ele>0.0</ele><time>2026-03-27T22:30:43Z</time></trkpt><trkpt lat="41.77947530577321" lon="19.17463710741413"><ele>0.0</ele><time>2026-03-27T22:30:44Z</time></trkpt><trkpt lat="41.78025405270231" lon="19.176127092194918"><ele>0.0</ele><time>2026-03-27T22:30:45Z</time></trkpt><trkpt lat="41.78104405211847" lon="19.177624445819635"><ele>0.0</ele><time>2026-03-27T22:30:46Z</time></trkpt><trkpt lat="41.78183528870571" lon="19.17910919106589"><ele>0.0</ele><time>2026-03-27T22:30:47Z</time></trkpt><trkpt lat="41.782650035613315" lon="19.180609697222305"><ele>0.0</ele><time>2026-03-27T22:30:48Z</time></trkpt><trkpt lat="41.78348511161087" lon="19.182061894243713"><ele>0.0</ele><time>2026-03-27T22:30:49Z</time></trkpt><trkpt lat="41.78431572907422" lon="19.183504889721483"><ele>0.0</ele><time>2026-03-27T22:30:50Z</time></trkpt><trkpt lat="41.78517504893725" lon="19.184925537423126"><ele>0.0</ele><time>2026-03-27T22:30:51Z</time></trkpt><trkpt lat="41.786012882032146" lon="19.186343013563462"><ele>0.0</ele><time>2026-03-27T22:30:52Z</time></trkpt><trkpt lat="41.78682029282553" lon="19.187767624755637"><ele>0.0</ele><time>2026-03-27T22:30:53Z</time></trkpt><trkpt lat="41.78762714399604" lon="19.189169081407353"><ele>0.0</ele><time>2026-03-27T22:30:54Z</time></trkpt><trkpt lat="41.78846649624235" lon="19.190636876871153"><ele>0.0</ele><time>2026-03-27T22:30:55Z</time></trkpt><trkpt lat="41.78928066448146" lon="19.19211888207154"><ele>0.0</ele><time>2026-03-27T22:30:56Z</time></trkpt><trkpt lat="41.79007198628596" lon="19.19370947859531"><ele>0.0</ele><time>2026-03-27T22:30:57Z</time></trkpt><trkpt lat="41.79077134346113" lon="19.19529144332594"><ele>0.0</ele><time>2026-03-27T22:30:58Z</time></trkpt><trkpt lat="41.791454144971524" lon="19.196860060620605"><ele>0.0</ele><time>2026-03-27T22:30:59Z</time></trkpt><trkpt lat="41.79215625309112" lon="19.19841387500561"><ele>0.0</ele><time>2026-03-27T22:31:00Z</time></trkpt><trkpt lat="41.792768501777786" lon="19.200008268212404"><ele>0.0</ele><time>2026-03-27T22:31:01Z</time></trkpt><trkpt lat="41.793283486709704" lon="19.201654503525603"><ele>0.0</ele><time>2026-03-27T22:31:02Z</time></trkpt><trkpt lat="41.793769608878726" lon="19.203337980572815"><ele>0.0</ele><time>2026-03-27T22:31:03Z</time></trkpt><trkpt lat="41.79435482190562" lon="19.205000676570048"><ele>0.0</ele><time>2026-03-27T22:31:04Z</time></trkpt><trkpt lat="41.79488601629989" lon="19.206670738116564"><ele>0.0</ele><time>2026-03-27T22:31:05Z</time></trkpt><trkpt lat="41.79540772272105" lon="19.208350560115136"><ele>0.0</ele><time>2026-03-27T22:31:06Z</time></trkpt><trkpt lat="41.79589657658519" lon="19.210015255458227"><ele>0.0</ele><time>2026-03-27T22:31:07Z</time></trkpt><trkpt lat="41.7963134509313" lon="19.211668872410865"><ele>0.0</ele><time>2026-03-27T22:31:08Z</time></trkpt><trkpt lat="41.79673581178039" lon="19.213395043121647"><ele>0.0</ele><time>2026-03-27T22:31:09Z</time></trkpt><trkpt lat="41.797154146023885" lon="19.21501643097513"><ele>0.0</ele><time>2026-03-27T22:31:10Z</time></trkpt><trkpt lat="41.797498740581226" lon="19.216605762848882"><ele>0.0</ele><time>2026-03-27T22:31:11Z</time></trkpt><trkpt lat="41.79770924397769" lon="19.218267351858355"><ele>0.0</ele><time>2026-03-27T22:31:12Z</time></trkpt><trkpt lat="41.79788275784498" lon="19.21998231134882"><ele>0.0</ele><time>2026-03-27T22:31:13Z</time></trkpt><trkpt lat="41.79751989636013" lon="19.2219142315322"><ele>0.0</ele><time>2026-03-27T22:31:14Z</time></trkpt><trkpt lat="41.79751742690459" lon="19.223728826254202"><ele>0.0</ele><time>2026-03-27T22:31:15Z</time></trkpt><trkpt lat="41.7975673595807" lon="19.225519329182838"><ele>0.0</ele><time>2026-03-27T22:31:16Z</time></trkpt><trkpt lat="41.79775880973516" lon="19.227265550491204"><ele>0.0</ele><time>2026-03-27T22:31:17Z</time></trkpt><trkpt lat="41.79786431652522" lon="19.229037755237258"><ele>0.0</ele><time>2026-03-27T22:31:18Z</time></trkpt><trkpt lat="41.79787838284741" lon="19.230797223989633"><ele>0.0</ele><time>2026-03-27T22:31:19Z</time></trkpt><trkpt lat="41.79778055036072" lon="19.23257825259277"><ele>0.0</ele><time>2026-03-27T22:31:20Z</time></trkpt><trkpt lat="41.797646071115004" lon="19.23434327325926"><ele>0.0</ele><time>2026-03-27T22:31:21Z</time></trkpt><trkpt lat="41.79652755879253" lon="19.23683970138878"><ele>0.0</ele><time>2026-03-27T22:31:22Z</time></trkpt><trkpt lat="41.796300910554585" lon="19.23864010510853"><ele>0.0</ele><time>2026-03-27T22:31:23Z</time></trkpt><trkpt lat="41.79606777422992" lon="19.24042647997945"><ele>0.0</ele><time>2026-03-27T22:31:24Z</time></trkpt><trkpt lat="41.795825495234055" lon="19.2421906738168"><ele>0.0</ele><time>2026-03-27T22:31:25Z</time></trkpt><trkpt lat="41.795591003435796" lon="19.24394023589973"><ele>0.0</ele><time>2026-03-27T22:31:26Z</time></trkpt><trkpt lat="41.795362202944546" lon="19.245693212173236"><ele>0.0</ele><time>2026-03-27T22:31:27Z</time></trkpt><trkpt lat="41.79509386413327" lon="19.247436068112318"><ele>0.0</ele><time>2026-03-27T22:31:28Z</time></trkpt><trkpt lat="41.794788579377354" lon="19.24914810390605"><ele>0.0</ele><time>2026-03-27T22:31:29Z</time></trkpt><trkpt lat="41.79437361923686" lon="19.250847242273405"><ele>0.0</ele><time>2026-03-27T22:31:30Z</time></trkpt><trkpt lat="41.79393394457254" lon="19.25252522046764"><ele>0.0</ele><time>2026-03-27T22:31:31Z</time></trkpt><trkpt lat="41.79345206309135" lon="19.254198562012384"><ele>0.0</ele><time>2026-03-27T22:31:32Z</time></trkpt><trkpt lat="41.792956946533465" lon="19.255865817448544"><ele>0.0</ele><time>2026-03-27T22:31:33Z</time></trkpt><trkpt lat="41.7924445729507" lon="19.25754719252234"><ele>0.0</ele><time>2026-03-27T22:31:34Z</time></trkpt><trkpt lat="41.79190024743074" lon="19.259191873349412"><ele>0.0</ele><time>2026-03-27T22:31:35Z</time></trkpt><trkpt lat="41.791359383487055" lon="19.260795434221485"><ele>0.0</ele><time>2026-03-27T22:31:36Z</time></trkpt><trkpt lat="41.790826818004106" lon="19.262404568256994"><ele>0.0</ele><time>2026-03-27T22:31:37Z</time></trkpt><trkpt lat="41.79029033613107" lon="19.263997543054412"><ele>0.0</ele><time>2026-03-27T22:31:38Z</time></trkpt><trkpt lat="41.78976276437042" lon="19.265614948638408"><ele>0.0</ele><time>2026-03-27T22:31:39Z</time></trkpt><trkpt lat="41.7892129901603" lon="19.267215565994167"><ele>0.0</ele><time>2026-03-27T22:31:40Z</time></trkpt><trkpt lat="41.78863589787054" lon="19.268810233924135"><ele>0.0</ele><time>2026-03-27T22:31:41Z</time></trkpt><trkpt lat="41.78805787720533" lon="19.270403805159066"><ele>0.0</ele><time>2026-03-27T22:31:42Z</time></trkpt><trkpt lat="41.78749827060884" lon="19.271998628046745"><ele>0.0</ele><time>2026-03-27T22:31:43Z</time></trkpt><trkpt lat="41.78695369496867" lon="19.273613210997397"><ele>0.0</ele><time>2026-03-27T22:31:44Z</time></trkpt><trkpt lat="41.78640186136937" lon="19.275228134351575"><ele>0.0</ele><time>2026-03-27T22:31:45Z</time></trkpt><trkpt lat="41.785849125626264" lon="19.276831402165552"><ele>0.0</ele><time>2026-03-27T22:31:46Z</time></trkpt><trkpt lat="41.78531581777779" lon="19.278426804391877"><ele>0.0</ele><time>2026-03-27T22:31:47Z</time></trkpt><trkpt lat="41.78553940029621" lon="19.280081980919302"><ele>0.0</ele><time>2026-03-27T22:31:48Z</time></trkpt><trkpt lat="41.78495213222544" lon="19.28164595482375"><ele>0.0</ele><time>2026-03-27T22:31:49Z</time></trkpt><trkpt lat="41.78438272127731" lon="19.28320898710392"><ele>0.0</ele><time>2026-03-27T22:31:50Z</time></trkpt><trkpt lat="41.78391439037877" lon="19.28476257487198"><ele>0.0</ele><time>2026-03-27T22:31:51Z</time></trkpt><trkpt lat="41.783410315339076" lon="19.28632081294291"><ele>0.0</ele><time>2026-03-27T22:31:52Z</time></trkpt><trkpt lat="41.78291585283995" lon="19.28788910410799"><ele>0.0</ele><time>2026-03-27T22:31:53Z</time></trkpt><trkpt lat="41.782437750686185" lon="19.289447905985902"><ele>0.0</ele><time>2026-03-27T22:31:54Z</time></trkpt><trkpt lat="41.781886592068226" lon="19.29099845916481"><ele>0.0</ele><time>2026-03-27T22:31:55Z</time></trkpt><trkpt lat="41.78131459265392" lon="19.292552576153344"><ele>0.0</ele><time>2026-03-27T22:31:56Z</time></trkpt><trkpt lat="41.780785390597025" lon="19.294115933392472"><ele>0.0</ele><time>2026-03-27T22:31:57Z</time></trkpt><trkpt lat="41.780271191739786" lon="19.295690274304086"><ele>0.0</ele><time>2026-03-27T22:31:58Z</time></trkpt><trkpt lat="41.77976079417194" lon="19.297278029572492"><ele>0.0</ele><time>2026-03-27T22:31:59.001Z</time></trkpt><trkpt lat="41.779262622391165" lon="19.29886634245536"><ele>0.0</ele><time>2026-03-27T22:32:00.001Z</time></trkpt><trkpt lat="41.778755239867" lon="19.30046080525181"><ele>0.0</ele><time>2026-03-27T22:32:01.001Z</time></trkpt><trkpt lat="41.77825086868285" lon="19.30206295780141"><ele>0.0</ele><time>2026-03-27T22:32:02Z</time></trkpt><trkpt lat="41.777720741599815" lon="19.303641449611302"><ele>0.0</ele><time>2026-03-27T22:32:03Z</time></trkpt><trkpt lat="41.77721666211718" lon="19.305229960677234"><ele>0.0</ele><time>2026-03-27T22:32:04Z</time></trkpt><trkpt lat="41.7767438061154" lon="19.306857365800344"><ele>0.0</ele><time>2026-03-27T22:32:05Z</time></trkpt><trkpt lat="41.776262690013105" lon="19.308474684421327"><ele>0.0</ele><time>2026-03-27T22:32:06Z</time></trkpt><trkpt lat="41.775792206101016" lon="19.310082628879602"><ele>0.0</ele><time>2026-03-27T22:32:07Z</time></trkpt><trkpt lat="41.77533798540754" lon="19.31171869942408"><ele>0.0</ele><time>2026-03-27T22:32:08Z</time></trkpt><trkpt lat="41.77486197898943" lon="19.3133465885284"><ele>0.0</ele><time>2026-03-27T22:32:09Z</time></trkpt><trkpt lat="41.77437687090407" lon="19.314969494666368"><ele>0.0</ele><time>2026-03-27T22:32:10Z</time></trkpt><trkpt lat="41.7738917724166" lon="19.316577937723004"><ele>0.0</ele><time>2026-03-27T22:32:11Z</time></trkpt><trkpt lat="41.773393019319165" lon="19.318174327424753"><ele>0.0</ele><time>2026-03-27T22:32:12Z</time></trkpt><trkpt lat="41.77289055949165" lon="19.319773786126753"><ele>0.0</ele><time>2026-03-27T22:32:13Z</time></trkpt><trkpt lat="41.77241261310667" lon="19.32137534745054"><ele>0.0</ele><time>2026-03-27T22:32:14Z</time></trkpt><trkpt lat="41.771951330227466" lon="19.322944754749244"><ele>0.0</ele><time>2026-03-27T22:32:15Z</time></trkpt><trkpt lat="41.77150344639776" lon="19.324511108413567"><ele>0.0</ele><time>2026-03-27T22:32:16Z</time></trkpt><trkpt lat="41.77105875772556" lon="19.32610189608059"><ele>0.0</ele><time>2026-03-27T22:32:17Z</time></trkpt><trkpt lat="41.77060946527538" lon="19.32769308880077"><ele>0.0</ele><time>2026-03-27T22:32:18Z</time></trkpt><trkpt lat="41.77015242174097" lon="19.329283186228373"><ele>0.0</ele><time>2026-03-27T22:32:19Z</time></trkpt><trkpt lat="41.76971827497605" lon="19.330858393057657"><ele>0.0</ele><time>2026-03-27T22:32:20Z</time></trkpt><trkpt lat="41.76928103725683" lon="19.332423408829722"><ele>0.0</ele><time>2026-03-27T22:32:21Z</time></trkpt><trkpt lat="41.76887916332913" lon="19.333992338874047"><ele>0.0</ele><time>2026-03-27T22:32:22Z</time></trkpt><trkpt lat="41.768448696308205" lon="19.33554694292622"><ele>0.0</ele><time>2026-03-27T22:32:23Z</time></trkpt><trkpt lat="41.768040332167814" lon="19.33711703107571"><ele>0.0</ele><time>2026-03-27T22:32:24Z</time></trkpt><trkpt lat="41.76763437977829" lon="19.33867783766585"><ele>0.0</ele><time>2026-03-27T22:32:25Z</time></trkpt><trkpt lat="41.76719397586565" lon="19.34022993796884"><ele>0.0</ele><time>2026-03-27T22:32:26Z</time></trkpt><trkpt lat="41.766771986815236" lon="19.341772174344396"><ele>0.0</ele><time>2026-03-27T22:32:27Z</time></trkpt><trkpt lat="41.76631386045844" lon="19.343275753499"><ele>0.0</ele><time>2026-03-27T22:32:28Z</time></trkpt><trkpt lat="41.765847516331206" lon="19.344777042544933"><ele>0.0</ele><time>2026-03-27T22:32:29Z</time></trkpt><trkpt lat="41.765377337656766" lon="19.34627940003499"><ele>0.0</ele><time>2026-03-27T22:32:30Z</time></trkpt><trkpt lat="41.764912858685605" lon="19.347869041356578"><ele>0.0</ele><time>2026-03-27T22:32:31Z</time></trkpt><trkpt lat="41.76445582539909" lon="19.349455509304015"><ele>0.0</ele><time>2026-03-27T22:32:32Z</time></trkpt><trkpt lat="41.76400289815711" lon="19.35097694030278"><ele>0.0</ele><time>2026-03-27T22:32:33Z</time></trkpt><trkpt lat="41.76352705909596" lon="19.35247881890457"><ele>0.0</ele><time>2026-03-27T22:32:34Z</time></trkpt><trkpt lat="41.76066888997845" lon="19.353579886400922"><ele>0.0</ele><time>2026-03-27T22:32:35Z</time></trkpt><trkpt lat="41.760187659109995" lon="19.355130478029913"><ele>0.0</ele><time>2026-03-27T22:32:36Z</time></trkpt><trkpt lat="41.759698939006554" lon="19.35668451757869"><ele>0.0</ele><time>2026-03-27T22:32:37Z</time></trkpt><trkpt lat="41.759176357365966" lon="19.358217869890066"><ele>0.0</ele><time>2026-03-27T22:32:38Z</time></trkpt><trkpt lat="41.75863550673004" lon="19.35974132099553"><ele>0.0</ele><time>2026-03-27T22:32:39Z</time></trkpt><trkpt lat="41.75808335901875" lon="19.36124810819434"><ele>0.0</ele><time>2026-03-27T22:32:40Z</time></trkpt><trkpt lat="41.757594602828156" lon="19.362759506200668"><ele>0.0</ele><time>2026-03-27T22:32:41Z</time></trkpt><trkpt lat="41.75708326160307" lon="19.364280287137436"><ele>0.0</ele><time>2026-03-27T22:32:42Z</time></trkpt><trkpt lat="41.756582812893406" lon="19.365804521869023"><ele>0.0</ele><time>2026-03-27T22:32:43Z</time></trkpt><trkpt lat="41.75611784225243" lon="19.36734541423894"><ele>0.0</ele><time>2026-03-27T22:32:44Z</time></trkpt><trkpt lat="41.75558204136796" lon="19.36883725389262"><ele>0.0</ele><time>2026-03-27T22:32:45Z</time></trkpt><trkpt lat="41.755048762023335" lon="19.370325364770764"><ele>0.0</ele><time>2026-03-27T22:32:46Z</time></trkpt><trkpt lat="41.75457125895303" lon="19.3718510208193"><ele>0.0</ele><time>2026-03-27T22:32:47Z</time></trkpt><trkpt lat="41.75406219312963" lon="19.373373543895717"><ele>0.0</ele><time>2026-03-27T22:32:48Z</time></trkpt><trkpt lat="41.753571715045545" lon="19.374886043538837"><ele>0.0</ele><time>2026-03-27T22:32:49Z</time></trkpt><trkpt lat="41.75302006532983" lon="19.376395012104805"><ele>0.0</ele><time>2026-03-27T22:32:50Z</time></trkpt><trkpt lat="41.75251353222433" lon="19.377912167794836"><ele>0.0</ele><time>2026-03-27T22:32:51Z</time></trkpt><trkpt lat="41.75205027991776" lon="19.379449480681654"><ele>0.0</ele><time>2026-03-27T22:32:52Z</time></trkpt><trkpt lat="41.75150370147384" lon="19.38094442869289"><ele>0.0</ele><time>2026-03-27T22:32:53Z</time></trkpt><trkpt lat="41.75103283971465" lon="19.382462298987665"><ele>0.0</ele><time>2026-03-27T22:32:54Z</time></trkpt><trkpt lat="41.751193626052114" lon="19.384071739985096"><ele>0.0</ele><time>2026-03-27T22:32:55Z</time></trkpt><trkpt lat="41.750702750717174" lon="19.385601028779845"><ele>0.0</ele><time>2026-03-27T22:32:56Z</time></trkpt><trkpt lat="41.75023888282679" lon="19.38715700804171"><ele>0.0</ele><time>2026-03-27T22:32:57Z</time></trkpt><trkpt lat="41.74974920110674" lon="19.38867913397954"><ele>0.0</ele><time>2026-03-27T22:32:58Z</time></trkpt><trkpt lat="41.74929938725238" lon="19.390195870551533"><ele>0.0</ele><time>2026-03-27T22:32:59Z</time></trkpt><trkpt lat="41.748842678742385" lon="19.39170844439148"><ele>0.0</ele><time>2026-03-27T22:33:00Z</time></trkpt><trkpt lat="41.74830469797583" lon="19.3931780923462"><ele>0.0</ele><time>2026-03-27T22:33:01Z</time></trkpt><trkpt lat="41.747791808633586" lon="19.39465120027969"><ele>0.0</ele><time>2026-03-27T22:33:02Z</time></trkpt><trkpt lat="41.74732561444377" lon="19.39612739701673"><ele>0.0</ele><time>2026-03-27T22:33:03Z</time></trkpt><trkpt lat="41.74687204953239" lon="19.3976148517319"><ele>0.0</ele><time>2026-03-27T22:33:04Z</time></trkpt><trkpt lat="41.746353950949356" lon="19.399063964363403"><ele>0.0</ele><time>2026-03-27T22:33:05Z</time></trkpt><trkpt lat="41.74583851859816" lon="19.400512213559736"><ele>0.0</ele><time>2026-03-27T22:33:06Z</time></trkpt><trkpt lat="41.74535272895384" lon="19.40197875692232"><ele>0.0</ele><time>2026-03-27T22:33:07Z</time></trkpt><trkpt lat="41.74486880622843" lon="19.403448939235762"><ele>0.0</ele><time>2026-03-27T22:33:08Z</time></trkpt><trkpt lat="41.74436641847774" lon="19.404903814238377"><ele>0.0</ele><time>2026-03-27T22:33:09Z</time></trkpt><trkpt lat="41.74386747209459" lon="19.40637105859249"><ele>0.0</ele><time>2026-03-27T22:33:10Z</time></trkpt><trkpt lat="41.74327865221042" lon="19.407904394641776"><ele>0.0</ele><time>2026-03-27T22:33:11Z</time></trkpt><trkpt lat="41.74275360371526" lon="19.409384462923107"><ele>0.0</ele><time>2026-03-27T22:33:12Z</time></trkpt><trkpt lat="41.74229151842512" lon="19.41089028457196"><ele>0.0</ele><time>2026-03-27T22:33:13Z</time></trkpt><trkpt lat="41.741809556160895" lon="19.412423339717755"><ele>0.0</ele><time>2026-03-27T22:33:14Z</time></trkpt><trkpt lat="41.7413373939816" lon="19.41396337221451"><ele>0.0</ele><time>2026-03-27T22:33:15Z</time></trkpt><trkpt lat="41.74087312751524" lon="19.41551274459319"><ele>0.0</ele><time>2026-03-27T22:33:16Z</time></trkpt><trkpt lat="41.74040937565794" lon="19.417030158900513"><ele>0.0</ele><time>2026-03-27T22:33:17Z</time></trkpt><trkpt lat="41.7399309689496" lon="19.418555240660478"><ele>0.0</ele><time>2026-03-27T22:33:18Z</time></trkpt><trkpt lat="41.73944937065547" lon="19.42009052052386"><ele>0.0</ele><time>2026-03-27T22:33:19Z</time></trkpt><trkpt lat="41.73897273078086" lon="19.421603253802576"><ele>0.0</ele><time>2026-03-27T22:33:20Z</time></trkpt><trkpt lat="41.738483841854226" lon="19.423145203624834"><ele>0.0</ele><time>2026-03-27T22:33:21Z</time></trkpt><trkpt lat="41.73801502945324" lon="19.424692176065765"><ele>0.0</ele><time>2026-03-27T22:33:22Z</time></trkpt><trkpt lat="41.737518089704594" lon="19.42624756841883"><ele>0.0</ele><time>2026-03-27T22:33:23Z</time></trkpt><trkpt lat="41.73698474840103" lon="19.42781446061396"><ele>0.0</ele><time>2026-03-27T22:33:24Z</time></trkpt><trkpt lat="41.73634631265126" lon="19.429371596831793"><ele>0.0</ele><time>2026-03-27T22:33:25Z</time></trkpt><trkpt lat="41.73558469296497" lon="19.43089352339752"><ele>0.0</ele><time>2026-03-27T22:33:26Z</time></trkpt><trkpt lat="41.73487914997734" lon="19.432423119752688"><ele>0.0</ele><time>2026-03-27T22:33:27Z</time></trkpt><trkpt lat="41.734284768182846" lon="19.43398011954432"><ele>0.0</ele><time>2026-03-27T22:33:28Z</time></trkpt><trkpt lat="41.73372196431963" lon="19.43553422708358"><ele>0.0</ele><time>2026-03-27T22:33:29Z</time></trkpt><trkpt lat="41.73317876600795" lon="19.43709846412026"><ele>0.0</ele><time>2026-03-27T22:33:30Z</time></trkpt><trkpt lat="41.73265645984008" lon="19.438649685797248"><ele>0.0</ele><time>2026-03-27T22:33:31Z</time></trkpt><trkpt lat="41.73212727137306" lon="19.44019963136005"><ele>0.0</ele><time>2026-03-27T22:33:32Z</time></trkpt><trkpt lat="41.73158032603961" lon="19.441741823336677"><ele>0.0</ele><time>2026-03-27T22:33:33Z</time></trkpt><trkpt lat="41.731039178805105" lon="19.443271039089698"><ele>0.0</ele><time>2026-03-27T22:33:34Z</time></trkpt><trkpt lat="41.73050128320976" lon="19.444805936187333"><ele>0.0</ele><time>2026-03-27T22:33:35Z</time></trkpt><trkpt lat="41.72995243312165" lon="19.4463175819104"><ele>0.0</ele><time>2026-03-27T22:33:36Z</time></trkpt><trkpt lat="41.72939806064217" lon="19.447821507545726"><ele>0.0</ele><time>2026-03-27T22:33:37Z</time></trkpt><trkpt lat="41.7288684068231" lon="19.449325157266763"><ele>0.0</ele><time>2026-03-27T22:33:38Z</time></trkpt><trkpt lat="41.72837023674429" lon="19.450858940942403"><ele>0.0</ele><time>2026-03-27T22:33:39Z</time></trkpt><trkpt lat="41.7278629081413" lon="19.45238988188309"><ele>0.0</ele><time>2026-03-27T22:33:40Z</time></trkpt><trkpt lat="41.72733677714244" lon="19.45389771544879"><ele>0.0</ele><time>2026-03-27T22:33:41Z</time></trkpt><trkpt lat="41.72681737937935" lon="19.45540675765847"><ele>0.0</ele><time>2026-03-27T22:33:42Z</time></trkpt><trkpt lat="41.72631249466155" lon="19.45690648144838"><ele>0.0</ele><time>2026-03-27T22:33:43Z</time></trkpt><trkpt lat="41.725809675160704" lon="19.458418299489644"><ele>0.0</ele><time>2026-03-27T22:33:44Z</time></trkpt><trkpt lat="41.72529460405219" lon="19.45993256716214"><ele>0.0</ele><time>2026-03-27T22:33:45Z</time></trkpt><trkpt lat="41.72480209285244" lon="19.461463485847382"><ele>0.0</ele><time>2026-03-27T22:33:46Z</time></trkpt><trkpt lat="41.72430212084618" lon="19.46300747618208"><ele>0.0</ele><time>2026-03-27T22:33:47Z</time></trkpt><trkpt lat="41.72378373236954" lon="19.464552406208014"><ele>0.0</ele><time>2026-03-27T22:33:48Z</time></trkpt><trkpt lat="41.72329612103576" lon="19.466073942663122"><ele>0.0</ele><time>2026-03-27T22:33:49Z</time></trkpt><trkpt lat="41.72282251272785" lon="19.46758421903114"><ele>0.0</ele><time>2026-03-27T22:33:50Z</time></trkpt><trkpt lat="41.72234644085817" lon="19.469089697340628"><ele>0.0</ele><time>2026-03-27T22:33:51Z</time></trkpt><trkpt lat="41.7218575067527" lon="19.470599415449254"><ele>0.0</ele><time>2026-03-27T22:33:52Z</time></trkpt><trkpt lat="41.721372375770514" lon="19.47210856085228"><ele>0.0</ele><time>2026-03-27T22:33:53Z</time></trkpt><trkpt lat="41.72090150408442" lon="19.473633725643207"><ele>0.0</ele><time>2026-03-27T22:33:54Z</time></trkpt><trkpt lat="41.720422245254085" lon="19.475156885972677"><ele>0.0</ele><time>2026-03-27T22:33:55Z</time></trkpt><trkpt lat="41.71994205240535" lon="19.47668593762234"><ele>0.0</ele><time>2026-03-27T22:33:56Z</time></trkpt><trkpt lat="41.71947511800171" lon="19.4782209117669"><ele>0.0</ele><time>2026-03-27T22:33:57Z</time></trkpt><trkpt lat="41.71900047441808" lon="19.479756021426354"><ele>0.0</ele><time>2026-03-27T22:33:58Z</time></trkpt><trkpt lat="41.718493854275984" lon="19.481266019309416"><ele>0.0</ele><time>2026-03-27T22:33:59Z</time></trkpt><trkpt lat="41.71799326062913" lon="19.48277616835956"><ele>0.0</ele><time>2026-03-27T22:34:00Z</time></trkpt><trkpt lat="41.71751241166046" lon="19.48429002640879"><ele>0.0</ele><time>2026-03-27T22:34:01Z</time></trkpt><trkpt lat="41.71702633738089" lon="19.485789169288935"><ele>0.0</ele><time>2026-03-27T22:34:02Z</time></trkpt><trkpt lat="41.7165471835464" lon="19.487299679462154"><ele>0.0</ele><time>2026-03-27T22:34:03Z</time></trkpt><trkpt lat="41.716049417271" lon="19.488801394858644"><ele>0.0</ele><time>2026-03-27T22:34:04.001Z</time></trkpt><trkpt lat="41.71556624088283" lon="19.490308498829993"><ele>0.0</ele><time>2026-03-27T22:34:05.001Z</time></trkpt><trkpt lat="41.715090070220484" lon="19.49182840691954"><ele>0.0</ele><time>2026-03-27T22:34:06.001Z</time></trkpt><trkpt lat="41.71459601317075" lon="19.493339020116753"><ele>0.0</ele><time>2026-03-27T22:34:07.001Z</time></trkpt><trkpt lat="41.714130788002294" lon="19.494852123712853"><ele>0.0</ele><time>2026-03-27T22:34:08.001Z</time></trkpt><trkpt lat="41.71367377263013" lon="19.49635937181984"><ele>0.0</ele><time>2026-03-27T22:34:09.001Z</time></trkpt><trkpt lat="41.71321568420084" lon="19.497866595606435"><ele>0.0</ele><time>2026-03-27T22:34:10.001Z</time></trkpt><trkpt lat="41.71275100768553" lon="19.499380728678755"><ele>0.0</ele><time>2026-03-27T22:34:11.001Z</time></trkpt><trkpt lat="41.712325918372834" lon="19.500879080639596"><ele>0.0</ele><time>2026-03-27T22:34:12.001Z</time></trkpt><trkpt lat="41.71190833520795" lon="19.502408755676072"><ele>0.0</ele><time>2026-03-27T22:34:13.001Z</time></trkpt><trkpt lat="41.71142007061531" lon="19.50393993209127"><ele>0.0</ele><time>2026-03-27T22:34:14.001Z</time></trkpt><trkpt lat="41.71091660948287" lon="19.505453370782853"><ele>0.0</ele><time>2026-03-27T22:34:15.001Z</time></trkpt><trkpt lat="41.71040097031014" lon="19.506961538776995"><ele>0.0</ele><time>2026-03-27T22:34:16.001Z</time></trkpt><trkpt lat="41.709928479876886" lon="19.50848025625319"><ele>0.0</ele><time>2026-03-27T22:34:17.001Z</time></trkpt><trkpt lat="41.7094080364368" lon="19.509969379155976"><ele>0.0</ele><time>2026-03-27T22:34:18.001Z</time></trkpt><trkpt lat="41.70888969511602" lon="19.511459187652406"><ele>0.0</ele><time>2026-03-27T22:34:19.001Z</time></trkpt><trkpt lat="41.70834625722756" lon="19.51293881028545"><ele>0.0</ele><time>2026-03-27T22:34:20Z</time></trkpt><trkpt lat="41.70781391816275" lon="19.514420859226128"><ele>0.0</ele><time>2026-03-27T22:34:21Z</time></trkpt><trkpt lat="41.707322911061915" lon="19.515920532420147"><ele>0.0</ele><time>2026-03-27T22:34:22Z</time></trkpt><trkpt lat="41.706823488233894" lon="19.51741130895686"><ele>0.0</ele><time>2026-03-27T22:34:23Z</time></trkpt><trkpt lat="41.706313231967876" lon="19.51889142110271"><ele>0.0</ele><time>2026-03-27T22:34:24Z</time></trkpt><trkpt lat="41.70580916888853" lon="19.520380282637554"><ele>0.0</ele><time>2026-03-27T22:34:25Z</time></trkpt><trkpt lat="41.70530627548463" lon="19.521876890145307"><ele>0.0</ele><time>2026-03-27T22:34:26Z</time></trkpt><trkpt lat="41.70479782634783" lon="19.523373272057498"><ele>0.0</ele><time>2026-03-27T22:34:27Z</time></trkpt><trkpt lat="41.704289629131594" lon="19.52486087644783"><ele>0.0</ele><time>2026-03-27T22:34:28Z</time></trkpt><trkpt lat="41.7037802582039" lon="19.52634924470412"><ele>0.0</ele><time>2026-03-27T22:34:29Z</time></trkpt><trkpt lat="41.703281710662694" lon="19.52784186834869"><ele>0.0</ele><time>2026-03-27T22:34:30Z</time></trkpt><trkpt lat="41.70278386462631" lon="19.529350605077127"><ele>0.0</ele><time>2026-03-27T22:34:31Z</time></trkpt><trkpt lat="41.70228461257554" lon="19.53083903133304"><ele>0.0</ele><time>2026-03-27T22:34:32Z</time></trkpt><trkpt lat="41.701790996324156" lon="19.532333517972845"><ele>0.0</ele><time>2026-03-27T22:34:33Z</time></trkpt><trkpt lat="41.70129623104918" lon="19.533827290857612"><ele>0.0</ele><time>2026-03-27T22:34:34Z</time></trkpt><trkpt lat="41.70081556188853" lon="19.535337612809297"><ele>0.0</ele><time>2026-03-27T22:34:35Z</time></trkpt><trkpt lat="41.700344422503036" lon="19.53684489478767"><ele>0.0</ele><time>2026-03-27T22:34:36Z</time></trkpt><trkpt lat="41.699879667615036" lon="19.53833250676419"><ele>0.0</ele><time>2026-03-27T22:34:37Z</time></trkpt><trkpt lat="41.69938342874895" lon="19.539762580675685"><ele>0.0</ele><time>2026-03-27T22:34:38Z</time></trkpt><trkpt lat="41.69884867757385" lon="19.541243127839707"><ele>0.0</ele><time>2026-03-27T22:34:39Z</time></trkpt><trkpt lat="41.698323342263535" lon="19.542740927629538"><ele>0.0</ele><time>2026-03-27T22:34:40Z</time></trkpt><trkpt lat="41.69737779188227" lon="19.545778726430857"><ele>0.0</ele><time>2026-03-27T22:34:42Z</time></trkpt><trkpt lat="41.69689405516914" lon="19.547293652984376"><ele>0.0</ele><time>2026-03-27T22:34:43Z</time></trkpt><trkpt lat="41.696426986917274" lon="19.548809619090708"><ele>0.0</ele><time>2026-03-27T22:34:44Z</time></trkpt><trkpt lat="41.695966568869856" lon="19.550326825556827"><ele>0.0</ele><time>2026-03-27T22:34:45Z</time></trkpt><trkpt lat="41.69549129632624" lon="19.55184038736889"><ele>0.0</ele><time>2026-03-27T22:34:46Z</time></trkpt><trkpt lat="41.69499382571423" lon="19.553328102812273"><ele>0.0</ele><time>2026-03-27T22:34:47Z</time></trkpt><trkpt lat="41.694445126098394" lon="19.554827677649513"><ele>0.0</ele><time>2026-03-27T22:34:48Z</time></trkpt><trkpt lat="41.69393703345771" lon="19.556329808660955"><ele>0.0</ele><time>2026-03-27T22:34:49Z</time></trkpt><trkpt lat="41.69340540568524" lon="19.55783525469604"><ele>0.0</ele><time>2026-03-27T22:34:50Z</time></trkpt><trkpt lat="41.69284962381359" lon="19.559322466013835"><ele>0.0</ele><time>2026-03-27T22:34:51Z</time></trkpt><trkpt lat="41.69231130361083" lon="19.560816272544624"><ele>0.0</ele><time>2026-03-27T22:34:52Z</time></trkpt><trkpt lat="41.691764996885254" lon="19.562306293032357"><ele>0.0</ele><time>2026-03-27T22:34:53Z</time></trkpt><trkpt lat="41.6912173160411" lon="19.563786110345877"><ele>0.0</ele><time>2026-03-27T22:34:54Z</time></trkpt><trkpt lat="41.69069272277014" lon="19.565262541832617"><ele>0.0</ele><time>2026-03-27T22:34:55Z</time></trkpt><trkpt lat="41.69021138554403" lon="19.566750736467096"><ele>0.0</ele><time>2026-03-27T22:34:56Z</time></trkpt><trkpt lat="41.68971276812196" lon="19.568235674407095"><ele>0.0</ele><time>2026-03-27T22:34:57Z</time></trkpt><trkpt lat="41.68921471488297" lon="19.569717151954645"><ele>0.0</ele><time>2026-03-27T22:34:58Z</time></trkpt><trkpt lat="41.68873076243342" lon="19.571196699508317"><ele>0.0</ele><time>2026-03-27T22:34:59Z</time></trkpt><trkpt lat="41.688232457209594" lon="19.572668796323608"><ele>0.0</ele><time>2026-03-27T22:35:00Z</time></trkpt><trkpt lat="41.687737261096665" lon="19.574138782655226"><ele>0.0</ele><time>2026-03-27T22:35:01Z</time></trkpt><trkpt lat="41.68723326197202" lon="19.575607208932965"><ele>0.0</ele><time>2026-03-27T22:35:02Z</time></trkpt><trkpt lat="41.68675494625399" lon="19.577082884815773"><ele>0.0</ele><time>2026-03-27T22:35:03Z</time></trkpt><trkpt lat="41.686270242877775" lon="19.578553139014183"><ele>0.0</ele><time>2026-03-27T22:35:04Z</time></trkpt><trkpt lat="41.68579322476071" lon="19.580024419841028"><ele>-4.0</ele><time>2026-03-27T22:35:05Z</time></trkpt><trkpt lat="41.685326429333934" lon="19.581484573692446"><ele>0.0</ele><time>2026-03-27T22:35:06Z</time></trkpt><trkpt lat="41.684865585011416" lon="19.58293079817084"><ele>-2.0</ele><time>2026-03-27T22:35:07Z</time></trkpt><trkpt lat="41.68439319121598" lon="19.584360116511174"><ele>-1.0</ele><time>2026-03-27T22:35:08Z</time></trkpt><trkpt lat="41.683922450369366" lon="19.58579887016419"><ele>1.0</ele><time>2026-03-27T22:35:09Z</time></trkpt><trkpt lat="41.68347543074876" lon="19.58723585557056"><ele>-1.0</ele><time>2026-03-27T22:35:10Z</time></trkpt><trkpt lat="41.68299161821051" lon="19.588662124378903"><ele>0.0</ele><time>2026-03-27T22:35:11Z</time></trkpt><trkpt lat="41.682484024521294" lon="19.590079356778734"><ele>-3.0</ele><time>2026-03-27T22:35:12Z</time></trkpt><trkpt lat="41.681956535221545" lon="19.591494796420196"><ele>-4.0</ele><time>2026-03-27T22:35:13Z</time></trkpt><trkpt lat="41.681448386946826" lon="19.592904281278887"><ele>-2.0</ele><time>2026-03-27T22:35:14Z</time></trkpt><trkpt lat="41.680935740982825" lon="19.594297784640215"><ele>0.0</ele><time>2026-03-27T22:35:15Z</time></trkpt><trkpt lat="41.68043570565576" lon="19.595696676688586"><ele>0.0</ele><time>2026-03-27T22:35:16Z</time></trkpt><trkpt lat="41.67994140376" lon="19.597086298858162"><ele>-2.0</ele><time>2026-03-27T22:35:17Z</time></trkpt><trkpt lat="41.67948036290942" lon="19.598479960905685"><ele>0.0</ele><time>2026-03-27T22:35:18Z</time></trkpt><trkpt lat="41.67900720921513" lon="19.599878664313923"><ele>0.0</ele><time>2026-03-27T22:35:19Z</time></trkpt><trkpt lat="41.67853630697272" lon="19.60126848235836"><ele>0.0</ele><time>2026-03-27T22:35:20Z</time></trkpt><trkpt lat="41.6780792640446" lon="19.602655915310205"><ele>2.0</ele><time>2026-03-27T22:35:21Z</time></trkpt><trkpt lat="41.677598157666196" lon="19.604044494018446"><ele>2.0</ele><time>2026-03-27T22:35:22Z</time></trkpt><trkpt lat="41.677122194842724" lon="19.605424565153207"><ele>1.0</ele><time>2026-03-27T22:35:23Z</time></trkpt><trkpt lat="41.67664197731298" lon="19.606804365348456"><ele>1.0</ele><time>2026-03-27T22:35:24Z</time></trkpt><trkpt lat="41.67616180732822" lon="19.608175041362575"><ele>1.0</ele><time>2026-03-27T22:35:25Z</time></trkpt><trkpt lat="41.67568683352553" lon="19.609542934797318"><ele>3.0</ele><time>2026-03-27T22:35:26Z</time></trkpt><trkpt lat="41.67523132133813" lon="19.61091332146853"><ele>3.0</ele><time>2026-03-27T22:35:27Z</time></trkpt><trkpt lat="41.674773989046415" lon="19.612279198019685"><ele>-1.0</ele><time>2026-03-27T22:35:28Z</time></trkpt><trkpt lat="41.67432627517176" lon="19.61364118593628"><ele>1.0</ele><time>2026-03-27T22:35:29Z</time></trkpt><trkpt lat="41.67386933477468" lon="19.614998014413725"><ele>3.0</ele><time>2026-03-27T22:35:30Z</time></trkpt><trkpt lat="41.67341655904789" lon="19.616357332548535"><ele>4.0</ele><time>2026-03-27T22:35:31Z</time></trkpt><trkpt lat="41.67299088364361" lon="19.617723023546702"><ele>3.0</ele><time>2026-03-27T22:35:32Z</time></trkpt><trkpt lat="41.672577289896694" lon="19.619078884454325"><ele>1.0</ele><time>2026-03-27T22:35:33Z</time></trkpt><trkpt lat="41.672173252749474" lon="19.620444918553083"><ele>2.0</ele><time>2026-03-27T22:35:34Z</time></trkpt><trkpt lat="41.671751167726114" lon="19.621782185977274"><ele>4.0</ele><time>2026-03-27T22:35:35Z</time></trkpt><trkpt lat="41.67132909892653" lon="19.62311609008867"><ele>4.0</ele><time>2026-03-27T22:35:36Z</time></trkpt><trkpt lat="41.67093706601811" lon="19.624466593846176"><ele>5.0</ele><time>2026-03-27T22:35:37Z</time></trkpt><trkpt lat="41.67050599189589" lon="19.62579019056725"><ele>3.0</ele><time>2026-03-27T22:35:38Z</time></trkpt><trkpt lat="41.67009621639896" lon="19.6271173959984"><ele>4.0</ele><time>2026-03-27T22:35:39Z</time></trkpt><trkpt lat="41.669681721861316" lon="19.62844528116131"><ele>2.0</ele><time>2026-03-27T22:35:40Z</time></trkpt><trkpt lat="41.66926148498906" lon="19.629777650307155"><ele>2.0</ele><time>2026-03-27T22:35:41Z</time></trkpt><trkpt lat="41.66884173549752" lon="19.631099927217566"><ele>4.0</ele><time>2026-03-27T22:35:42Z</time></trkpt><trkpt lat="41.668427410736975" lon="19.632415686253207"><ele>6.0</ele><time>2026-03-27T22:35:43Z</time></trkpt><trkpt lat="41.66804022654224" lon="19.633730214872653"><ele>1.0</ele><time>2026-03-27T22:35:44Z</time></trkpt><trkpt lat="41.66762179665363" lon="19.635043654282793"><ele>4.0</ele><time>2026-03-27T22:35:45Z</time></trkpt><trkpt lat="41.66717069512823" lon="19.63635126823406"><ele>5.0</ele><time>2026-03-27T22:35:46Z</time></trkpt><trkpt lat="41.666737177966624" lon="19.637663714529804"><ele>3.0</ele><time>2026-03-27T22:35:47Z</time></trkpt><trkpt lat="41.666347819121206" lon="19.638970817432618"><ele>3.0</ele><time>2026-03-27T22:35:48Z</time></trkpt><trkpt lat="41.66596182827972" lon="19.64027299057359"><ele>4.0</ele><time>2026-03-27T22:35:49Z</time></trkpt><trkpt lat="41.66554954302092" lon="19.641550652853514"><ele>2.0</ele><time>2026-03-27T22:35:50Z</time></trkpt><trkpt lat="41.665147891354316" lon="19.642839611754475"><ele>3.0</ele><time>2026-03-27T22:35:51Z</time></trkpt><trkpt lat="41.664765623114306" lon="19.64412358835604"><ele>3.0</ele><time>2026-03-27T22:35:52Z</time></trkpt><trkpt lat="41.66438646369117" lon="19.645418180981633"><ele>5.0</ele><time>2026-03-27T22:35:53Z</time></trkpt><trkpt lat="41.66400275887029" lon="19.64670483002884"><ele>3.0</ele><time>2026-03-27T22:35:54Z</time></trkpt><trkpt lat="41.66363542408235" lon="19.647994465393943"><ele>3.0</ele><time>2026-03-27T22:35:55Z</time></trkpt><trkpt lat="41.66328039260607" lon="19.649282499438062"><ele>2.0</ele><time>2026-03-27T22:35:56Z</time></trkpt><trkpt lat="41.66289826902179" lon="19.650557114713955"><ele>1.0</ele><time>2026-03-27T22:35:57Z</time></trkpt><trkpt lat="41.66251490704816" lon="19.651831792862797"><ele>1.0</ele><time>2026-03-27T22:35:58Z</time></trkpt><trkpt lat="41.66210515670339" lon="19.653108998652336"><ele>1.0</ele><time>2026-03-27T22:35:59Z</time></trkpt><trkpt lat="41.66167167981591" lon="19.654378666731915"><ele>3.0</ele><time>2026-03-27T22:36:00Z</time></trkpt><trkpt lat="41.66117942588652" lon="19.655625733297622"><ele>1.0</ele><time>2026-03-27T22:36:01Z</time></trkpt><trkpt lat="41.66071830029977" lon="19.65687845139704"><ele>0.0</ele><time>2026-03-27T22:36:02Z</time></trkpt><trkpt lat="41.66029565619612" lon="19.658139747199453"><ele>2.0</ele><time>2026-03-27T22:36:03Z</time></trkpt><trkpt lat="41.65986142321071" lon="19.65938501076962"><ele>0.0</ele><time>2026-03-27T22:36:04Z</time></trkpt><trkpt lat="41.65941439385207" lon="19.660627830206852"><ele>-1.0</ele><time>2026-03-27T22:36:05Z</time></trkpt><trkpt lat="41.65897294363291" lon="19.661880763741525"><ele>1.0</ele><time>2026-03-27T22:36:06Z</time></trkpt><trkpt lat="41.65853291162861" lon="19.66312257804156"><ele>2.0</ele><time>2026-03-27T22:36:07Z</time></trkpt><trkpt lat="41.658097408157765" lon="19.6643606234628"><ele>2.0</ele><time>2026-03-27T22:36:08Z</time></trkpt><trkpt lat="41.65768013483379" lon="19.665579619287037"><ele>0.0</ele><time>2026-03-27T22:36:09Z</time></trkpt><trkpt lat="41.65723566093526" lon="19.66681375189224"><ele>0.0</ele><time>2026-03-27T22:36:10Z</time></trkpt><trkpt lat="41.656767613817756" lon="19.668025871578084"><ele>1.0</ele><time>2026-03-27T22:36:11Z</time></trkpt><trkpt lat="41.65629994524165" lon="19.669220509190904"><ele>0.0</ele><time>2026-03-27T22:36:12Z</time></trkpt><trkpt lat="41.65585154415918" lon="19.670432725833404"><ele>1.0</ele><time>2026-03-27T22:36:13Z</time></trkpt><trkpt lat="41.65543826161416" lon="19.671637616388978"><ele>-1.0</ele><time>2026-03-27T22:36:14Z</time></trkpt><trkpt lat="41.655026801832754" lon="19.672847709952887"><ele>1.0</ele><time>2026-03-27T22:36:15Z</time></trkpt><trkpt lat="41.65458772086369" lon="19.674030260647807"><ele>1.0</ele><time>2026-03-27T22:36:16Z</time></trkpt><trkpt lat="41.65412643483213" lon="19.67517771014107"><ele>1.0</ele><time>2026-03-27T22:36:17Z</time></trkpt><trkpt lat="41.653635609211626" lon="19.67633140364873"><ele>2.0</ele><time>2026-03-27T22:36:18Z</time></trkpt><trkpt lat="41.65312335257735" lon="19.677453808401857"><ele>3.0</ele><time>2026-03-27T22:36:19Z</time></trkpt><trkpt lat="41.65259368676877" lon="19.678547692874226"><ele>0.0</ele><time>2026-03-27T22:36:20Z</time></trkpt><trkpt lat="41.65208702843166" lon="19.679637470924114"><ele>1.0</ele><time>2026-03-27T22:36:21Z</time></trkpt><trkpt lat="41.651606817388135" lon="19.680728800651146"><ele>0.0</ele><time>2026-03-27T22:36:22Z</time></trkpt><trkpt lat="41.651101736344586" lon="19.68179027475027"><ele>0.0</ele><time>2026-03-27T22:36:23Z</time></trkpt><trkpt lat="41.65058176929842" lon="19.682877144404937"><ele>0.0</ele><time>2026-03-27T22:36:24Z</time></trkpt><trkpt lat="41.65007493103262" lon="19.683988185201756"><ele>1.0</ele><time>2026-03-27T22:36:25Z</time></trkpt><trkpt lat="41.64955642527581" lon="19.685101680580466"><ele>0.0</ele><time>2026-03-27T22:36:26Z</time></trkpt><trkpt lat="41.6490340357932" lon="19.686214158971538"><ele>1.0</ele><time>2026-03-27T22:36:27Z</time></trkpt><trkpt lat="41.64851708570115" lon="19.687312695494054"><ele>0.0</ele><time>2026-03-27T22:36:28Z</time></trkpt><trkpt lat="41.64787908700247" lon="19.688478586205992"><ele>-1.0</ele><time>2026-03-27T22:36:29.142Z</time></trkpt><trkpt lat="41.64735993733215" lon="19.689308865240335"><ele>2.0</ele><time>2026-03-27T22:36:30Z</time></trkpt><trkpt lat="41.64725862593832" lon="19.690623120497424"><ele>2.0</ele><time>2026-03-27T22:36:31Z</time></trkpt><trkpt lat="41.646713546272686" lon="19.69168681549865"><ele>4.0</ele><time>2026-03-27T22:36:32Z</time></trkpt><trkpt lat="41.64624479205389" lon="19.69279598757043"><ele>3.0</ele><time>2026-03-27T22:36:33Z</time></trkpt><trkpt lat="41.644303961195526" lon="19.69202944727429"><ele>4.0</ele><time>2026-03-27T22:36:34Z</time></trkpt><trkpt lat="41.64357340622603" lon="19.692778424422148"><ele>1.0</ele><time>2026-03-27T22:36:35Z</time></trkpt><trkpt lat="41.64275301062405" lon="19.693365939792063"><ele>3.0</ele><time>2026-03-27T22:36:36Z</time></trkpt><trkpt lat="41.64192231886673" lon="19.69392265971984"><ele>3.0</ele><time>2026-03-27T22:36:37Z</time></trkpt><trkpt lat="41.64121527605541" lon="19.694676731258323"><ele>4.0</ele><time>2026-03-27T22:36:38Z</time></trkpt><trkpt lat="41.640393712050916" lon="19.69521284369558"><ele>2.0</ele><time>2026-03-27T22:36:39Z</time></trkpt><trkpt lat="41.639169273100926" lon="19.694973910947205"><ele>6.0</ele><time>2026-03-27T22:36:40Z</time></trkpt><trkpt lat="41.63812405714152" lon="19.695159508507622"><ele>3.0</ele><time>2026-03-27T22:36:41Z</time></trkpt><trkpt lat="41.6370416173823" lon="19.695320969500656"><ele>2.0</ele><time>2026-03-27T22:36:42Z</time></trkpt><trkpt lat="41.634108019112645" lon="19.693957387709492"><ele>1.0</ele><time>2026-03-27T22:36:43Z</time></trkpt><trkpt lat="41.63307667806293" lon="19.694107040689037"><ele>1.0</ele><time>2026-03-27T22:36:44Z</time></trkpt><trkpt lat="41.63198322760614" lon="19.69417035555427"><ele>0.0</ele><time>2026-03-27T22:36:45Z</time></trkpt><trkpt lat="41.630865187897584" lon="19.694234050768042"><ele>2.0</ele><time>2026-03-27T22:36:46Z</time></trkpt><trkpt lat="41.629837660694676" lon="19.694358143471234"><ele>4.0</ele><time>2026-03-27T22:36:47Z</time></trkpt><trkpt lat="41.62881881521805" lon="19.694463127098704"><ele>0.0</ele><time>2026-03-27T22:36:48Z</time></trkpt><trkpt lat="41.62781100910945" lon="19.6945665761794"><ele>0.0</ele><time>2026-03-27T22:36:49Z</time></trkpt><trkpt lat="41.62682786563268" lon="19.69467374673269"><ele>2.0</ele><time>2026-03-27T22:36:50Z</time></trkpt><trkpt lat="41.62582065229887" lon="19.694775102482044"><ele>-1.0</ele><time>2026-03-27T22:36:51Z</time></trkpt><trkpt lat="41.62483835923526" lon="19.694860267194205"><ele>4.0</ele><time>2026-03-27T22:36:52Z</time></trkpt><trkpt lat="41.61270762247123" lon="19.695916903627072"><ele>2.0</ele><time>2026-03-27T22:37:05Z</time></trkpt><trkpt lat="41.6117872298464" lon="19.696025219992983"><ele>4.0</ele><time>2026-03-27T22:37:06Z</time></trkpt><trkpt lat="41.61089293956987" lon="19.69609875684165"><ele>6.0</ele><time>2026-03-27T22:37:07Z</time></trkpt><trkpt lat="41.60996170152688" lon="19.69620303269482"><ele>6.0</ele><time>2026-03-27T22:37:08Z</time></trkpt><trkpt lat="41.60905043553121" lon="19.69620306415261"><ele>6.0</ele><time>2026-03-27T22:37:09Z</time></trkpt><trkpt lat="41.60827926028795" lon="19.696257334939062"><ele>5.0</ele><time>2026-03-27T22:37:10Z</time></trkpt><trkpt lat="41.6073537618275" lon="19.696270887817015"><ele>7.0</ele><time>2026-03-27T22:37:11Z</time></trkpt><trkpt lat="41.606430753923625" lon="19.696320188144465"><ele>7.0</ele><time>2026-03-27T22:37:12Z</time></trkpt><trkpt lat="41.605542106520595" lon="19.69637339840812"><ele>9.0</ele><time>2026-03-27T22:37:13Z</time></trkpt><trkpt lat="41.60464607335809" lon="19.69642453390819"><ele>10.0</ele><time>2026-03-27T22:37:14Z</time></trkpt><trkpt lat="41.60372557692821" lon="19.6964996594074"><ele>7.0</ele><time>2026-03-27T22:37:15Z</time></trkpt><trkpt lat="41.6028275552138" lon="19.696619588643586"><ele>9.0</ele><time>2026-03-27T22:37:16Z</time></trkpt><trkpt lat="41.601943346665564" lon="19.696737464966414"><ele>12.0</ele><time>2026-03-27T22:37:17Z</time></trkpt><trkpt lat="41.60106309152559" lon="19.69684850804932"><ele>11.0</ele><time>2026-03-27T22:37:18Z</time></trkpt><trkpt lat="41.60015910074956" lon="19.696960834258476"><ele>11.0</ele><time>2026-03-27T22:37:19Z</time></trkpt><trkpt lat="41.599219159200416" lon="19.697034028635944"><ele>11.0</ele><time>2026-03-27T22:37:20Z</time></trkpt><trkpt lat="41.59822482800183" lon="19.697206856551777"><ele>10.0</ele><time>2026-03-27T22:37:21Z</time></trkpt><trkpt lat="41.597285315424976" lon="19.697357512482682"><ele>5.0</ele><time>2026-03-27T22:37:22Z</time></trkpt><trkpt lat="41.596367038030614" lon="19.697475674093873"><ele>7.0</ele><time>2026-03-27T22:37:23Z</time></trkpt><trkpt lat="41.59543899955601" lon="19.697602777887617"><ele>9.0</ele><time>2026-03-27T22:37:24Z</time></trkpt><trkpt lat="41.59451238812793" lon="19.69775898529841"><ele>8.0</ele><time>2026-03-27T22:37:25Z</time></trkpt><trkpt lat="41.593587069081174" lon="19.697919880288378"><ele>8.0</ele><time>2026-03-27T22:37:26Z</time></trkpt><trkpt lat="41.592686517090655" lon="19.69807608836415"><ele>9.0</ele><time>2026-03-27T22:37:27Z</time></trkpt><trkpt lat="41.59178666355966" lon="19.698215490805783"><ele>8.0</ele><time>2026-03-27T22:37:28Z</time></trkpt><trkpt lat="41.59084988620972" lon="19.698365863002447"><ele>9.0</ele><time>2026-03-27T22:37:29Z</time></trkpt><trkpt lat="41.58993882959557" lon="19.698467452198088"><ele>10.0</ele><time>2026-03-27T22:37:30Z</time></trkpt><trkpt lat="41.58902971586722" lon="19.698574796637594"><ele>19.0</ele><time>2026-03-27T22:37:31Z</time></trkpt><trkpt lat="41.588115655433704" lon="19.698733388498255"><ele>33.0</ele><time>2026-03-27T22:37:32Z</time></trkpt><trkpt lat="41.587195692097545" lon="19.698872895460678"><ele>34.0</ele><time>2026-03-27T22:37:33Z</time></trkpt><trkpt lat="41.58627541802748" lon="19.699029153395912"><ele>38.0</ele><time>2026-03-27T22:37:34Z</time></trkpt><trkpt lat="41.58536498812505" lon="19.699183769600204"><ele>46.0</ele><time>2026-03-27T22:37:35Z</time></trkpt><trkpt lat="41.58446415844969" lon="19.6993350446958"><ele>59.0</ele><time>2026-03-27T22:37:36Z</time></trkpt><trkpt lat="41.58356274966717" lon="19.69948080693306"><ele>55.0</ele><time>2026-03-27T22:37:37Z</time></trkpt><trkpt lat="41.582657406188574" lon="19.69962356711739"><ele>55.0</ele><time>2026-03-27T22:37:38Z</time></trkpt><trkpt lat="41.58174521535785" lon="19.699755569633588"><ele>58.0</ele><time>2026-03-27T22:37:39Z</time></trkpt><trkpt lat="41.58084088577286" lon="19.699886224043873"><ele>58.0</ele><time>2026-03-27T22:37:40Z</time></trkpt><trkpt lat="41.57991887798767" lon="19.700060183949816"><ele>53.0</ele><time>2026-03-27T22:37:41Z</time></trkpt><trkpt lat="41.578996992484925" lon="19.70019899545265"><ele>53.0</ele><time>2026-03-27T22:37:42Z</time></trkpt><trkpt lat="41.57809120735694" lon="19.700285701897307"><ele>58.0</ele><time>2026-03-27T22:37:43Z</time></trkpt><trkpt lat="41.57719179148809" lon="19.700336704677525"><ele>58.0</ele><time>2026-03-27T22:37:44Z</time></trkpt><trkpt lat="41.57632176340148" lon="19.700414682984743"><ele>57.0</ele><time>2026-03-27T22:37:45Z</time></trkpt><trkpt lat="41.575429081862694" lon="19.70051162738492"><ele>60.0</ele><time>2026-03-27T22:37:46Z</time></trkpt><trkpt lat="41.574517020833376" lon="19.700608146232195"><ele>64.0</ele><time>2026-03-27T22:37:47Z</time></trkpt><trkpt lat="41.573644378480665" lon="19.70064108211335"><ele>62.0</ele><time>2026-03-27T22:37:48Z</time></trkpt><trkpt lat="41.5727998074046" lon="19.70066561227021"><ele>63.0</ele><time>2026-03-27T22:37:49Z</time></trkpt><trkpt lat="41.57192814244239" lon="19.700730925635693"><ele>55.0</ele><time>2026-03-27T22:37:50Z</time></trkpt><trkpt lat="41.57108549513889" lon="19.70078605267296"><ele>56.0</ele><time>2026-03-27T22:37:51Z</time></trkpt><trkpt lat="41.57021812786004" lon="19.70087067319318"><ele>63.0</ele><time>2026-03-27T22:37:52Z</time></trkpt><trkpt lat="41.56933984131472" lon="19.70095383007693"><ele>74.0</ele><time>2026-03-27T22:37:53Z</time></trkpt><trkpt lat="41.56848786833889" lon="19.701006114504924"><ele>88.0</ele><time>2026-03-27T22:37:54Z</time></trkpt><trkpt lat="41.56764001297184" lon="19.701086280235135"><ele>89.0</ele><time>2026-03-27T22:37:55Z</time></trkpt><trkpt lat="41.566776469303974" lon="19.7011585791295"><ele>86.0</ele><time>2026-03-27T22:37:56Z</time></trkpt><trkpt lat="41.565910979103386" lon="19.70122283844952"><ele>76.0</ele><time>2026-03-27T22:37:57Z</time></trkpt><trkpt lat="41.56503337636575" lon="19.70133029036165"><ele>69.0</ele><time>2026-03-27T22:37:58Z</time></trkpt><trkpt lat="41.56417141916747" lon="19.70141123324448"><ele>71.0</ele><time>2026-03-27T22:37:59Z</time></trkpt><trkpt lat="41.56331854084979" lon="19.701478650075657"><ele>65.0</ele><time>2026-03-27T22:38:00Z</time></trkpt><trkpt lat="41.56246027008876" lon="19.70157420654681"><ele>55.0</ele><time>2026-03-27T22:38:01Z</time></trkpt><trkpt lat="41.56164438319228" lon="19.701626652039028"><ele>52.0</ele><time>2026-03-27T22:38:02Z</time></trkpt><trkpt lat="41.56081833449078" lon="19.701701202558045"><ele>50.0</ele><time>2026-03-27T22:38:03Z</time></trkpt><trkpt lat="41.55999228698757" lon="19.701813355589433"><ele>49.0</ele><time>2026-03-27T22:38:04Z</time></trkpt><trkpt lat="41.55917100646115" lon="19.701914405422627"><ele>53.0</ele><time>2026-03-27T22:38:05Z</time></trkpt><trkpt lat="41.55835596291106" lon="19.702008534853444"><ele>55.0</ele><time>2026-03-27T22:38:06Z</time></trkpt><trkpt lat="41.557534280425976" lon="19.70214412308215"><ele>67.0</ele><time>2026-03-27T22:38:07Z</time></trkpt><trkpt lat="41.55669023916401" lon="19.702312456866846"><ele>88.0</ele><time>2026-03-27T22:38:08Z</time></trkpt><trkpt lat="41.55583518191307" lon="19.702544020352907"><ele>90.0</ele><time>2026-03-27T22:38:09Z</time></trkpt><trkpt lat="41.55500622618386" lon="19.70264896416084"><ele>63.0</ele><time>2026-03-27T22:38:10Z</time></trkpt><trkpt lat="41.55417491303615" lon="19.70276363019102"><ele>55.0</ele><time>2026-03-27T22:38:11Z</time></trkpt><trkpt lat="41.55334244073691" lon="19.702861751966683"><ele>45.0</ele><time>2026-03-27T22:38:12Z</time></trkpt><trkpt lat="41.552511833262706" lon="19.702953000264042"><ele>39.0</ele><time>2026-03-27T22:38:13Z</time></trkpt><trkpt lat="41.55168202358741" lon="19.703069712286975"><ele>37.0</ele><time>2026-03-27T22:38:14Z</time></trkpt><trkpt lat="41.55084346299182" lon="19.703126066653397"><ele>33.0</ele><time>2026-03-27T22:38:15Z</time></trkpt><trkpt lat="41.55001315548383" lon="19.703219706362102"><ele>34.0</ele><time>2026-03-27T22:38:16Z</time></trkpt><trkpt lat="41.549171313893574" lon="19.7032986374593"><ele>42.0</ele><time>2026-03-27T22:38:17Z</time></trkpt><trkpt lat="41.54820918770274" lon="19.703409987148078"><ele>35.0</ele><time>2026-03-27T22:38:18.145Z</time></trkpt><trkpt lat="41.5475130919073" lon="19.70353483158905"><ele>41.0</ele><time>2026-03-27T22:38:19Z</time></trkpt><trkpt lat="41.54672078689757" lon="19.70361151531991"><ele>41.0</ele><time>2026-03-27T22:38:20Z</time></trkpt><trkpt lat="41.5451553591813" lon="19.70466226307868"><ele>33.0</ele><time>2026-03-27T22:38:21Z</time></trkpt><trkpt lat="41.544231043546404" lon="19.70497482319846"><ele>22.0</ele><time>2026-03-27T22:38:22Z</time></trkpt><trkpt lat="41.543206217021634" lon="19.70529309004966"><ele>17.0</ele><time>2026-03-27T22:38:23Z</time></trkpt><trkpt lat="41.54224681724641" lon="19.70534153610631"><ele>15.0</ele><time>2026-03-27T22:38:24Z</time></trkpt><trkpt lat="41.541276840429646" lon="19.705494161893064"><ele>11.0</ele><time>2026-03-27T22:38:25Z</time></trkpt><trkpt lat="41.5401849628163" lon="19.705124834665085"><ele>7.0</ele><time>2026-03-27T22:38:26Z</time></trkpt><trkpt lat="41.53916342207861" lon="19.704942394934946"><ele>6.0</ele><time>2026-03-27T22:38:27Z</time></trkpt><trkpt lat="41.53820481152782" lon="19.704850356964414"><ele>6.0</ele><time>2026-03-27T22:38:28Z</time></trkpt><trkpt lat="41.537275015352364" lon="19.704832860170974"><ele>5.0</ele><time>2026-03-27T22:38:29Z</time></trkpt><trkpt lat="41.53641352354718" lon="19.704935499617147"><ele>7.0</ele><time>2026-03-27T22:38:30Z</time></trkpt><trkpt lat="41.53555279875919" lon="19.705035265440046"><ele>5.0</ele><time>2026-03-27T22:38:31Z</time></trkpt><trkpt lat="41.53471447325153" lon="19.705151974992702"><ele>6.0</ele><time>2026-03-27T22:38:32Z</time></trkpt><trkpt lat="41.53387176939425" lon="19.70528580388686"><ele>6.0</ele><time>2026-03-27T22:38:33Z</time></trkpt><trkpt lat="41.53303845385877" lon="19.70543258899478"><ele>6.0</ele><time>2026-03-27T22:38:34Z</time></trkpt><trkpt lat="41.53220773619201" lon="19.705562709161363"><ele>17.0</ele><time>2026-03-27T22:38:35Z</time></trkpt><trkpt lat="41.53141693029583" lon="19.70567897798619"><ele>31.0</ele><time>2026-03-27T22:38:36Z</time></trkpt><trkpt lat="41.5306126901939" lon="19.70578194077355"><ele>19.0</ele><time>2026-03-27T22:38:37Z</time></trkpt><trkpt lat="41.52982151442773" lon="19.705881353254828"><ele>9.0</ele><time>2026-03-27T22:38:38Z</time></trkpt><trkpt lat="41.52901728631265" lon="19.705966737941907"><ele>7.0</ele><time>2026-03-27T22:38:39Z</time></trkpt><trkpt lat="41.52823940014949" lon="19.706036532227802"><ele>5.0</ele><time>2026-03-27T22:38:40Z</time></trkpt><trkpt lat="41.52743643231558" lon="19.706145987526977"><ele>7.0</ele><time>2026-03-27T22:38:41Z</time></trkpt><trkpt lat="41.52663523075049" lon="19.70624487117935"><ele>15.0</ele><time>2026-03-27T22:38:42Z</time></trkpt><trkpt lat="41.52582594637092" lon="19.706382850581267"><ele>17.0</ele><time>2026-03-27T22:38:43Z</time></trkpt><trkpt lat="41.524992603488286" lon="19.706536023752882"><ele>10.0</ele><time>2026-03-27T22:38:44Z</time></trkpt><trkpt lat="41.5241646957381" lon="19.70666062389031"><ele>7.0</ele><time>2026-03-27T22:38:45Z</time></trkpt><trkpt lat="41.52334144357705" lon="19.7068222600162"><ele>6.0</ele><time>2026-03-27T22:38:46Z</time></trkpt><trkpt lat="41.52251838423523" lon="19.706906967928877"><ele>11.0</ele><time>2026-03-27T22:38:47Z</time></trkpt><trkpt lat="41.521702623939504" lon="19.707004741792755"><ele>12.0</ele><time>2026-03-27T22:38:48Z</time></trkpt><trkpt lat="41.52091046757488" lon="19.707136386888344"><ele>6.0</ele><time>2026-03-27T22:38:49Z</time></trkpt><trkpt lat="41.52010032373702" lon="19.70729355693691"><ele>9.0</ele><time>2026-03-27T22:38:50Z</time></trkpt><trkpt lat="41.51930603361767" lon="19.707439695190615"><ele>8.0</ele><time>2026-03-27T22:38:51Z</time></trkpt><trkpt lat="41.51851948012945" lon="19.707591334317897"><ele>6.0</ele><time>2026-03-27T22:38:52Z</time></trkpt><trkpt lat="41.517739378821005" lon="19.707742335241313"><ele>8.0</ele><time>2026-03-27T22:38:53Z</time></trkpt><trkpt lat="41.516961523987796" lon="19.70791444767931"><ele>11.0</ele><time>2026-03-27T22:38:54Z</time></trkpt><trkpt lat="41.51618908053497" lon="19.708081374352126"><ele>11.0</ele><time>2026-03-27T22:38:55Z</time></trkpt><trkpt lat="41.5154216092515" lon="19.70825084755159"><ele>10.0</ele><time>2026-03-27T22:38:56Z</time></trkpt><trkpt lat="41.51466539472637" lon="19.708420386871214"><ele>19.0</ele><time>2026-03-27T22:38:57Z</time></trkpt><trkpt lat="41.513913310262765" lon="19.708612504386867"><ele>17.0</ele><time>2026-03-27T22:38:58Z</time></trkpt><trkpt lat="41.513182871391855" lon="19.708780466669513"><ele>15.0</ele><time>2026-03-27T22:38:59Z</time></trkpt><trkpt lat="41.51246817076929" lon="19.70892247625716"><ele>14.0</ele><time>2026-03-27T22:39:00Z</time></trkpt><trkpt lat="41.51175808521905" lon="19.709074308590665"><ele>15.0</ele><time>2026-03-27T22:39:01Z</time></trkpt><trkpt lat="41.5110286312235" lon="19.709285018528913"><ele>20.0</ele><time>2026-03-27T22:39:02Z</time></trkpt><trkpt lat="41.51020188341923" lon="19.709501601772363"><ele>20.0</ele><time>2026-03-27T22:39:03.149Z</time></trkpt><trkpt lat="41.509502490964806" lon="19.709702197022608"><ele>20.0</ele><time>2026-03-27T22:39:04.144Z</time></trkpt><trkpt lat="41.50893622446759" lon="19.709846628613242"><ele>19.0</ele><time>2026-03-27T22:39:05Z</time></trkpt><trkpt lat="41.50823364897748" lon="19.709993059597206"><ele>25.0</ele><time>2026-03-27T22:39:06Z</time></trkpt><trkpt lat="41.50753875568156" lon="19.710154683574356"><ele>27.0</ele><time>2026-03-27T22:39:07Z</time></trkpt><trkpt lat="41.506831640979804" lon="19.710297933391193"><ele>20.0</ele><time>2026-03-27T22:39:08Z</time></trkpt><trkpt lat="41.50613476153004" lon="19.710446035609326"><ele>20.0</ele><time>2026-03-27T22:39:09Z</time></trkpt><trkpt lat="41.505429414530504" lon="19.7105736619291"><ele>15.0</ele><time>2026-03-27T22:39:10Z</time></trkpt><trkpt lat="41.50360242660227" lon="19.708687783565953"><ele>11.0</ele><time>2026-03-27T22:39:11Z</time></trkpt><trkpt lat="41.502861109175775" lon="19.708796450653704"><ele>11.0</ele><time>2026-03-27T22:39:12Z</time></trkpt><trkpt lat="41.50211677526993" lon="19.708921590863977"><ele>9.0</ele><time>2026-03-27T22:39:13Z</time></trkpt><trkpt lat="41.50143133094476" lon="19.709057113750365"><ele>9.0</ele><time>2026-03-27T22:39:14Z</time></trkpt><trkpt lat="41.500742572752834" lon="19.709191061528596"><ele>9.0</ele><time>2026-03-27T22:39:15Z</time></trkpt><trkpt lat="41.50009842103275" lon="19.709329503377976"><ele>13.0</ele><time>2026-03-27T22:39:16Z</time></trkpt><trkpt lat="41.499446998987516" lon="19.709412163271487"><ele>13.0</ele><time>2026-03-27T22:39:17Z</time></trkpt><trkpt lat="41.49874812998653" lon="19.709495914736905"><ele>13.0</ele><time>2026-03-27T22:39:18Z</time></trkpt><trkpt lat="41.49808993477562" lon="19.70961349062217"><ele>14.0</ele><time>2026-03-27T22:39:19Z</time></trkpt><trkpt lat="41.49743050387038" lon="19.709707967965"><ele>15.0</ele><time>2026-03-27T22:39:20Z</time></trkpt><trkpt lat="41.49675027373007" lon="19.709797613246675"><ele>15.0</ele><time>2026-03-27T22:39:21Z</time></trkpt><trkpt lat="41.496064411277494" lon="19.709887432176277"><ele>16.0</ele><time>2026-03-27T22:39:22Z</time></trkpt><trkpt lat="41.49538668126323" lon="19.709990023940886"><ele>16.0</ele><time>2026-03-27T22:39:23Z</time></trkpt><trkpt lat="41.49472084746727" lon="19.710081373164666"><ele>15.0</ele><time>2026-03-27T22:39:24Z</time></trkpt><trkpt lat="41.494055913540066" lon="19.71013697797683"><ele>16.0</ele><time>2026-03-27T22:39:25Z</time></trkpt><trkpt lat="41.493413141359994" lon="19.710202035915067"><ele>18.0</ele><time>2026-03-27T22:39:26Z</time></trkpt><trkpt lat="41.492748040493936" lon="19.710255618355646"><ele>18.0</ele><time>2026-03-27T22:39:27Z</time></trkpt><trkpt lat="41.49207192248757" lon="19.710349782160712"><ele>18.0</ele><time>2026-03-27T22:39:28Z</time></trkpt><trkpt lat="41.49140459054915" lon="19.710405136495794"><ele>18.0</ele><time>2026-03-27T22:39:29Z</time></trkpt><trkpt lat="41.4907350376497" lon="19.710455615483518"><ele>18.0</ele><time>2026-03-27T22:39:30Z</time></trkpt><trkpt lat="41.48992335783516" lon="19.710886475479363"><ele>20.0</ele><time>2026-03-27T22:39:31Z</time></trkpt><trkpt lat="41.489245667352954" lon="19.71097197010564"><ele>18.0</ele><time>2026-03-27T22:39:32Z</time></trkpt><trkpt lat="41.48856237393642" lon="19.71104859211462"><ele>19.0</ele><time>2026-03-27T22:39:33Z</time></trkpt><trkpt lat="41.487876737491845" lon="19.71112460761838"><ele>19.0</ele><time>2026-03-27T22:39:34Z</time></trkpt><trkpt lat="41.487199950872636" lon="19.711215255702125"><ele>23.0</ele><time>2026-03-27T22:39:35Z</time></trkpt><trkpt lat="41.48653574902042" lon="19.711318964465327"><ele>22.0</ele><time>2026-03-27T22:39:36Z</time></trkpt><trkpt lat="41.485876108275164" lon="19.71142690255786"><ele>20.0</ele><time>2026-03-27T22:39:37Z</time></trkpt><trkpt lat="41.485211003946844" lon="19.711610614052383"><ele>20.0</ele><time>2026-03-27T22:39:38Z</time></trkpt><trkpt lat="41.4845536524858" lon="19.711741651015128"><ele>19.0</ele><time>2026-03-27T22:39:39Z</time></trkpt><trkpt lat="41.48123184736954" lon="19.71229285340554"><ele>19.0</ele><time>2026-03-27T22:39:44Z</time></trkpt><trkpt lat="41.480536641612694" lon="19.712487714096252"><ele>21.0</ele><time>2026-03-27T22:39:45Z</time></trkpt><trkpt lat="41.47986361509113" lon="19.712584838885043"><ele>20.0</ele><time>2026-03-27T22:39:46Z</time></trkpt><trkpt lat="41.479240412720614" lon="19.712617130700345"><ele>22.0</ele><time>2026-03-27T22:39:47Z</time></trkpt><trkpt lat="41.47863764519792" lon="19.712554582015734"><ele>22.0</ele><time>2026-03-27T22:39:48Z</time></trkpt><trkpt lat="41.478036275743335" lon="19.712465339914527"><ele>22.0</ele><time>2026-03-27T22:39:49Z</time></trkpt><trkpt lat="41.477412177802876" lon="19.712424740981024"><ele>22.0</ele><time>2026-03-27T22:39:50Z</time></trkpt><trkpt lat="41.47678600514281" lon="19.712436320603974"><ele>22.0</ele><time>2026-03-27T22:39:51Z</time></trkpt><trkpt lat="41.47616040601428" lon="19.7123933458203"><ele>22.0</ele><time>2026-03-27T22:39:52Z</time></trkpt><trkpt lat="41.47552904428724" lon="19.712350804246597"><ele>22.0</ele><time>2026-03-27T22:39:53Z</time></trkpt><trkpt lat="41.47491538176663" lon="19.712222751110396"><ele>24.0</ele><time>2026-03-27T22:39:54Z</time></trkpt><trkpt lat="41.47429012459635" lon="19.712140630001535"><ele>22.0</ele><time>2026-03-27T22:39:55Z</time></trkpt><trkpt lat="41.47366022727472" lon="19.71206309565073"><ele>22.0</ele><time>2026-03-27T22:39:56Z</time></trkpt><trkpt lat="41.47305069555646" lon="19.71195613855101"><ele>23.0</ele><time>2026-03-27T22:39:57Z</time></trkpt><trkpt lat="41.47243045352112" lon="19.71191422089092"><ele>24.0</ele><time>2026-03-27T22:39:58Z</time></trkpt><trkpt lat="41.47177174929401" lon="19.711934073115064"><ele>23.0</ele><time>2026-03-27T22:39:59Z</time></trkpt><trkpt lat="41.470984193060964" lon="19.712720878199576"><ele>24.0</ele><time>2026-03-27T22:40:00Z</time></trkpt><trkpt lat="41.470241657414505" lon="19.713145404657"><ele>25.0</ele><time>2026-03-27T22:40:01Z</time></trkpt><trkpt lat="41.46951459295173" lon="19.713556074029537"><ele>25.0</ele><time>2026-03-27T22:40:02Z</time></trkpt><trkpt lat="41.46880804919227" lon="19.713879701684927"><ele>24.0</ele><time>2026-03-27T22:40:03Z</time></trkpt><trkpt lat="41.468089318960224" lon="19.714226196476478"><ele>25.0</ele><time>2026-03-27T22:40:04Z</time></trkpt><trkpt lat="41.46739604949578" lon="19.714502743514746"><ele>20.0</ele><time>2026-03-27T22:40:05Z</time></trkpt><trkpt lat="41.466711143868146" lon="19.714743574711132"><ele>24.0</ele><time>2026-03-27T22:40:06Z</time></trkpt><trkpt lat="41.46604303178969" lon="19.71484421655066"><ele>26.0</ele><time>2026-03-27T22:40:07Z</time></trkpt><trkpt lat="41.465389259837615" lon="19.71489376016637"><ele>26.0</ele><time>2026-03-27T22:40:08Z</time></trkpt><trkpt lat="41.4647774220457" lon="19.714899986507824"><ele>26.0</ele><time>2026-03-27T22:40:09Z</time></trkpt><trkpt lat="41.46415725524384" lon="19.714922598583914"><ele>27.0</ele><time>2026-03-27T22:40:10Z</time></trkpt><trkpt lat="41.46356355914157" lon="19.714965549273767"><ele>27.0</ele><time>2026-03-27T22:40:11Z</time></trkpt><trkpt lat="41.46299183772091" lon="19.714981796131497"><ele>28.0</ele><time>2026-03-27T22:40:12Z</time></trkpt><trkpt lat="41.46242571227181" lon="19.714955570196594"><ele>25.0</ele><time>2026-03-27T22:40:13Z</time></trkpt><trkpt lat="41.46183020588658" lon="19.71492826017972"><ele>24.0</ele><time>2026-03-27T22:40:14Z</time></trkpt><trkpt lat="41.46122281667769" lon="19.714959790201757"><ele>24.0</ele><time>2026-03-27T22:40:15Z</time></trkpt><trkpt lat="41.46058753495077" lon="19.715027921196413"><ele>25.0</ele><time>2026-03-27T22:40:16Z</time></trkpt><trkpt lat="41.45994792188239" lon="19.71511926002167"><ele>27.0</ele><time>2026-03-27T22:40:17Z</time></trkpt><trkpt lat="41.45932608344399" lon="19.715202195729827"><ele>27.0</ele><time>2026-03-27T22:40:18Z</time></trkpt><trkpt lat="41.45871435129485" lon="19.715229122767877"><ele>27.0</ele><time>2026-03-27T22:40:19Z</time></trkpt><trkpt lat="41.45804756116112" lon="19.71536908937542"><ele>27.0</ele><time>2026-03-27T22:40:20Z</time></trkpt><trkpt lat="41.457417636436496" lon="19.715484580372387"><ele>25.0</ele><time>2026-03-27T22:40:21Z</time></trkpt><trkpt lat="41.45681334126445" lon="19.715505795792037"><ele>26.0</ele><time>2026-03-27T22:40:22Z</time></trkpt><trkpt lat="41.45618713085953" lon="19.71556287805948"><ele>26.0</ele><time>2026-03-27T22:40:23Z</time></trkpt><trkpt lat="41.455523044218744" lon="19.71558015993448"><ele>27.0</ele><time>2026-03-27T22:40:24Z</time></trkpt><trkpt lat="41.454853335504446" lon="19.715633305295817"><ele>27.0</ele><time>2026-03-27T22:40:25Z</time></trkpt><trkpt lat="41.45418000336224" lon="19.71570737571838"><ele>28.0</ele><time>2026-03-27T22:40:26Z</time></trkpt><trkpt lat="41.453543117965864" lon="19.715718303155317"><ele>30.0</ele><time>2026-03-27T22:40:27Z</time></trkpt><trkpt lat="41.45290986154064" lon="19.71573326051105"><ele>30.0</ele><time>2026-03-27T22:40:28Z</time></trkpt><trkpt lat="41.45227010255065" lon="19.71579513165135"><ele>31.0</ele><time>2026-03-27T22:40:29Z</time></trkpt><trkpt lat="41.45162585088263" lon="19.715878397107645"><ele>29.0</ele><time>2026-03-27T22:40:30Z</time></trkpt><trkpt lat="41.45097720661443" lon="19.715964519156827"><ele>29.0</ele><time>2026-03-27T22:40:31Z</time></trkpt><trkpt lat="41.450299950421076" lon="19.716104403045197"><ele>29.0</ele><time>2026-03-27T22:40:32Z</time></trkpt><trkpt lat="41.44962489727314" lon="19.71624310514936"><ele>29.0</ele><time>2026-03-27T22:40:33Z</time></trkpt><trkpt lat="41.44897289901989" lon="19.716303881330337"><ele>29.0</ele><time>2026-03-27T22:40:34Z</time></trkpt><trkpt lat="41.44830589677676" lon="19.71638694788637"><ele>27.0</ele><time>2026-03-27T22:40:35Z</time></trkpt><trkpt lat="41.44764474302517" lon="19.7164819231199"><ele>27.0</ele><time>2026-03-27T22:40:36Z</time></trkpt><trkpt lat="41.44697961238649" lon="19.716578910958237"><ele>27.0</ele><time>2026-03-27T22:40:37Z</time></trkpt><trkpt lat="41.446345093185286" lon="19.71667327823426"><ele>28.0</ele><time>2026-03-27T22:40:38Z</time></trkpt><trkpt lat="41.44571317274259" lon="19.71674504076889"><ele>29.0</ele><time>2026-03-27T22:40:39Z</time></trkpt><trkpt lat="41.44511371809854" lon="19.716753990732446"><ele>31.0</ele><time>2026-03-27T22:40:40Z</time></trkpt><trkpt lat="41.444508048170746" lon="19.716802580701998"><ele>31.0</ele><time>2026-03-27T22:40:41Z</time></trkpt><trkpt lat="41.44387818222264" lon="19.716893422783045"><ele>30.0</ele><time>2026-03-27T22:40:42Z</time></trkpt><trkpt lat="41.44323683403067" lon="19.717000547787006"><ele>31.0</ele><time>2026-03-27T22:40:43Z</time></trkpt><trkpt lat="41.44258621605122" lon="19.717116741655612"><ele>30.0</ele><time>2026-03-27T22:40:44Z</time></trkpt><trkpt lat="41.441932096068584" lon="19.717239452454802"><ele>31.0</ele><time>2026-03-27T22:40:45Z</time></trkpt><trkpt lat="41.44128931374706" lon="19.71732330500651"><ele>31.0</ele><time>2026-03-27T22:40:46Z</time></trkpt><trkpt lat="41.440641999363194" lon="19.717389054069347"><ele>30.0</ele><time>2026-03-27T22:40:47Z</time></trkpt><trkpt lat="41.43997378981866" lon="19.71749802958684"><ele>30.0</ele><time>2026-03-27T22:40:48Z</time></trkpt><trkpt lat="41.43932285466916" lon="19.717603847305842"><ele>33.0</ele><time>2026-03-27T22:40:49Z</time></trkpt><trkpt lat="41.43867619924274" lon="19.717695609970487"><ele>31.0</ele><time>2026-03-27T22:40:50Z</time></trkpt><trkpt lat="41.43802592604265" lon="19.717803424783845"><ele>31.0</ele><time>2026-03-27T22:40:51Z</time></trkpt><trkpt lat="41.43735944695766" lon="19.717901805504564"><ele>31.0</ele><time>2026-03-27T22:40:52Z</time></trkpt><trkpt lat="41.43669861344652" lon="19.718009166791262"><ele>32.0</ele><time>2026-03-27T22:40:53Z</time></trkpt><trkpt lat="41.43603916753851" lon="19.718177571430708"><ele>30.0</ele><time>2026-03-27T22:40:54Z</time></trkpt><trkpt lat="41.435388878196314" lon="19.718314202496533"><ele>30.0</ele><time>2026-03-27T22:40:55Z</time></trkpt><trkpt lat="41.43474300045754" lon="19.718390229619015"><ele>24.0</ele><time>2026-03-27T22:40:56Z</time></trkpt><trkpt lat="41.434100455014814" lon="19.718484296806412"><ele>31.0</ele><time>2026-03-27T22:40:57Z</time></trkpt><trkpt lat="41.43342642240529" lon="19.7186449397986"><ele>33.0</ele><time>2026-03-27T22:40:58Z</time></trkpt><trkpt lat="41.432779662416145" lon="19.718809539669568"><ele>33.0</ele><time>2026-03-27T22:40:59Z</time></trkpt><trkpt lat="41.432152582609085" lon="19.718915859048803"><ele>33.0</ele><time>2026-03-27T22:41:00Z</time></trkpt><trkpt lat="41.43150589065962" lon="19.719005223042384"><ele>31.0</ele><time>2026-03-27T22:41:01Z</time></trkpt><trkpt lat="41.430928605390896" lon="19.71900494681519"><ele>31.0</ele><time>2026-03-27T22:41:02Z</time></trkpt><trkpt lat="41.43032380076133" lon="19.719094420541225"><ele>31.0</ele><time>2026-03-27T22:41:03Z</time></trkpt><trkpt lat="41.42966581550606" lon="19.719209854029348"><ele>32.0</ele><time>2026-03-27T22:41:04Z</time></trkpt><trkpt lat="41.42901442035803" lon="19.719310666101805"><ele>32.0</ele><time>2026-03-27T22:41:05Z</time></trkpt><trkpt lat="41.42844139196783" lon="19.719351967979414"><ele>33.0</ele><time>2026-03-27T22:41:06Z</time></trkpt><trkpt lat="41.427871436526075" lon="19.71938001191054"><ele>33.0</ele><time>2026-03-27T22:41:07Z</time></trkpt><trkpt lat="41.42729356223394" lon="19.71940254029284"><ele>33.0</ele><time>2026-03-27T22:41:08Z</time></trkpt><trkpt lat="41.42667971229952" lon="19.71953230374343"><ele>33.0</ele><time>2026-03-27T22:41:09Z</time></trkpt><trkpt lat="41.426045963242366" lon="19.71964980225189"><ele>31.0</ele><time>2026-03-27T22:41:10Z</time></trkpt><trkpt lat="41.425408934712856" lon="19.71977446157667"><ele>31.0</ele><time>2026-03-27T22:41:11Z</time></trkpt><trkpt lat="41.42484696974324" lon="19.71985358338937"><ele>30.0</ele><time>2026-03-27T22:41:12Z</time></trkpt><trkpt lat="41.424330463945324" lon="19.71984980821763"><ele>30.0</ele><time>2026-03-27T22:41:13Z</time></trkpt><trkpt lat="41.42381581226286" lon="19.71984989946501"><ele>31.0</ele><time>2026-03-27T22:41:14Z</time></trkpt><trkpt lat="41.42327870510983" lon="19.719896934264924"><ele>30.0</ele><time>2026-03-27T22:41:15Z</time></trkpt><trkpt lat="41.42270732478787" lon="19.71987003704109"><ele>30.0</ele><time>2026-03-27T22:41:16Z</time></trkpt><trkpt lat="41.422050856413776" lon="19.719985014278926"><ele>30.0</ele><time>2026-03-27T22:41:17Z</time></trkpt><trkpt lat="41.42140449299757" lon="19.720134210686457"><ele>29.0</ele><time>2026-03-27T22:41:18Z</time></trkpt><trkpt lat="41.42080177861744" lon="19.720176725177577"><ele>29.0</ele><time>2026-03-27T22:41:19Z</time></trkpt><trkpt lat="41.420208827348226" lon="19.720229149041426"><ele>31.0</ele><time>2026-03-27T22:41:20Z</time></trkpt><trkpt lat="41.419640754286604" lon="19.720315626427833"><ele>31.0</ele><time>2026-03-27T22:41:21Z</time></trkpt><trkpt lat="41.41909360326413" lon="19.720437405389678"><ele>34.0</ele><time>2026-03-27T22:41:22Z</time></trkpt><trkpt lat="41.41858245790057" lon="19.720528011571005"><ele>34.0</ele><time>2026-03-27T22:41:23Z</time></trkpt><trkpt lat="41.41807476058922" lon="19.72064303961571"><ele>31.0</ele><time>2026-03-27T22:41:24Z</time></trkpt><trkpt lat="41.417568519567475" lon="19.720767405617277"><ele>37.0</ele><time>2026-03-27T22:41:25Z</time></trkpt><trkpt lat="41.4170834179917" lon="19.720892995699423"><ele>37.0</ele><time>2026-03-27T22:41:26Z</time></trkpt><trkpt lat="41.4166046975794" lon="19.721008439869546"><ele>35.0</ele><time>2026-03-27T22:41:27Z</time></trkpt><trkpt lat="41.416152649687206" lon="19.721108229823933"><ele>35.0</ele><time>2026-03-27T22:41:28Z</time></trkpt><trkpt lat="41.415717427642676" lon="19.721212245476732"><ele>35.0</ele><time>2026-03-27T22:41:29Z</time></trkpt><trkpt lat="41.41531354228908" lon="19.7212878560026"><ele>35.5</ele><time>2026-03-27T22:41:30Z</time></trkpt><trkpt lat="41.41492339274947" lon="19.72136574083569"><ele>36.0</ele><time>2026-03-27T22:41:31Z</time></trkpt><trkpt lat="41.414617027114325" lon="19.72114250949582"><ele>35.0</ele><time>2026-03-27T22:41:32Z</time></trkpt><trkpt lat="41.414299662020575" lon="19.720993900444086"><ele>34.0</ele><time>2026-03-27T22:41:33Z</time></trkpt><trkpt lat="41.413923530375605" lon="19.7209154105498"><ele>34.5</ele><time>2026-03-27T22:41:34Z</time></trkpt><trkpt lat="41.41352734125901" lon="19.72100494129471"><ele>35.0</ele><time>2026-03-27T22:41:35Z</time></trkpt><trkpt lat="41.41316730006114" lon="19.721093866752422"><ele>33.5</ele><time>2026-03-27T22:41:36Z</time></trkpt><trkpt lat="41.412817201443914" lon="19.721183874046016"><ele>32.0</ele><time>2026-03-27T22:41:37Z</time></trkpt><trkpt lat="41.41247716291185" lon="19.721265763274317"><ele>33.0</ele><time>2026-03-27T22:41:38Z</time></trkpt><trkpt lat="41.412145516597725" lon="19.72135208207659"><ele>34.0</ele><time>2026-03-27T22:41:39Z</time></trkpt><trkpt lat="41.411796173011126" lon="19.72140045301763"><ele>34.0</ele><time>2026-03-27T22:41:40Z</time></trkpt><trkpt lat="41.41147976658948" lon="19.721476633418074"><ele>34.0</ele><time>2026-03-27T22:41:41Z</time></trkpt><trkpt lat="41.41116283347759" lon="19.72158560916932"><ele>35.0</ele><time>2026-03-27T22:41:42Z</time></trkpt><trkpt lat="41.41083364049029" lon="19.721752691042735"><ele>36.0</ele><time>2026-03-27T22:41:43Z</time></trkpt><trkpt lat="41.41051026744375" lon="19.72187172915042"><ele>35.5</ele><time>2026-03-27T22:41:44Z</time></trkpt><trkpt lat="41.41020566283855" lon="19.72198889914499"><ele>35.0</ele><time>2026-03-27T22:41:45Z</time></trkpt><trkpt lat="41.409903216437336" lon="19.722075565942063"><ele>35.5</ele><time>2026-03-27T22:41:46Z</time></trkpt><trkpt lat="41.40963624444164" lon="19.721878142630253"><ele>36.0</ele><time>2026-03-27T22:41:47Z</time></trkpt><trkpt lat="41.40935813902717" lon="19.721770948768803"><ele>36.0</ele><time>2026-03-27T22:41:48Z</time></trkpt><trkpt lat="41.40903840568878" lon="19.72176984172711"><ele>36.0</ele><time>2026-03-27T22:41:49Z</time></trkpt><trkpt lat="41.408720337452195" lon="19.721842923170605"><ele>37.0</ele><time>2026-03-27T22:41:50Z</time></trkpt><trkpt lat="41.40844462089493" lon="19.721917365891517"><ele>38.0</ele><time>2026-03-27T22:41:51Z</time></trkpt><trkpt lat="41.40819879443366" lon="19.721972082884555"><ele>37.0</ele><time>2026-03-27T22:41:52Z</time></trkpt><trkpt lat="41.40793388739552" lon="19.72202096333806"><ele>36.0</ele><time>2026-03-27T22:41:53Z</time></trkpt><trkpt lat="41.407691184456695" lon="19.72205307784901"><ele>36.0</ele><time>2026-03-27T22:41:54Z</time></trkpt><trkpt lat="41.40745880600309" lon="19.722092159881814"><ele>36.0</ele><time>2026-03-27T22:41:55Z</time></trkpt><trkpt lat="41.407252298952336" lon="19.722129470865788"><ele>36.0</ele><time>2026-03-27T22:41:56Z</time></trkpt><trkpt lat="41.40703471737958" lon="19.722188865703163"><ele>35.0</ele><time>2026-03-27T22:41:57Z</time></trkpt><trkpt lat="41.406839968477136" lon="19.722206627785976"><ele>34.0</ele><time>2026-03-27T22:41:58Z</time></trkpt><trkpt lat="41.40664212312207" lon="19.722229713472856"><ele>33.0</ele><time>2026-03-27T22:41:59Z</time></trkpt><trkpt lat="41.406462959074155" lon="19.72225012937062"><ele>35.0</ele><time>2026-03-27T22:42:00Z</time></trkpt><trkpt lat="41.406284494798584" lon="19.72228957349651"><ele>37.0</ele><time>2026-03-27T22:42:01Z</time></trkpt><trkpt lat="41.40614186012457" lon="19.722335262723014"><ele>39.0</ele><time>2026-03-27T22:42:02Z</time></trkpt><trkpt lat="41.40590738461566" lon="19.7223192395269"><ele>39.0</ele><time>2026-03-27T22:42:03Z</time></trkpt><trkpt lat="41.40570218222588" lon="19.72234754156698"><ele>39.0</ele><time>2026-03-27T22:42:04Z</time></trkpt><trkpt lat="41.40554185042895" lon="19.72232642603194"><ele>39.0</ele><time>2026-03-27T22:42:05Z</time></trkpt><trkpt lat="41.40538578918796" lon="19.72230104759806"><ele>39.75</ele><time>2026-03-27T22:42:06Z</time></trkpt><trkpt lat="41.40523369663529" lon="19.722328027152642"><ele>40.5</ele><time>2026-03-27T22:42:07Z</time></trkpt><trkpt lat="41.40512711828874" lon="19.72233590542116"><ele>41.25</ele><time>2026-03-27T22:42:08Z</time></trkpt><trkpt lat="41.4049935250389" lon="19.72224812216704"><ele>42.0</ele><time>2026-03-27T22:42:09Z</time></trkpt><trkpt lat="41.4048401114298" lon="19.722305786792415"><ele>42.0</ele><time>2026-03-27T22:42:10Z</time></trkpt><trkpt lat="41.404706240556216" lon="19.72246494836554"><ele>42.0</ele><time>2026-03-27T22:42:11Z</time></trkpt><trkpt lat="41.404579295918225" lon="19.722584075310984"><ele>42.0</ele><time>2026-03-27T22:42:12Z</time></trkpt><trkpt lat="41.40444751668941" lon="19.722648734889727"><ele>41.4</ele><time>2026-03-27T22:42:13Z</time></trkpt><trkpt lat="41.40432724014417" lon="19.722719444831924"><ele>40.800000000000004</ele><time>2026-03-27T22:42:14Z</time></trkpt><trkpt lat="41.40421636679215" lon="19.722784207588134"><ele>40.2</ele><time>2026-03-27T22:42:15Z</time></trkpt><trkpt lat="41.40411858040074" lon="19.72274606693641"><ele>39.6</ele><time>2026-03-27T22:42:16Z</time></trkpt><trkpt lat="41.404030505816586" lon="19.722731280601643"><ele>39.0</ele><time>2026-03-27T22:42:17Z</time></trkpt><trkpt lat="41.40396162878938" lon="19.722739547927723"><ele>38.4</ele><time>2026-03-27T22:42:18Z</time></trkpt><trkpt lat="41.40380743318568" lon="19.722714817780854"><ele>37.8</ele><time>2026-03-27T22:42:20Z</time></trkpt><trkpt lat="41.40372793297758" lon="19.722658734122607"><ele>37.2</ele><time>2026-03-27T22:42:21Z</time></trkpt><trkpt lat="41.403616572308856" lon="19.722713355645958"><ele>36.6</ele><time>2026-03-27T22:42:23Z</time></trkpt><trkpt lat="41.40355709078621" lon="19.72276949662682"><ele>36.0</ele><time>2026-03-27T22:42:24Z</time></trkpt><trkpt lat="41.40346872820714" lon="19.72284706740338"><ele>36.0</ele><time>2026-03-27T22:42:26Z</time></trkpt><trkpt lat="41.40340262236434" lon="19.722911920972873"><ele>36.0</ele><time>2026-03-27T22:42:27Z</time></trkpt><trkpt lat="41.40335723132755" lon="19.722981646086858"><ele>36.0</ele><time>2026-03-27T22:42:28.001Z</time></trkpt><trkpt lat="41.40322724578261" lon="19.722980215040817"><ele>36.0</ele><time>2026-03-27T22:42:30.001Z</time></trkpt><trkpt lat="41.40305117288656" lon="19.722816545017523"><ele>36.0</ele><time>2026-03-27T22:42:31.001Z</time></trkpt><trkpt lat="41.402896282411646" lon="19.7226152845044"><ele>36.0</ele><time>2026-03-27T22:42:32.001Z</time></trkpt><trkpt lat="41.40274356483923" lon="19.722349168078633"><ele>36.0</ele><time>2026-03-27T22:42:33Z</time></trkpt><trkpt lat="41.40268802800353" lon="19.722202321457402"><ele>36.0</ele><time>2026-03-27T22:42:34Z</time></trkpt><trkpt lat="41.40259782528806" lon="19.7220922190892"><ele>36.0</ele><time>2026-03-27T22:42:35Z</time></trkpt><trkpt lat="41.402562453196474" lon="19.721955069845507"><ele>36.0</ele><time>2026-03-27T22:42:36Z</time></trkpt><trkpt lat="41.40249913623847" lon="19.72185464791177"><ele>36.25</ele><time>2026-03-27T22:42:37Z</time></trkpt><trkpt lat="41.40237435586685" lon="19.72172327188563"><ele>36.5</ele><time>2026-03-27T22:42:38Z</time></trkpt><trkpt lat="41.40228736832455" lon="19.721637024949324"><ele>36.75</ele><time>2026-03-27T22:42:39Z</time></trkpt><trkpt lat="41.40224381211231" lon="19.721508970692124"><ele>37.0</ele><time>2026-03-27T22:42:40Z</time></trkpt><trkpt lat="41.40219745098062" lon="19.721390218046476"><ele>37.0</ele><time>2026-03-27T22:42:41Z</time></trkpt><trkpt lat="41.4021910609899" lon="19.721242028959118"><ele>37.0</ele><time>2026-03-27T22:42:42Z</time></trkpt><trkpt lat="41.40217772051674" lon="19.721098560728212"><ele>37.0</ele><time>2026-03-27T22:42:43Z</time></trkpt><trkpt lat="41.40216183954209" lon="19.72098331872668"><ele>37.0</ele><time>2026-03-27T22:42:44Z</time></trkpt><trkpt lat="41.40213875939741" lon="19.720860764777537"><ele>37.0</ele><time>2026-03-27T22:42:45Z</time></trkpt><trkpt lat="41.40213475369619" lon="19.720720876185638"><ele>37.0</ele><time>2026-03-27T22:42:46Z</time></trkpt><trkpt lat="41.402135771367" lon="19.720595119295123"><ele>37.0</ele><time>2026-03-27T22:42:47Z</time></trkpt><trkpt lat="41.40211503794535" lon="19.720484774960322"><ele>37.0</ele><time>2026-03-27T22:42:48Z</time></trkpt><trkpt lat="41.40209882159755" lon="19.72039761338047"><ele>37.0</ele><time>2026-03-27T22:42:49Z</time></trkpt><trkpt lat="41.4020885076589" lon="19.72030874108821"><ele>37.0</ele><time>2026-03-27T22:42:50Z</time></trkpt><trkpt lat="41.40207750245377" lon="19.720140595805873"><ele>37.0</ele><time>2026-03-27T22:42:52Z</time></trkpt><trkpt lat="41.40206589311275" lon="19.720044375270845"><ele>37.0</ele><time>2026-03-27T22:42:53Z</time></trkpt><trkpt lat="41.402093986275204" lon="19.719944430972717"><ele>37.0</ele><time>2026-03-27T22:42:54Z</time></trkpt><trkpt lat="41.402135883165954" lon="19.71985305503151"><ele>37.0</ele><time>2026-03-27T22:42:55Z</time></trkpt><trkpt lat="41.40216262652686" lon="19.719766821099885"><ele>37.0</ele><time>2026-03-27T22:42:56Z</time></trkpt><trkpt lat="41.402181531972644" lon="19.719686660935288"><ele>37.0</ele><time>2026-03-27T22:42:57Z</time></trkpt><trkpt lat="41.40222354563297" lon="19.719585010899202"><ele>37.0</ele><time>2026-03-27T22:42:58Z</time></trkpt><trkpt lat="41.40230141677814" lon="19.719490526447704"><ele>37.0</ele><time>2026-03-27T22:42:59Z</time></trkpt><trkpt lat="41.40238455609393" lon="19.719405061751882"><ele>37.0</ele><time>2026-03-27T22:43:00Z</time></trkpt><trkpt lat="41.40246287295197" lon="19.719364665105626"><ele>37.0</ele><time>2026-03-27T22:43:01Z</time></trkpt><trkpt lat="41.40254777793078" lon="19.719315122479784"><ele>37.0</ele><time>2026-03-27T22:43:02Z</time></trkpt><trkpt lat="41.402622612003725" lon="19.719253865896512"><ele>37.0</ele><time>2026-03-27T22:43:03Z</time></trkpt><trkpt lat="41.40269107524827" lon="19.719184553436694"><ele>37.0</ele><time>2026-03-27T22:43:04Z</time></trkpt><trkpt lat="41.402755118426455" lon="19.719118610555558"><ele>37.0</ele><time>2026-03-27T22:43:05Z</time></trkpt><trkpt lat="41.40282833078204" lon="19.719055655986157"><ele>37.0</ele><time>2026-03-27T22:43:06Z</time></trkpt><trkpt lat="41.40289437727166" lon="19.718998304167208"><ele>37.0</ele><time>2026-03-27T22:43:07Z</time></trkpt><trkpt lat="41.40296169388117" lon="19.718940460603875"><ele>37.0</ele><time>2026-03-27T22:43:08Z</time></trkpt><trkpt lat="41.403029526130666" lon="19.718879746601417"><ele>37.0</ele><time>2026-03-27T22:43:09Z</time></trkpt><trkpt lat="41.40309210850478" lon="19.71881960095559"><ele>37.0</ele><time>2026-03-27T22:43:10Z</time></trkpt><trkpt lat="41.40315908447739" lon="19.718743823405045"><ele>37.0</ele><time>2026-03-27T22:43:11Z</time></trkpt><trkpt lat="41.40323072050041" lon="19.718680532117503"><ele>37.0</ele><time>2026-03-27T22:43:12Z</time></trkpt><trkpt lat="41.40330074137489" lon="19.71862386939032"><ele>37.0</ele><time>2026-03-27T22:43:13Z</time></trkpt><trkpt lat="41.403371658349705" lon="19.71855521668263"><ele>37.0</ele><time>2026-03-27T22:43:14Z</time></trkpt><trkpt lat="41.40344490315743" lon="19.718489298728645"><ele>37.0</ele><time>2026-03-27T22:43:15Z</time></trkpt><trkpt lat="41.40352183382502" lon="19.718425826221207"><ele>36.833333333333336</ele><time>2026-03-27T22:43:16Z</time></trkpt><trkpt lat="41.40359326352453" lon="19.718370198293695"><ele>36.66666666666667</ele><time>2026-03-27T22:43:17Z</time></trkpt><trkpt lat="41.403662452734224" lon="19.718310574926832"><ele>36.5</ele><time>2026-03-27T22:43:18Z</time></trkpt><trkpt lat="41.403727721494384" lon="19.71825815959861"><ele>36.333333333333336</ele><time>2026-03-27T22:43:19Z</time></trkpt><trkpt lat="41.40379078969682" lon="19.71819878741271"><ele>36.166666666666664</ele><time>2026-03-27T22:43:20Z</time></trkpt><trkpt lat="41.40385590246828" lon="19.718157175947233"><ele>36.0</ele><time>2026-03-27T22:43:21Z</time></trkpt><trkpt lat="41.40391822777205" lon="19.718118422468493"><ele>36.00000000000001</ele><time>2026-03-27T22:43:22Z</time></trkpt><trkpt lat="41.40398353130672" lon="19.718084111271715"><ele>36.0</ele><time>2026-03-27T22:43:23Z</time></trkpt><trkpt lat="41.40404912048782" lon="19.71805099610661"><ele>36.0</ele><time>2026-03-27T22:43:24Z</time></trkpt><trkpt lat="41.40411481970167" lon="19.718013658190483"><ele>36.0</ele><time>2026-03-27T22:43:25Z</time></trkpt><trkpt lat="41.40418903846682" lon="19.71798313514663"><ele>36.0</ele><time>2026-03-27T22:43:26Z</time></trkpt><trkpt lat="41.40426072164137" lon="19.717961618211763"><ele>36.00000000000001</ele><time>2026-03-27T22:43:27Z</time></trkpt><trkpt lat="41.404329431351506" lon="19.717942120527297"><ele>36.0</ele><time>2026-03-27T22:43:28Z</time></trkpt><trkpt lat="41.404405527312235" lon="19.71792217841779"><ele>36.0</ele><time>2026-03-27T22:43:29Z</time></trkpt><trkpt lat="41.404479714092446" lon="19.717905227201737"><ele>36.0</ele><time>2026-03-27T22:43:30Z</time></trkpt><trkpt lat="41.40455946318634" lon="19.71790634491479"><ele>36.0</ele><time>2026-03-27T22:43:31Z</time></trkpt><trkpt lat="41.404640450254085" lon="19.71791070473991"><ele>36.0</ele><time>2026-03-27T22:43:32Z</time></trkpt><trkpt lat="41.40471946904922" lon="19.71790493305514"><ele>36.0</ele><time>2026-03-27T22:43:33Z</time></trkpt><trkpt lat="41.4047964708772" lon="19.717879966900732"><ele>36.0</ele><time>2026-03-27T22:43:34Z</time></trkpt><trkpt lat="41.40487810199288" lon="19.717849591102148"><ele>36.0</ele><time>2026-03-27T22:43:35Z</time></trkpt><trkpt lat="41.40496051779124" lon="19.717823936694042"><ele>36.0</ele><time>2026-03-27T22:43:36Z</time></trkpt><trkpt lat="41.40504716424929" lon="19.717808549798335"><ele>36.0</ele><time>2026-03-27T22:43:37Z</time></trkpt><trkpt lat="41.40513431123645" lon="19.717780240358795"><ele>36.0</ele><time>2026-03-27T22:43:38Z</time></trkpt><trkpt lat="41.40521644705179" lon="19.7177567033253"><ele>36.0</ele><time>2026-03-27T22:43:39Z</time></trkpt><trkpt lat="41.40530265305979" lon="19.717756135932323"><ele>36.0</ele><time>2026-03-27T22:43:40Z</time></trkpt><trkpt lat="41.40539298457204" lon="19.71773069814641"><ele>36.0</ele><time>2026-03-27T22:43:41Z</time></trkpt><trkpt lat="41.40547774517105" lon="19.717696143587503"><ele>36.0</ele><time>2026-03-27T22:43:42Z</time></trkpt><trkpt lat="41.40556631807425" lon="19.717652205684917"><ele>36.0</ele><time>2026-03-27T22:43:43Z</time></trkpt><trkpt lat="41.40565508226034" lon="19.717618475547262"><ele>36.0</ele><time>2026-03-27T22:43:44Z</time></trkpt><trkpt lat="41.405743380749044" lon="19.717600036109904"><ele>36.0</ele><time>2026-03-27T22:43:45Z</time></trkpt><trkpt lat="41.40584454428943" lon="19.71758973260767"><ele>35.8</ele><time>2026-03-27T22:43:46Z</time></trkpt><trkpt lat="41.405945235128605" lon="19.717571478436664"><ele>35.6</ele><time>2026-03-27T22:43:47Z</time></trkpt><trkpt lat="41.40604188230145" lon="19.717561629658338"><ele>35.4</ele><time>2026-03-27T22:43:48Z</time></trkpt><trkpt lat="41.40614449123006" lon="19.717546528967436"><ele>35.2</ele><time>2026-03-27T22:43:49Z</time></trkpt><trkpt lat="41.40624987692937" lon="19.717534904109527"><ele>35.0</ele><time>2026-03-27T22:43:50Z</time></trkpt><trkpt lat="41.4063531392706" lon="19.71751729271042"><ele>34.6</ele><time>2026-03-27T22:43:51Z</time></trkpt><trkpt lat="41.40644785341462" lon="19.71752159587601"><ele>34.2</ele><time>2026-03-27T22:43:52Z</time></trkpt><trkpt lat="41.40654904595107" lon="19.717519129672816"><ele>33.8</ele><time>2026-03-27T22:43:53Z</time></trkpt><trkpt lat="41.40665095968424" lon="19.71752388182809"><ele>33.4</ele><time>2026-03-27T22:43:54Z</time></trkpt><trkpt lat="41.406764088880095" lon="19.71750735028638"><ele>33.0</ele><time>2026-03-27T22:43:55Z</time></trkpt><trkpt lat="41.40687375876361" lon="19.717502737203112"><ele>33.0</ele><time>2026-03-27T22:43:56Z</time></trkpt><trkpt lat="41.40698721570789" lon="19.717499031535763"><ele>33.0</ele><time>2026-03-27T22:43:57Z</time></trkpt><trkpt lat="41.40709574514435" lon="19.717500907303915"><ele>33.0</ele><time>2026-03-27T22:43:58Z</time></trkpt><trkpt lat="41.40719619672289" lon="19.717514429155173"><ele>33.0</ele><time>2026-03-27T22:43:59Z</time></trkpt><trkpt lat="41.40730394355012" lon="19.717519043647663"><ele>33.0</ele><time>2026-03-27T22:44:00Z</time></trkpt><trkpt lat="41.40741025308131" lon="19.717513485770006"><ele>33.0</ele><time>2026-03-27T22:44:01Z</time></trkpt><trkpt lat="41.40752140835477" lon="19.717500697236556"><ele>33.0</ele><time>2026-03-27T22:44:02Z</time></trkpt><trkpt lat="41.40763608552554" lon="19.717494112861253"><ele>33.0</ele><time>2026-03-27T22:44:03Z</time></trkpt><trkpt lat="41.40774943581333" lon="19.71748299544102"><ele>33.0</ele><time>2026-03-27T22:44:04Z</time></trkpt><trkpt lat="41.40786458347411" lon="19.717466651707404"><ele>33.0</ele><time>2026-03-27T22:44:05Z</time></trkpt><trkpt lat="41.407975527296585" lon="19.71744090418265"><ele>33.0</ele><time>2026-03-27T22:44:06Z</time></trkpt><trkpt lat="41.40809308650636" lon="19.71742427438096"><ele>33.0</ele><time>2026-03-27T22:44:07Z</time></trkpt><trkpt lat="41.40820737037878" lon="19.717397579929944"><ele>33.0</ele><time>2026-03-27T22:44:08Z</time></trkpt><trkpt lat="41.408329828927194" lon="19.7173736406917"><ele>33.75</ele><time>2026-03-27T22:44:09Z</time></trkpt><trkpt lat="41.40844790786361" lon="19.717342874541856"><ele>34.5</ele><time>2026-03-27T22:44:10Z</time></trkpt><trkpt lat="41.4085619862271" lon="19.717302665762656"><ele>35.25</ele><time>2026-03-27T22:44:11Z</time></trkpt><trkpt lat="41.408670534791966" lon="19.71726114294988"><ele>36.0</ele><time>2026-03-27T22:44:12Z</time></trkpt><trkpt lat="41.40878472917346" lon="19.7172348006008"><ele>35.5</ele><time>2026-03-27T22:44:13Z</time></trkpt><trkpt lat="41.408896885491004" lon="19.717219854720632"><ele>35.0</ele><time>2026-03-27T22:44:14Z</time></trkpt><trkpt lat="41.40901737808054" lon="19.717195396545478"><ele>34.5</ele><time>2026-03-27T22:44:15Z</time></trkpt><trkpt lat="41.40913714587368" lon="19.717153799608173"><ele>34.0</ele><time>2026-03-27T22:44:16Z</time></trkpt><trkpt lat="41.40925498164446" lon="19.717130883699944"><ele>34.0</ele><time>2026-03-27T22:44:17Z</time></trkpt><trkpt lat="41.40937195542851" lon="19.717099012728603"><ele>34.0</ele><time>2026-03-27T22:44:18Z</time></trkpt><trkpt lat="41.40948096853289" lon="19.71706901715174"><ele>34.0</ele><time>2026-03-27T22:44:19Z</time></trkpt><trkpt lat="41.40959833793267" lon="19.71704171403364"><ele>34.0</ele><time>2026-03-27T22:44:20Z</time></trkpt><trkpt lat="41.4097169976506" lon="19.717022576738056"><ele>34.5</ele><time>2026-03-27T22:44:21Z</time></trkpt><trkpt lat="41.40983032995047" lon="19.71700895605682"><ele>35.0</ele><time>2026-03-27T22:44:22Z</time></trkpt><trkpt lat="41.409955582147475" lon="19.71697136009098"><ele>35.5</ele><time>2026-03-27T22:44:23Z</time></trkpt><trkpt lat="41.41008640799191" lon="19.71693534773295"><ele>36.0</ele><time>2026-03-27T22:44:24Z</time></trkpt><trkpt lat="41.410209415925856" lon="19.71692415991338"><ele>36.0</ele><time>2026-03-27T22:44:25Z</time></trkpt><trkpt lat="41.41033645293747" lon="19.716896389347948"><ele>36.0</ele><time>2026-03-27T22:44:26Z</time></trkpt><trkpt lat="41.410461550573764" lon="19.7168901621043"><ele>36.0</ele><time>2026-03-27T22:44:27Z</time></trkpt><trkpt lat="41.4105842542786" lon="19.716862621539555"><ele>36.0</ele><time>2026-03-27T22:44:28Z</time></trkpt><trkpt lat="41.41071202640615" lon="19.716844828029608"><ele>35.25</ele><time>2026-03-27T22:44:29Z</time></trkpt><trkpt lat="41.4108417709128" lon="19.716841727143116"><ele>34.5</ele><time>2026-03-27T22:44:30Z</time></trkpt><trkpt lat="41.41097363872142" lon="19.716835967130244"><ele>33.75</ele><time>2026-03-27T22:44:31Z</time></trkpt><trkpt lat="41.41110141376915" lon="19.716832840085146"><ele>33.0</ele><time>2026-03-27T22:44:32Z</time></trkpt><trkpt lat="41.41123035002403" lon="19.716812862952953"><ele>34.0</ele><time>2026-03-27T22:44:33Z</time></trkpt><trkpt lat="41.41135639259104" lon="19.7167901347294"><ele>35.0</ele><time>2026-03-27T22:44:34Z</time></trkpt><trkpt lat="41.411483968779436" lon="19.71676969981184"><ele>36.0</ele><time>2026-03-27T22:44:35Z</time></trkpt><trkpt lat="41.41161434953885" lon="19.716738761058878"><ele>37.0</ele><time>2026-03-27T22:44:36Z</time></trkpt><trkpt lat="41.4117417061498" lon="19.716727151760605"><ele>37.0</ele><time>2026-03-27T22:44:37Z</time></trkpt><trkpt lat="41.41187794853019" lon="19.716713394662904"><ele>37.0</ele><time>2026-03-27T22:44:38Z</time></trkpt><trkpt lat="41.41200894922079" lon="19.71670063526937"><ele>37.0</ele><time>2026-03-27T22:44:39Z</time></trkpt><trkpt lat="41.412138210200155" lon="19.71667142938663"><ele>37.0</ele><time>2026-03-27T22:44:40Z</time></trkpt><trkpt lat="41.412267208399335" lon="19.7166248903124"><ele>36.5</ele><time>2026-03-27T22:44:41Z</time></trkpt><trkpt lat="41.4123899018112" lon="19.71659281706518"><ele>36.0</ele><time>2026-03-27T22:44:42Z</time></trkpt><trkpt lat="41.41250775451951" lon="19.71655236285048"><ele>35.5</ele><time>2026-03-27T22:44:43Z</time></trkpt><trkpt lat="41.412620934701614" lon="19.71650572683038"><ele>35.0</ele><time>2026-03-27T22:44:44Z</time></trkpt><trkpt lat="41.41271561000772" lon="19.716476859560323"><ele>35.0</ele><time>2026-03-27T22:44:45Z</time></trkpt><trkpt lat="41.41280143273906" lon="19.716422894865943"><ele>35.0</ele><time>2026-03-27T22:44:46Z</time></trkpt><trkpt lat="41.41289438545053" lon="19.71638564071675"><ele>35.0</ele><time>2026-03-27T22:44:47Z</time></trkpt><trkpt lat="41.41296763978997" lon="19.716343631826483"><ele>35.0</ele><time>2026-03-27T22:44:48Z</time></trkpt><trkpt lat="41.413073138817666" lon="19.716320285266583"><ele>35.0</ele><time>2026-03-27T22:44:49Z</time></trkpt><trkpt lat="41.41317285778699" lon="19.716363161687426"><ele>34.5</ele><time>2026-03-27T22:44:50Z</time></trkpt><trkpt lat="41.413323449555726" lon="19.716523156648528"><ele>34.0</ele><time>2026-03-27T22:44:51Z</time></trkpt><trkpt lat="41.413424616609895" lon="19.716543793052516"><ele>33.5</ele><time>2026-03-27T22:44:52Z</time></trkpt><trkpt lat="41.41351075100421" lon="19.71653342651243"><ele>33.0</ele><time>2026-03-27T22:44:53Z</time></trkpt><trkpt lat="41.413605240570604" lon="19.716501245337465"><ele>33.0</ele><time>2026-03-27T22:44:54Z</time></trkpt><trkpt lat="41.413700242357756" lon="19.71646481176398"><ele>33.0</ele><time>2026-03-27T22:44:55Z</time></trkpt><trkpt lat="41.413795917245785" lon="19.716418826180586"><ele>33.0</ele><time>2026-03-27T22:44:56Z</time></trkpt><trkpt lat="41.4138975992633" lon="19.71635079454428"><ele>33.0</ele><time>2026-03-27T22:44:57Z</time></trkpt><trkpt lat="41.413985333697305" lon="19.71626231681301"><ele>33.0</ele><time>2026-03-27T22:44:58Z</time></trkpt><trkpt lat="41.414071780369206" lon="19.7161238914331"><ele>33.0</ele><time>2026-03-27T22:44:59Z</time></trkpt><trkpt lat="41.4141185104371" lon="19.716010895085518"><ele>33.0</ele><time>2026-03-27T22:45:00Z</time></trkpt><trkpt lat="41.4141708919333" lon="19.715829271213103"><ele>33.0</ele><time>2026-03-27T22:45:01Z</time></trkpt><trkpt lat="41.414295513491595" lon="19.715690863547838"><ele>33.0</ele><time>2026-03-27T22:45:04Z</time></trkpt><trkpt lat="41.41438330579692" lon="19.715659892190786"><ele>33.0</ele><time>2026-03-27T22:45:05Z</time></trkpt><trkpt lat="41.41441883191605" lon="19.715577656382862"><ele>33.0</ele><time>2026-03-27T22:45:06Z</time></trkpt><trkpt lat="41.414440550805175" lon="19.715329379823913"><ele>33.0</ele><time>2026-03-27T22:45:07Z</time></trkpt><trkpt lat="41.41444013535803" lon="19.71503890735736"><ele>34.0</ele><time>2026-03-27T22:45:08Z</time></trkpt><trkpt lat="41.41459080895136" lon="19.715057260480403"><ele>35.0</ele><time>2026-03-27T22:45:09Z</time></trkpt><trkpt lat="41.415357089028" lon="19.7163624248688"><ele>34.33333333333333</ele><time>2026-03-27T22:45:10Z</time></trkpt><trkpt lat="41.415646930969594" lon="19.71636102161909"><ele>33.666666666666664</ele><time>2026-03-27T22:45:13Z</time></trkpt><trkpt lat="41.41575652240576" lon="19.716354359653614"><ele>33.0</ele><time>2026-03-27T22:45:14Z</time></trkpt><trkpt lat="41.415869576792694" lon="19.716299813121942"><ele>33.0</ele><time>2026-03-27T22:45:15Z</time></trkpt><trkpt lat="41.4159999577943" lon="19.716253370852034"><ele>33.0</ele><time>2026-03-27T22:45:16Z</time></trkpt><trkpt lat="41.41609911614018" lon="19.716216462712556"><ele>33.0</ele><time>2026-03-27T22:45:17Z</time></trkpt><trkpt lat="41.416198078621356" lon="19.716182360855704"><ele>33.0</ele><time>2026-03-27T22:45:18Z</time></trkpt><trkpt lat="41.41630541838115" lon="19.7161813167132"><ele>33.0</ele><time>2026-03-27T22:45:19Z</time></trkpt><trkpt lat="41.41640753426108" lon="19.716185147329114"><ele>33.199999999999996</ele><time>2026-03-27T22:45:20Z</time></trkpt><trkpt lat="41.41649833682735" lon="19.71616423993547"><ele>33.4</ele><time>2026-03-27T22:45:21Z</time></trkpt><trkpt lat="41.41658515158221" lon="19.71614247109103"><ele>33.599999999999994</ele><time>2026-03-27T22:45:22Z</time></trkpt><trkpt lat="41.41667633659588" lon="19.716126215788023"><ele>33.8</ele><time>2026-03-27T22:45:23Z</time></trkpt><trkpt lat="41.416760646576435" lon="19.716107308937204"><ele>34.0</ele><time>2026-03-27T22:45:24Z</time></trkpt><trkpt lat="41.41685592384062" lon="19.716087451194852"><ele>34.0</ele><time>2026-03-27T22:45:25Z</time></trkpt><trkpt lat="41.41695084438031" lon="19.716070127376636"><ele>34.0</ele><time>2026-03-27T22:45:26Z</time></trkpt><trkpt lat="41.41702460483725" lon="19.715995630032996"><ele>34.0</ele><time>2026-03-27T22:45:28Z</time></trkpt><trkpt lat="41.41715921075393" lon="19.715938328255902"><ele>34.0</ele><time>2026-03-27T22:45:30Z</time></trkpt><trkpt lat="41.417252263232044" lon="19.7159199593451"><ele>34.0</ele><time>2026-03-27T22:45:31Z</time></trkpt><trkpt lat="41.41736661458502" lon="19.716016214951313"><ele>30.0</ele><time>2026-03-27T22:45:32Z</time></trkpt><trkpt lat="41.418081517942355" lon="19.71608502270424"><ele>30.0</ele><time>2026-03-27T22:45:41.144Z</time></trkpt><trkpt lat="41.41816288226934" lon="19.716082322000318"><ele>30.0</ele><time>2026-03-27T22:45:42.144Z</time></trkpt><trkpt lat="41.41824822273444" lon="19.716081220932242"><ele>30.0</ele><time>2026-03-27T22:45:43.144Z</time></trkpt><trkpt lat="41.418338670927525" lon="19.716069265504853"><ele>30.0</ele><time>2026-03-27T22:45:44.144Z</time></trkpt><trkpt lat="41.41980552769076" lon="19.716021341250013"><ele>30.5</ele><time>2026-03-27T22:46:05.144Z</time></trkpt><trkpt lat="41.42003040103998" lon="19.715979598240494"><ele>31.0</ele><time>2026-03-27T22:46:11Z</time></trkpt><trkpt lat="41.420175665220434" lon="19.715917980330246"><ele>31.5</ele><time>2026-03-27T22:46:14Z</time></trkpt><trkpt lat="41.42021401755393" lon="19.71584320382226"><ele>32.0</ele><time>2026-03-27T22:46:15Z</time></trkpt><trkpt lat="41.42027801418263" lon="19.715750020525462"><ele>31.999999999999996</ele><time>2026-03-27T22:46:17Z</time></trkpt><trkpt lat="41.42037013112894" lon="19.71566738267421"><ele>32.0</ele><time>2026-03-27T22:46:19Z</time></trkpt><trkpt lat="41.420446568128696" lon="19.715622288072385"><ele>32.0</ele><time>2026-03-27T22:46:21Z</time></trkpt><trkpt lat="41.420515064952134" lon="19.715593414375864"><ele>32.0</ele><time>2026-03-27T22:46:23Z</time></trkpt><trkpt lat="41.420587728431066" lon="19.71555452065206"><ele>31.999999999999996</ele><time>2026-03-27T22:46:26Z</time></trkpt><trkpt lat="41.42064204692862" lon="19.71549273853917"><ele>32.0</ele><time>2026-03-27T22:46:28Z</time></trkpt><trkpt lat="41.42072154056994" lon="19.715456879072896"><ele>32.83333333333333</ele><time>2026-03-27T22:46:30Z</time></trkpt><trkpt lat="41.420815783835735" lon="19.715435263368935"><ele>33.666666666666664</ele><time>2026-03-27T22:46:32Z</time></trkpt><trkpt lat="41.42089222210343" lon="19.715403348087257"><ele>34.5</ele><time>2026-03-27T22:46:34Z</time></trkpt><trkpt lat="41.420926557760396" lon="19.715329798144005"><ele>35.333333333333336</ele><time>2026-03-27T22:46:36Z</time></trkpt><trkpt lat="41.42097262996565" lon="19.715254792479005"><ele>36.16666666666667</ele><time>2026-03-27T22:46:38Z</time></trkpt><trkpt lat="41.42097314407197" lon="19.715151668674217"><ele>37.0</ele><time>2026-03-27T22:46:40.001Z</time></trkpt><trkpt lat="41.42098527820973" lon="19.715059722290846"><ele>37.0</ele><time>2026-03-27T22:47:12Z</time></trkpt></trkseg></trk></gpx>